Wetterdaten: Freitag, 13.04.2018
Datum Zeit Temp. A. Feuchte A. Luftdruck Regen Wind Richtung Richtung Sonnenschein ET UV Solar Taupunkt Windchill Windböen
13.04.2018 00:00 10,1 °C 52 % 999,1 hPa 0,0 mm 0,9 km/h (0 Bft) SO 134 ° 0 min 0,000 mm 0,0 UV-I 0 W/m² 0,7 °C 10,1 °C 1,6 km/h (1 Bft)
13.04.2018 00:01 10,1 °C 53 % 999,1 hPa 0,0 mm 0,5 km/h (0 Bft) SO 134 ° 0 min 0,000 mm 0,0 UV-I 0 W/m² 1,0 °C 10,1 °C 1,6 km/h (1 Bft)
13.04.2018 00:02 10,1 °C 53 % 999,1 hPa 0,0 mm 0,1 km/h (0 Bft) SO 134 ° 0 min 0,000 mm 0,0 UV-I 0 W/m² 1,0 °C 10,1 °C 1,6 km/h (1 Bft)
13.04.2018 00:03 10,1 °C 53 % 999,1 hPa 0,0 mm 0,5 km/h (0 Bft) SO 134 ° 0 min 0,000 mm 0,0 UV-I 0 W/m² 1,0 °C 10,1 °C 1,6 km/h (1 Bft)
13.04.2018 00:04 10,1 °C 52 % 999,1 hPa 0,0 mm 0,0 km/h (0 Bft) SO 134 ° 0 min 0,000 mm 0,0 UV-I 0 W/m² 0,7 °C 10,1 °C 0,0 km/h (0 Bft)
13.04.2018 00:05 10,1 °C 53 % 999,1 hPa 0,0 mm 0,0 km/h (0 Bft) SO 134 ° 0 min 0,000 mm 0,0 UV-I 0 W/m² 1,0 °C 10,1 °C 0,0 km/h (0 Bft)
13.04.2018 00:06 10,1 °C 53 % 999,1 hPa 0,0 mm 0,0 km/h (0 Bft) SO 134 ° 0 min 0,000 mm 0,0 UV-I 0 W/m² 1,0 °C 10,1 °C 0,0 km/h (0 Bft)
13.04.2018 00:07 10,1 °C 53 % 999,1 hPa 0,0 mm 0,0 km/h (0 Bft) SO 134 ° 0 min 0,000 mm 0,0 UV-I 0 W/m² 1,0 °C 10,1 °C 0,0 km/h (0 Bft)
13.04.2018 00:08 10,1 °C 52 % 999,1 hPa 0,0 mm 0,5 km/h (0 Bft) SO 134 ° 0 min 0,000 mm 0,0 UV-I 0 W/m² 0,7 °C 10,1 °C 3,2 km/h (1 Bft)
13.04.2018 00:09 10,1 °C 51 % 999,0 hPa 0,0 mm 0,3 km/h (0 Bft) SO 134 ° 0 min 0,000 mm 0,0 UV-I 0 W/m² 0,4 °C 10,1 °C 3,2 km/h (1 Bft)
13.04.2018 00:10 10,2 °C 52 % 999,0 hPa 0,0 mm 0,0 km/h (0 Bft) SO 134 ° 0 min 0,000 mm 0,0 UV-I 0 W/m² 0,8 °C 10,2 °C 0,0 km/h (0 Bft)
13.04.2018 00:11 10,2 °C 52 % 999,1 hPa 0,0 mm 0,0 km/h (0 Bft) SO 134 ° 0 min 0,000 mm 0,0 UV-I 0 W/m² 0,8 °C 10,2 °C 0,0 km/h (0 Bft)
13.04.2018 00:12 10,2 °C 53 % 999,1 hPa 0,0 mm 0,0 km/h (0 Bft) SO 134 ° 0 min 0,000 mm 0,0 UV-I 0 W/m² 1,1 °C 10,2 °C 0,0 km/h (0 Bft)
13.04.2018 00:13 10,2 °C 53 % 999,1 hPa 0,0 mm 0,0 km/h (0 Bft) SO 134 ° 0 min 0,000 mm 0,0 UV-I 0 W/m² 1,1 °C 10,2 °C 0,0 km/h (0 Bft)
13.04.2018 00:14 10,2 °C 54 % 999,1 hPa 0,0 mm 0,3 km/h (0 Bft) SO 134 ° 0 min 0,000 mm 0,0 UV-I 0 W/m² 1,3 °C 10,2 °C 1,6 km/h (1 Bft)
13.04.2018 00:15 10,1 °C 53 % 999,1 hPa 0,0 mm 0,0 km/h (0 Bft) SO 134 ° 0 min 0,000 mm 0,0 UV-I 0 W/m² 1,0 °C 10,1 °C 0,0 km/h (0 Bft)
13.04.2018 00:16 10,1 °C 53 % 999,1 hPa 0,0 mm 1,5 km/h (1 Bft) O-SO 107 ° 0 min 0,000 mm 0,0 UV-I 0 W/m² 1,0 °C 10,1 °C 3,2 km/h (1 Bft)
13.04.2018 00:17 10,1 °C 53 % 999,1 hPa 0,0 mm 1,8 km/h (1 Bft) O-NO 72 ° 0 min 0,000 mm 0,0 UV-I 0 W/m² 1,0 °C 10,1 °C 4,8 km/h (1 Bft)
13.04.2018 00:18 10,0 °C 53 % 999,1 hPa 0,0 mm 1,3 km/h (1 Bft) O-NO 72 ° 0 min 0,000 mm 0,0 UV-I 0 W/m² 0,9 °C 10,0 °C 3,2 km/h (1 Bft)
13.04.2018 00:19 10,0 °C 54 % 999,1 hPa 0,0 mm 1,7 km/h (1 Bft) O 98 ° 0 min 0,000 mm 0,0 UV-I 0 W/m² 1,1 °C 10,0 °C 6,4 km/h (2 Bft)
13.04.2018 00:20 9,9 °C 53 % 999,1 hPa 0,0 mm 0,9 km/h (0 Bft) O 94 ° 0 min 0,000 mm 0,0 UV-I 0 W/m² 0,8 °C 9,9 °C 3,2 km/h (1 Bft)
13.04.2018 00:21 9,9 °C 52 % 999,2 hPa 0,0 mm 0,4 km/h (0 Bft) O 94 ° 0 min 0,000 mm 0,0 UV-I 0 W/m² 0,5 °C 9,9 °C 1,6 km/h (1 Bft)
13.04.2018 00:22 10,0 °C 52 % 999,2 hPa 0,0 mm 0,5 km/h (0 Bft) O 94 ° 0 min 0,000 mm 0,0 UV-I 0 W/m² 0,6 °C 10,0 °C 1,6 km/h (1 Bft)
13.04.2018 00:23 10,1 °C 51 % 999,1 hPa 0,0 mm 0,1 km/h (0 Bft) O 94 ° 0 min 0,000 mm 0,0 UV-I 0 W/m² 0,4 °C 10,1 °C 1,6 km/h (1 Bft)
13.04.2018 00:24 10,1 °C 51 % 999,1 hPa 0,0 mm 0,0 km/h (0 Bft) O 94 ° 0 min 0,000 mm 0,0 UV-I 0 W/m² 0,4 °C 10,1 °C 0,0 km/h (0 Bft)
13.04.2018 00:25 10,2 °C 50 % 999,1 hPa 0,0 mm 0,3 km/h (0 Bft) O 94 ° 0 min 0,000 mm 0,0 UV-I 0 W/m² 0,3 °C 10,2 °C 1,6 km/h (1 Bft)
13.04.2018 00:26 10,2 °C 50 % 999,2 hPa 0,0 mm 0,3 km/h (0 Bft) O 94 ° 0 min 0,000 mm 0,0 UV-I 0 W/m² 0,3 °C 10,2 °C 1,6 km/h (1 Bft)
13.04.2018 00:27 10,3 °C 50 % 999,1 hPa 0,0 mm 0,0 km/h (0 Bft) O 94 ° 0 min 0,000 mm 0,0 UV-I 0 W/m² 0,3 °C 10,3 °C 0,0 km/h (0 Bft)
13.04.2018 00:28 10,3 °C 51 % 999,1 hPa 0,0 mm 0,4 km/h (0 Bft) O 94 ° 0 min 0,000 mm 0,0 UV-I 0 W/m² 0,6 °C 10,3 °C 1,6 km/h (1 Bft)
13.04.2018 00:29 10,3 °C 50 % 999,1 hPa 0,0 mm 0,4 km/h (0 Bft) O 94 ° 0 min 0,000 mm 0,0 UV-I 0 W/m² 0,3 °C 10,3 °C 1,6 km/h (1 Bft)
13.04.2018 00:30 10,2 °C 53 % 999,2 hPa 0,0 mm 1,5 km/h (1 Bft) O 94 ° 0 min 0,000 mm 0,0 UV-I 0 W/m² 1,1 °C 10,2 °C 3,2 km/h (1 Bft)
13.04.2018 00:31 10,1 °C 52 % 999,1 hPa 0,0 mm 0,5 km/h (0 Bft) SO 125 ° 0 min 0,000 mm 0,0 UV-I 0 W/m² 0,7 °C 10,1 °C 1,6 km/h (1 Bft)
13.04.2018 00:32 10,1 °C 52 % 999,2 hPa 0,0 mm 0,0 km/h (0 Bft) SO 125 ° 0 min 0,000 mm 0,0 UV-I 0 W/m² 0,7 °C 10,1 °C 0,0 km/h (0 Bft)
13.04.2018 00:33 10,0 °C 52 % 999,2 hPa 0,0 mm 0,0 km/h (0 Bft) SO 125 ° 0 min 0,000 mm 0,0 UV-I 0 W/m² 0,6 °C 10,0 °C 0,0 km/h (0 Bft)
13.04.2018 00:34 10,0 °C 53 % 999,2 hPa 0,0 mm 0,0 km/h (0 Bft) SO 125 ° 0 min 0,000 mm 0,0 UV-I 0 W/m² 0,9 °C 10,0 °C 0,0 km/h (0 Bft)
13.04.2018 00:35 10,0 °C 52 % 999,2 hPa 0,0 mm 0,0 km/h (0 Bft) SO 125 ° 0 min 0,000 mm 0,0 UV-I 0 W/m² 0,6 °C 10,0 °C 0,0 km/h (0 Bft)
13.04.2018 00:36 9,9 °C 52 % 999,2 hPa 0,0 mm 0,5 km/h (0 Bft) SO 125 ° 0 min 0,000 mm 0,0 UV-I 0 W/m² 0,5 °C 9,9 °C 1,6 km/h (1 Bft)
13.04.2018 00:37 10,0 °C 53 % 999,2 hPa 0,0 mm 0,5 km/h (0 Bft) SO 124 ° 0 min 0,000 mm 0,0 UV-I 0 W/m² 0,9 °C 10,0 °C 3,2 km/h (1 Bft)
13.04.2018 00:38 9,9 °C 53 % 999,2 hPa 0,0 mm 0,5 km/h (0 Bft) SO 124 ° 0 min 0,000 mm 0,0 UV-I 0 W/m² 0,8 °C 9,9 °C 3,2 km/h (1 Bft)
13.04.2018 00:39 9,9 °C 53 % 999,1 hPa 0,0 mm 1,0 km/h (0 Bft) SO 124 ° 0 min 0,000 mm 0,0 UV-I 0 W/m² 0,8 °C 9,9 °C 3,2 km/h (1 Bft)
13.04.2018 00:40 9,9 °C 53 % 999,1 hPa 0,0 mm 0,3 km/h (0 Bft) SO 124 ° 0 min 0,000 mm 0,0 UV-I 0 W/m² 0,8 °C 9,9 °C 1,6 km/h (1 Bft)
13.04.2018 00:41 9,9 °C 53 % 999,1 hPa 0,0 mm 0,0 km/h (0 Bft) SO 124 ° 0 min 0,000 mm 0,0 UV-I 0 W/m² 0,8 °C 9,9 °C 0,0 km/h (0 Bft)
13.04.2018 00:42 9,9 °C 53 % 999,1 hPa 0,0 mm 0,0 km/h (0 Bft) SO 124 ° 0 min 0,000 mm 0,0 UV-I 0 W/m² 0,8 °C 9,9 °C 0,0 km/h (0 Bft)
13.04.2018 00:43 9,9 °C 52 % 999,1 hPa 0,0 mm 0,0 km/h (0 Bft) SO 124 ° 0 min 0,000 mm 0,0 UV-I 0 W/m² 0,5 °C 9,9 °C 0,0 km/h (0 Bft)
13.04.2018 00:44 10,0 °C 52 % 999,1 hPa 0,0 mm 0,0 km/h (0 Bft) SO 124 ° 0 min 0,000 mm 0,0 UV-I 0 W/m² 0,6 °C 10,0 °C 0,0 km/h (0 Bft)
13.04.2018 00:45 10,0 °C 52 % 999,1 hPa 0,0 mm 0,0 km/h (0 Bft) SO 124 ° 0 min 0,000 mm 0,0 UV-I 0 W/m² 0,6 °C 10,0 °C 0,0 km/h (0 Bft)
13.04.2018 00:46 9,9 °C 53 % 999,1 hPa 0,0 mm 1,1 km/h (1 Bft) SO 124 ° 0 min 0,000 mm 0,0 UV-I 0 W/m² 0,8 °C 9,9 °C 3,2 km/h (1 Bft)
13.04.2018 00:47 9,9 °C 53 % 999,1 hPa 0,0 mm 0,0 km/h (0 Bft) SO 124 ° 0 min 0,000 mm 0,0 UV-I 0 W/m² 0,8 °C 9,9 °C 0,0 km/h (0 Bft)
13.04.2018 00:48 9,9 °C 54 % 999,0 hPa 0,0 mm 0,1 km/h (0 Bft) SO 124 ° 0 min 0,000 mm 0,0 UV-I 0 W/m² 1,0 °C 9,9 °C 1,6 km/h (1 Bft)
13.04.2018 00:49 9,9 °C 54 % 999,0 hPa 0,0 mm 0,0 km/h (0 Bft) SO 124 ° 0 min 0,000 mm 0,0 UV-I 0 W/m² 1,0 °C 9,9 °C 0,0 km/h (0 Bft)
13.04.2018 00:50 9,8 °C 53 % 999,0 hPa 0,0 mm 1,5 km/h (1 Bft) NO 49 ° 0 min 0,000 mm 0,0 UV-I 0 W/m² 0,7 °C 9,8 °C 4,8 km/h (1 Bft)
13.04.2018 00:51 9,8 °C 52 % 999,0 hPa 0,0 mm 1,9 km/h (1 Bft) SW 232 ° 0 min 0,000 mm 0,0 UV-I 0 W/m² 0,4 °C 9,8 °C 4,8 km/h (1 Bft)
13.04.2018 00:52 9,8 °C 53 % 999,0 hPa 0,0 mm 0,0 km/h (0 Bft) SW 232 ° 0 min 0,000 mm 0,0 UV-I 0 W/m² 0,7 °C 9,8 °C 0,0 km/h (0 Bft)
13.04.2018 00:53 9,9 °C 52 % 999,0 hPa 0,0 mm 1,8 km/h (1 Bft) SW 232 ° 0 min 0,000 mm 0,0 UV-I 0 W/m² 0,5 °C 9,9 °C 3,2 km/h (1 Bft)
13.04.2018 00:54 9,8 °C 53 % 999,0 hPa 0,0 mm 1,4 km/h (1 Bft) SW 232 ° 0 min 0,000 mm 0,0 UV-I 0 W/m² 0,7 °C 9,8 °C 1,6 km/h (1 Bft)
13.04.2018 00:55 9,8 °C 52 % 999,0 hPa 0,0 mm 0,9 km/h (0 Bft) SW 232 ° 0 min 0,000 mm 0,0 UV-I 0 W/m² 0,4 °C 9,8 °C 1,6 km/h (1 Bft)
13.04.2018 00:56 9,8 °C 52 % 999,0 hPa 0,0 mm 0,1 km/h (0 Bft) SW 232 ° 0 min 0,000 mm 0,0 UV-I 0 W/m² 0,4 °C 9,8 °C 1,6 km/h (1 Bft)
13.04.2018 00:57 9,8 °C 53 % 999,0 hPa 0,0 mm 0,0 km/h (0 Bft) SW 232 ° 0 min 0,000 mm 0,0 UV-I 0 W/m² 0,7 °C 9,8 °C 0,0 km/h (0 Bft)
13.04.2018 00:58 9,8 °C 53 % 999,1 hPa 0,0 mm 0,0 km/h (0 Bft) SW 232 ° 0 min 0,000 mm 0,0 UV-I 0 W/m² 0,7 °C 9,8 °C 0,0 km/h (0 Bft)
13.04.2018 00:59 9,8 °C 53 % 999,0 hPa 0,0 mm 0,4 km/h (0 Bft) SW 232 ° 0 min 0,000 mm 0,0 UV-I 0 W/m² 0,7 °C 9,8 °C 1,6 km/h (1 Bft)
13.04.2018 01:00 9,8 °C 52 % 999,0 hPa 0,0 mm 0,0 km/h (0 Bft) SW 232 ° 0 min 0,025 mm 0,0 UV-I 0 W/m² 0,4 °C 9,8 °C 0,0 km/h (0 Bft)
13.04.2018 01:01 9,8 °C 53 % 999,0 hPa 0,0 mm 0,0 km/h (0 Bft) SW 232 ° 0 min 0,000 mm 0,0 UV-I 0 W/m² 0,7 °C 9,8 °C 0,0 km/h (0 Bft)
13.04.2018 01:02 9,8 °C 52 % 999,0 hPa 0,0 mm 0,0 km/h (0 Bft) SW 232 ° 0 min 0,000 mm 0,0 UV-I 0 W/m² 0,4 °C 9,8 °C 0,0 km/h (0 Bft)
13.04.2018 01:03 9,8 °C 52 % 999,0 hPa 0,0 mm 0,6 km/h (0 Bft) W 261 ° 0 min 0,000 mm 0,0 UV-I 0 W/m² 0,4 °C 9,8 °C 1,6 km/h (1 Bft)
13.04.2018 01:04 9,8 °C 51 % 999,0 hPa 0,0 mm 0,0 km/h (0 Bft) W 261 ° 0 min 0,000 mm 0,0 UV-I 0 W/m² 0,2 °C 9,8 °C 0,0 km/h (0 Bft)
13.04.2018 01:05 9,8 °C 51 % 999,0 hPa 0,0 mm 0,0 km/h (0 Bft) W 261 ° 0 min 0,000 mm 0,0 UV-I 0 W/m² 0,2 °C 9,8 °C 0,0 km/h (0 Bft)
13.04.2018 01:06 9,8 °C 51 % 999,0 hPa 0,0 mm 0,0 km/h (0 Bft) W 261 ° 0 min 0,000 mm 0,0 UV-I 0 W/m² 0,2 °C 9,8 °C 0,0 km/h (0 Bft)
13.04.2018 01:07 9,8 °C 53 % 998,9 hPa 0,0 mm 0,0 km/h (0 Bft) W 260 ° 0 min 0,000 mm 0,0 UV-I 0 W/m² 0,7 °C 9,8 °C 0,0 km/h (0 Bft)
13.04.2018 01:08 9,8 °C 52 % 998,8 hPa 0,0 mm 0,0 km/h (0 Bft) W 260 ° 0 min 0,000 mm 0,0 UV-I 0 W/m² 0,4 °C 9,8 °C 0,0 km/h (0 Bft)
13.04.2018 01:09 9,7 °C 53 % 998,9 hPa 0,0 mm 0,0 km/h (0 Bft) W 260 ° 0 min 0,000 mm 0,0 UV-I 0 W/m² 0,6 °C 9,7 °C 0,0 km/h (0 Bft)
13.04.2018 01:10 9,7 °C 53 % 998,8 hPa 0,0 mm 0,0 km/h (0 Bft) W 260 ° 0 min 0,000 mm 0,0 UV-I 0 W/m² 0,6 °C 9,7 °C 0,0 km/h (0 Bft)
13.04.2018 01:11 9,6 °C 53 % 998,8 hPa 0,0 mm 1,9 km/h (1 Bft) W-NW 282 ° 0 min 0,000 mm 0,0 UV-I 0 W/m² 0,5 °C 9,6 °C 4,8 km/h (1 Bft)
13.04.2018 01:12 9,6 °C 53 % 998,8 hPa 0,0 mm 1,1 km/h (1 Bft) W-NW 282 ° 0 min 0,000 mm 0,0 UV-I 0 W/m² 0,5 °C 9,6 °C 4,8 km/h (1 Bft)
13.04.2018 01:13 9,6 °C 52 % 998,8 hPa 0,0 mm 3,8 km/h (1 Bft) W 279 ° 0 min 0,000 mm 0,0 UV-I 0 W/m² 0,2 °C 9,6 °C 4,8 km/h (1 Bft)
13.04.2018 01:14 9,6 °C 51 % 998,9 hPa 0,0 mm 4,5 km/h (1 Bft) W 271 ° 0 min 0,000 mm 0,0 UV-I 0 W/m² -0,0 °C 9,6 °C 6,4 km/h (2 Bft)
13.04.2018 01:15 9,7 °C 51 % 998,9 hPa 0,0 mm 2,6 km/h (1 Bft) W 271 ° 0 min 0,000 mm 0,0 UV-I 0 W/m² 0,1 °C 9,7 °C 3,2 km/h (1 Bft)
13.04.2018 01:16 9,7 °C 53 % 998,9 hPa 0,0 mm 1,9 km/h (1 Bft) W 271 ° 0 min 0,000 mm 0,0 UV-I 0 W/m² 0,6 °C 9,7 °C 3,2 km/h (1 Bft)
13.04.2018 01:17 9,7 °C 52 % 998,9 hPa 0,0 mm 1,8 km/h (1 Bft) W 271 ° 0 min 0,000 mm 0,0 UV-I 0 W/m² 0,3 °C 9,7 °C 4,8 km/h (1 Bft)
13.04.2018 01:18 9,7 °C 52 % 999,0 hPa 0,0 mm 0,6 km/h (0 Bft) W 271 ° 0 min 0,000 mm 0,0 UV-I 0 W/m² 0,3 °C 9,7 °C 3,2 km/h (1 Bft)
13.04.2018 01:19 9,8 °C 51 % 999,0 hPa 0,0 mm 2,9 km/h (1 Bft) SW 229 ° 0 min 0,000 mm 0,0 UV-I 0 W/m² 0,2 °C 9,8 °C 4,8 km/h (1 Bft)
13.04.2018 01:20 9,8 °C 51 % 998,9 hPa 0,0 mm 0,1 km/h (0 Bft) W 261 ° 0 min 0,000 mm 0,0 UV-I 0 W/m² 0,2 °C 9,8 °C 1,6 km/h (1 Bft)
13.04.2018 01:21 9,8 °C 51 % 998,9 hPa 0,0 mm 0,1 km/h (0 Bft) W 261 ° 0 min 0,000 mm 0,0 UV-I 0 W/m² 0,2 °C 9,8 °C 1,6 km/h (1 Bft)
13.04.2018 01:22 9,9 °C 51 % 999,0 hPa 0,0 mm 0,0 km/h (0 Bft) W 261 ° 0 min 0,000 mm 0,0 UV-I 0 W/m² 0,2 °C 9,9 °C 0,0 km/h (0 Bft)
13.04.2018 01:23 9,8 °C 52 % 999,0 hPa 0,0 mm 0,0 km/h (0 Bft) W 261 ° 0 min 0,000 mm 0,0 UV-I 0 W/m² 0,4 °C 9,8 °C 0,0 km/h (0 Bft)
13.04.2018 01:24 9,9 °C 50 % 999,0 hPa 0,0 mm 3,1 km/h (1 Bft) N 9 ° 0 min 0,000 mm 0,0 UV-I 0 W/m² -0,0 °C 9,9 °C 6,4 km/h (2 Bft)
13.04.2018 01:25 9,8 °C 52 % 999,0 hPa 0,0 mm 0,8 km/h (0 Bft) N 9 ° 0 min 0,000 mm 0,0 UV-I 0 W/m² 0,4 °C 9,8 °C 1,6 km/h (1 Bft)
13.04.2018 01:26 9,8 °C 51 % 998,9 hPa 0,0 mm 0,2 km/h (0 Bft) N 9 ° 0 min 0,000 mm 0,0 UV-I 0 W/m² 0,2 °C 9,8 °C 1,6 km/h (1 Bft)
13.04.2018 01:27 9,7 °C 52 % 998,9 hPa 0,0 mm 0,0 km/h (0 Bft) N 9 ° 0 min 0,000 mm 0,0 UV-I 0 W/m² 0,3 °C 9,7 °C 0,0 km/h (0 Bft)
13.04.2018 01:28 9,7 °C 52 % 998,9 hPa 0,0 mm 0,1 km/h (0 Bft) N 9 ° 0 min 0,000 mm 0,0 UV-I 0 W/m² 0,3 °C 9,7 °C 1,6 km/h (1 Bft)
13.04.2018 01:29 9,8 °C 51 % 998,9 hPa 0,0 mm 0,8 km/h (0 Bft) N 9 ° 0 min 0,000 mm 0,0 UV-I 0 W/m² 0,2 °C 9,8 °C 1,6 km/h (1 Bft)
13.04.2018 01:30 9,8 °C 51 % 998,9 hPa 0,0 mm 0,1 km/h (0 Bft) N 9 ° 0 min 0,000 mm 0,0 UV-I 0 W/m² 0,2 °C 9,8 °C 1,6 km/h (1 Bft)
13.04.2018 01:31 9,8 °C 51 % 998,9 hPa 0,0 mm 1,1 km/h (1 Bft) N 360 ° 0 min 0,000 mm 0,0 UV-I 0 W/m² 0,2 °C 9,8 °C 3,2 km/h (1 Bft)
13.04.2018 01:32 9,8 °C 51 % 998,9 hPa 0,0 mm 1,3 km/h (1 Bft) N 360 ° 0 min 0,000 mm 0,0 UV-I 0 W/m² 0,2 °C 9,8 °C 3,2 km/h (1 Bft)
13.04.2018 01:33 9,8 °C 51 % 998,9 hPa 0,0 mm 0,6 km/h (0 Bft) N 360 ° 0 min 0,000 mm 0,0 UV-I 0 W/m² 0,2 °C 9,8 °C 1,6 km/h (1 Bft)
13.04.2018 01:34 9,7 °C 51 % 999,0 hPa 0,0 mm 1,1 km/h (1 Bft) N-NW 344 ° 0 min 0,000 mm 0,0 UV-I 0 W/m² 0,1 °C 9,7 °C 3,2 km/h (1 Bft)
13.04.2018 01:35 9,6 °C 52 % 998,9 hPa 0,0 mm 0,8 km/h (0 Bft) N-NW 344 ° 0 min 0,000 mm 0,0 UV-I 0 W/m² 0,2 °C 9,6 °C 1,6 km/h (1 Bft)
13.04.2018 01:36 9,5 °C 52 % 999,0 hPa 0,0 mm 0,0 km/h (0 Bft) N-NW 344 ° 0 min 0,000 mm 0,0 UV-I 0 W/m² 0,1 °C 9,5 °C 0,0 km/h (0 Bft)
13.04.2018 01:37 9,6 °C 52 % 998,9 hPa 0,0 mm 0,0 km/h (0 Bft) N-NW 344 ° 0 min 0,000 mm 0,0 UV-I 0 W/m² 0,2 °C 9,6 °C 0,0 km/h (0 Bft)
13.04.2018 01:38 9,7 °C 51 % 998,9 hPa 0,0 mm 0,0 km/h (0 Bft) N-NW 344 ° 0 min 0,000 mm 0,0 UV-I 0 W/m² 0,1 °C 9,7 °C 0,0 km/h (0 Bft)
13.04.2018 01:39 9,7 °C 51 % 999,0 hPa 0,0 mm 0,0 km/h (0 Bft) N-NW 344 ° 0 min 0,000 mm 0,0 UV-I 0 W/m² 0,1 °C 9,7 °C 0,0 km/h (0 Bft)
13.04.2018 01:40 9,7 °C 51 % 999,0 hPa 0,0 mm 0,1 km/h (0 Bft) N-NW 344 ° 0 min 0,000 mm 0,0 UV-I 0 W/m² 0,1 °C 9,7 °C 1,6 km/h (1 Bft)
13.04.2018 01:41 9,7 °C 51 % 998,9 hPa 0,0 mm 1,6 km/h (1 Bft) N-NW 344 ° 0 min 0,000 mm 0,0 UV-I 0 W/m² 0,1 °C 9,7 °C 4,8 km/h (1 Bft)
13.04.2018 01:42 9,7 °C 51 % 998,9 hPa 0,0 mm 0,0 km/h (0 Bft) N-NW 344 ° 0 min 0,000 mm 0,0 UV-I 0 W/m² 0,1 °C 9,7 °C 0,0 km/h (0 Bft)
13.04.2018 01:43 9,7 °C 52 % 999,0 hPa 0,0 mm 0,1 km/h (0 Bft) N-NW 344 ° 0 min 0,000 mm 0,0 UV-I 0 W/m² 0,3 °C 9,7 °C 1,6 km/h (1 Bft)
13.04.2018 01:44 9,6 °C 52 % 999,0 hPa 0,0 mm 0,1 km/h (0 Bft) N-NW 344 ° 0 min 0,000 mm 0,0 UV-I 0 W/m² 0,2 °C 9,6 °C 1,6 km/h (1 Bft)
13.04.2018 01:45 9,6 °C 53 % 999,0 hPa 0,0 mm 0,0 km/h (0 Bft) N-NW 344 ° 0 min 0,000 mm 0,0 UV-I 0 W/m² 0,5 °C 9,6 °C 0,0 km/h (0 Bft)
13.04.2018 01:46 9,5 °C 53 % 999,0 hPa 0,0 mm 1,0 km/h (0 Bft) N-NW 344 ° 0 min 0,000 mm 0,0 UV-I 0 W/m² 0,4 °C 9,5 °C 3,2 km/h (1 Bft)
13.04.2018 01:47 9,4 °C 53 % 999,0 hPa 0,0 mm 0,0 km/h (0 Bft) N-NW 344 ° 0 min 0,000 mm 0,0 UV-I 0 W/m² 0,3 °C 9,4 °C 0,0 km/h (0 Bft)
13.04.2018 01:48 9,3 °C 53 % 999,0 hPa 0,0 mm 0,4 km/h (0 Bft) N-NW 344 ° 0 min 0,000 mm 0,0 UV-I 0 W/m² 0,2 °C 9,3 °C 1,6 km/h (1 Bft)
13.04.2018 01:49 9,2 °C 54 % 999,1 hPa 0,0 mm 0,0 km/h (0 Bft) N-NW 344 ° 0 min 0,000 mm 0,0 UV-I 0 W/m² 0,4 °C 9,2 °C 0,0 km/h (0 Bft)
13.04.2018 01:50 9,1 °C 54 % 999,1 hPa 0,0 mm 0,0 km/h (0 Bft) N-NW 344 ° 0 min 0,000 mm 0,0 UV-I 0 W/m² 0,3 °C 9,1 °C 0,0 km/h (0 Bft)
13.04.2018 01:51 9,1 °C 53 % 999,1 hPa 0,0 mm 0,0 km/h (0 Bft) N-NW 344 ° 0 min 0,000 mm 0,0 UV-I 0 W/m² 0,0 °C 9,1 °C 0,0 km/h (0 Bft)
13.04.2018 01:52 9,2 °C 53 % 999,0 hPa 0,0 mm 0,0 km/h (0 Bft) N-NW 344 ° 0 min 0,000 mm 0,0 UV-I 0 W/m² 0,1 °C 9,2 °C 0,0 km/h (0 Bft)
13.04.2018 01:53 9,2 °C 52 % 999,0 hPa 0,0 mm 0,0 km/h (0 Bft) N-NW 344 ° 0 min 0,000 mm 0,0 UV-I 0 W/m² -0,1 °C 9,2 °C 0,0 km/h (0 Bft)
13.04.2018 01:54 9,2 °C 51 % 999,0 hPa 0,0 mm 0,0 km/h (0 Bft) N-NW 344 ° 0 min 0,000 mm 0,0 UV-I 0 W/m² -0,4 °C 9,2 °C 0,0 km/h (0 Bft)
13.04.2018 01:55 9,3 °C 51 % 999,0 hPa 0,0 mm 0,0 km/h (0 Bft) N-NW 344 ° 0 min 0,000 mm 0,0 UV-I 0 W/m² -0,3 °C 9,3 °C 0,0 km/h (0 Bft)
13.04.2018 01:56 9,3 °C 51 % 999,0 hPa 0,0 mm 0,0 km/h (0 Bft) N-NW 344 ° 0 min 0,000 mm 0,0 UV-I 0 W/m² -0,3 °C 9,3 °C 0,0 km/h (0 Bft)
13.04.2018 01:57 9,3 °C 51 % 999,0 hPa 0,0 mm 0,0 km/h (0 Bft) N-NW 344 ° 0 min 0,000 mm 0,0 UV-I 0 W/m² -0,3 °C 9,3 °C 0,0 km/h (0 Bft)
13.04.2018 01:58 9,3 °C 53 % 999,0 hPa 0,0 mm 0,3 km/h (0 Bft) N-NW 344 ° 0 min 0,000 mm 0,0 UV-I 0 W/m² 0,2 °C 9,3 °C 1,6 km/h (1 Bft)
13.04.2018 01:59 9,3 °C 50 % 999,0 hPa 0,0 mm 0,0 km/h (0 Bft) N-NW 344 ° 0 min 0,000 mm 0,0 UV-I 0 W/m² -0,6 °C 9,3 °C 0,0 km/h (0 Bft)
13.04.2018 02:00 9,4 °C 51 % 999,0 hPa 0,0 mm 0,0 km/h (0 Bft) N-NW 344 ° 0 min 0,026 mm 0,0 UV-I 0 W/m² -0,2 °C 9,4 °C 0,0 km/h (0 Bft)
13.04.2018 02:01 9,3 °C 52 % 999,0 hPa 0,0 mm 0,0 km/h (0 Bft) N-NW 344 ° 0 min 0,000 mm 0,0 UV-I 0 W/m² -0,0 °C 9,3 °C 0,0 km/h (0 Bft)
13.04.2018 02:02 9,2 °C 52 % 998,9 hPa 0,0 mm 0,0 km/h (0 Bft) N-NW 344 ° 0 min 0,000 mm 0,0 UV-I 0 W/m² -0,1 °C 9,2 °C 0,0 km/h (0 Bft)
13.04.2018 02:03 9,2 °C 52 % 998,9 hPa 0,0 mm 0,0 km/h (0 Bft) N-NW 344 ° 0 min 0,000 mm 0,0 UV-I 0 W/m² -0,1 °C 9,2 °C 0,0 km/h (0 Bft)
13.04.2018 02:04 9,2 °C 52 % 998,9 hPa 0,0 mm 0,0 km/h (0 Bft) N-NW 344 ° 0 min 0,000 mm 0,0 UV-I 0 W/m² -0,1 °C 9,2 °C 0,0 km/h (0 Bft)
13.04.2018 02:05 9,2 °C 52 % 998,9 hPa 0,0 mm 0,0 km/h (0 Bft) N-NW 344 ° 0 min 0,000 mm 0,0 UV-I 0 W/m² -0,1 °C 9,2 °C 0,0 km/h (0 Bft)
13.04.2018 02:06 9,2 °C 52 % 998,9 hPa 0,0 mm 0,0 km/h (0 Bft) N-NW 344 ° 0 min 0,000 mm 0,0 UV-I 0 W/m² -0,1 °C 9,2 °C 0,0 km/h (0 Bft)
13.04.2018 02:07 9,2 °C 53 % 998,9 hPa 0,0 mm 0,0 km/h (0 Bft) N-NW 344 ° 0 min 0,000 mm 0,0 UV-I 0 W/m² 0,1 °C 9,2 °C 0,0 km/h (0 Bft)
13.04.2018 02:08 9,1 °C 52 % 998,9 hPa 0,0 mm 0,0 km/h (0 Bft) N-NW 344 ° 0 min 0,000 mm 0,0 UV-I 0 W/m² -0,2 °C 9,1 °C 0,0 km/h (0 Bft)
13.04.2018 02:09 9,2 °C 51 % 999,0 hPa 0,0 mm 0,5 km/h (0 Bft) N-NW 344 ° 0 min 0,000 mm 0,0 UV-I 0 W/m² -0,4 °C 9,2 °C 4,8 km/h (1 Bft)
13.04.2018 02:10 9,1 °C 52 % 998,9 hPa 0,0 mm 2,0 km/h (1 Bft) N-NW 344 ° 0 min 0,000 mm 0,0 UV-I 0 W/m² -0,2 °C 9,1 °C 4,8 km/h (1 Bft)
13.04.2018 02:11 9,2 °C 52 % 998,9 hPa 0,0 mm 0,1 km/h (0 Bft) N-NW 344 ° 0 min 0,000 mm 0,0 UV-I 0 W/m² -0,1 °C 9,2 °C 1,6 km/h (1 Bft)
13.04.2018 02:12 9,2 °C 51 % 998,9 hPa 0,0 mm 0,0 km/h (0 Bft) N-NW 344 ° 0 min 0,000 mm 0,0 UV-I 0 W/m² -0,4 °C 9,2 °C 0,0 km/h (0 Bft)
13.04.2018 02:13 9,3 °C 52 % 998,9 hPa 0,0 mm 0,0 km/h (0 Bft) N-NW 344 ° 0 min 0,000 mm 0,0 UV-I 0 W/m² -0,0 °C 9,3 °C 0,0 km/h (0 Bft)
13.04.2018 02:14 9,2 °C 52 % 998,9 hPa 0,0 mm 0,2 km/h (0 Bft) N-NW 344 ° 0 min 0,000 mm 0,0 UV-I 0 W/m² -0,1 °C 9,2 °C 1,6 km/h (1 Bft)
13.04.2018 02:15 9,3 °C 52 % 998,9 hPa 0,0 mm 0,0 km/h (0 Bft) N-NW 344 ° 0 min 0,000 mm 0,0 UV-I 0 W/m² -0,0 °C 9,3 °C 0,0 km/h (0 Bft)
13.04.2018 02:16 9,3 °C 51 % 998,8 hPa 0,0 mm 0,0 km/h (0 Bft) N-NW 344 ° 0 min 0,000 mm 0,0 UV-I 0 W/m² -0,3 °C 9,3 °C 0,0 km/h (0 Bft)
13.04.2018 02:17 9,2 °C 53 % 998,9 hPa 0,0 mm 0,0 km/h (0 Bft) N-NW 344 ° 0 min 0,000 mm 0,0 UV-I 0 W/m² 0,1 °C 9,2 °C 0,0 km/h (0 Bft)
13.04.2018 02:18 9,2 °C 52 % 998,9 hPa 0,0 mm 0,3 km/h (0 Bft) N-NW 344 ° 0 min 0,000 mm 0,0 UV-I 0 W/m² -0,1 °C 9,2 °C 1,6 km/h (1 Bft)
13.04.2018 02:19 9,2 °C 52 % 998,9 hPa 0,0 mm 1,3 km/h (1 Bft) N-NW 344 ° 0 min 0,000 mm 0,0 UV-I 0 W/m² -0,1 °C 9,2 °C 3,2 km/h (1 Bft)
13.04.2018 02:20 9,2 °C 53 % 998,9 hPa 0,0 mm 0,5 km/h (0 Bft) N-NW 344 ° 0 min 0,000 mm 0,0 UV-I 0 W/m² 0,1 °C 9,2 °C 1,6 km/h (1 Bft)
13.04.2018 02:21 9,1 °C 54 % 998,9 hPa 0,0 mm 0,0 km/h (0 Bft) N-NW 344 ° 0 min 0,000 mm 0,0 UV-I 0 W/m² 0,3 °C 9,1 °C 0,0 km/h (0 Bft)
13.04.2018 02:22 9,1 °C 53 % 998,9 hPa 0,0 mm 0,3 km/h (0 Bft) N-NW 344 ° 0 min 0,000 mm 0,0 UV-I 0 W/m² 0,0 °C 9,1 °C 3,2 km/h (1 Bft)
13.04.2018 02:23 9,1 °C 53 % 998,9 hPa 0,0 mm 0,0 km/h (0 Bft) N-NW 344 ° 0 min 0,000 mm 0,0 UV-I 0 W/m² 0,0 °C 9,1 °C 0,0 km/h (0 Bft)
13.04.2018 02:24 9,1 °C 52 % 998,9 hPa 0,0 mm 0,0 km/h (0 Bft) N-NW 344 ° 0 min 0,000 mm 0,0 UV-I 0 W/m² -0,2 °C 9,1 °C 0,0 km/h (0 Bft)
13.04.2018 02:25 9,2 °C 52 % 999,0 hPa 0,0 mm 0,2 km/h (0 Bft) N-NW 344 ° 0 min 0,000 mm 0,0 UV-I 0 W/m² -0,1 °C 9,2 °C 1,6 km/h (1 Bft)
13.04.2018 02:26 9,3 °C 52 % 998,9 hPa 0,0 mm 0,1 km/h (0 Bft) N-NW 344 ° 0 min 0,000 mm 0,0 UV-I 0 W/m² -0,0 °C 9,3 °C 1,6 km/h (1 Bft)
13.04.2018 02:27 9,2 °C 53 % 999,0 hPa 0,0 mm 0,0 km/h (0 Bft) N-NW 344 ° 0 min 0,000 mm 0,0 UV-I 0 W/m² 0,1 °C 9,2 °C 0,0 km/h (0 Bft)
13.04.2018 02:28 9,1 °C 54 % 999,0 hPa 0,0 mm 0,0 km/h (0 Bft) N-NW 344 ° 0 min 0,000 mm 0,0 UV-I 0 W/m² 0,3 °C 9,1 °C 0,0 km/h (0 Bft)
13.04.2018 02:29 9,1 °C 53 % 999,1 hPa 0,0 mm 0,9 km/h (0 Bft) N-NW 344 ° 0 min 0,000 mm 0,0 UV-I 0 W/m² 0,0 °C 9,1 °C 3,2 km/h (1 Bft)
13.04.2018 02:30 9,1 °C 52 % 999,1 hPa 0,0 mm 0,0 km/h (0 Bft) N-NW 344 ° 0 min 0,000 mm 0,0 UV-I 0 W/m² -0,2 °C 9,1 °C 0,0 km/h (0 Bft)
13.04.2018 02:31 9,2 °C 51 % 999,1 hPa 0,0 mm 2,0 km/h (1 Bft) N-NW 340 ° 0 min 0,000 mm 0,0 UV-I 0 W/m² -0,4 °C 9,2 °C 3,2 km/h (1 Bft)
13.04.2018 02:32 9,4 °C 50 % 999,1 hPa 0,0 mm 0,0 km/h (0 Bft) N-NW 340 ° 0 min 0,000 mm 0,0 UV-I 0 W/m² -0,5 °C 9,4 °C 0,0 km/h (0 Bft)
13.04.2018 02:33 9,4 °C 51 % 999,1 hPa 0,0 mm 0,4 km/h (0 Bft) N-NW 340 ° 0 min 0,000 mm 0,0 UV-I 0 W/m² -0,2 °C 9,4 °C 1,6 km/h (1 Bft)
13.04.2018 02:34 9,4 °C 51 % 999,1 hPa 0,0 mm 0,5 km/h (0 Bft) N-NW 340 ° 0 min 0,000 mm 0,0 UV-I 0 W/m² -0,2 °C 9,4 °C 1,6 km/h (1 Bft)
13.04.2018 02:35 9,4 °C 51 % 999,2 hPa 0,0 mm 3,3 km/h (1 Bft) W 264 ° 0 min 0,000 mm 0,0 UV-I 0 W/m² -0,2 °C 9,4 °C 4,8 km/h (1 Bft)
13.04.2018 02:36 9,4 °C 51 % 999,1 hPa 0,0 mm 3,9 km/h (1 Bft) W 264 ° 0 min 0,000 mm 0,0 UV-I 0 W/m² -0,2 °C 9,4 °C 6,4 km/h (2 Bft)
13.04.2018 02:37 9,3 °C 52 % 999,1 hPa 0,0 mm 2,4 km/h (1 Bft) W 264 ° 0 min 0,000 mm 0,0 UV-I 0 W/m² -0,0 °C 9,3 °C 4,8 km/h (1 Bft)
13.04.2018 02:38 9,3 °C 52 % 999,1 hPa 0,0 mm 2,1 km/h (1 Bft) W 264 ° 0 min 0,000 mm 0,0 UV-I 0 W/m² -0,0 °C 9,3 °C 3,2 km/h (1 Bft)
13.04.2018 02:39 9,2 °C 53 % 999,1 hPa 0,0 mm 0,3 km/h (0 Bft) W 264 ° 0 min 0,000 mm 0,0 UV-I 0 W/m² 0,1 °C 9,2 °C 1,6 km/h (1 Bft)
13.04.2018 02:40 9,2 °C 54 % 999,1 hPa 0,0 mm 0,0 km/h (0 Bft) W 264 ° 0 min 0,000 mm 0,0 UV-I 0 W/m² 0,4 °C 9,2 °C 0,0 km/h (0 Bft)
13.04.2018 02:41 9,0 °C 54 % 999,1 hPa 0,0 mm 0,0 km/h (0 Bft) W 264 ° 0 min 0,000 mm 0,0 UV-I 0 W/m² 0,2 °C 9,0 °C 0,0 km/h (0 Bft)
13.04.2018 02:42 9,1 °C 54 % 999,1 hPa 0,0 mm 0,0 km/h (0 Bft) W 264 ° 0 min 0,000 mm 0,0 UV-I 0 W/m² 0,3 °C 9,1 °C 0,0 km/h (0 Bft)
13.04.2018 02:43 9,1 °C 54 % 999,1 hPa 0,0 mm 0,0 km/h (0 Bft) W 264 ° 0 min 0,000 mm 0,0 UV-I 0 W/m² 0,3 °C 9,1 °C 0,0 km/h (0 Bft)
13.04.2018 02:44 9,0 °C 55 % 999,1 hPa 0,0 mm 0,0 km/h (0 Bft) W 264 ° 0 min 0,000 mm 0,0 UV-I 0 W/m² 0,5 °C 9,0 °C 0,0 km/h (0 Bft)
13.04.2018 02:45 8,9 °C 54 % 999,1 hPa 0,0 mm 0,4 km/h (0 Bft) W 264 ° 0 min 0,000 mm 0,0 UV-I 0 W/m² 0,1 °C 8,9 °C 1,6 km/h (1 Bft)
13.04.2018 02:46 8,9 °C 55 % 999,1 hPa 0,0 mm 0,1 km/h (0 Bft) W 264 ° 0 min 0,000 mm 0,0 UV-I 0 W/m² 0,4 °C 8,9 °C 1,6 km/h (1 Bft)
13.04.2018 02:47 8,8 °C 55 % 999,1 hPa 0,0 mm 0,0 km/h (0 Bft) W 264 ° 0 min 0,000 mm 0,0 UV-I 0 W/m² 0,3 °C 8,8 °C 0,0 km/h (0 Bft)
13.04.2018 02:48 8,6 °C 56 % 999,1 hPa 0,0 mm 0,0 km/h (0 Bft) W 264 ° 0 min 0,000 mm 0,0 UV-I 0 W/m² 0,3 °C 8,6 °C 0,0 km/h (0 Bft)
13.04.2018 02:49 8,4 °C 56 % 999,2 hPa 0,0 mm 1,3 km/h (1 Bft) W 264 ° 0 min 0,000 mm 0,0 UV-I 0 W/m² 0,1 °C 8,4 °C 3,2 km/h (1 Bft)
13.04.2018 02:50 8,4 °C 55 % 999,2 hPa 0,0 mm 0,9 km/h (0 Bft) W 264 ° 0 min 0,000 mm 0,0 UV-I 0 W/m² -0,1 °C 8,4 °C 1,6 km/h (1 Bft)
13.04.2018 02:51 8,4 °C 55 % 999,2 hPa 0,0 mm 2,6 km/h (1 Bft) W-SW 257 ° 0 min 0,000 mm 0,0 UV-I 0 W/m² -0,1 °C 8,4 °C 4,8 km/h (1 Bft)
13.04.2018 02:52 8,4 °C 54 % 999,3 hPa 0,0 mm 2,6 km/h (1 Bft) W-SW 257 ° 0 min 0,000 mm 0,0 UV-I 0 W/m² -0,4 °C 8,4 °C 3,2 km/h (1 Bft)
13.04.2018 02:53 8,5 °C 54 % 999,3 hPa 0,0 mm 1,8 km/h (1 Bft) W-SW 257 ° 0 min 0,000 mm 0,0 UV-I 0 W/m² -0,3 °C 8,5 °C 3,2 km/h (1 Bft)
13.04.2018 02:54 8,6 °C 53 % 999,3 hPa 0,0 mm 2,7 km/h (1 Bft) W-SW 257 ° 0 min 0,000 mm 0,0 UV-I 0 W/m² -0,4 °C 8,6 °C 3,2 km/h (1 Bft)
13.04.2018 02:55 8,7 °C 53 % 999,3 hPa 0,0 mm 2,2 km/h (1 Bft) W-SW 257 ° 0 min 0,000 mm 0,0 UV-I 0 W/m² -0,3 °C 8,7 °C 3,2 km/h (1 Bft)
13.04.2018 02:56 8,9 °C 53 % 999,3 hPa 0,0 mm 0,3 km/h (0 Bft) W-SW 257 ° 0 min 0,000 mm 0,0 UV-I 0 W/m² -0,1 °C 8,9 °C 1,6 km/h (1 Bft)
13.04.2018 02:57 8,8 °C 54 % 999,3 hPa 0,0 mm 0,0 km/h (0 Bft) W-SW 257 ° 0 min 0,000 mm 0,0 UV-I 0 W/m² 0,0 °C 8,8 °C 0,0 km/h (0 Bft)
13.04.2018 02:58 8,7 °C 55 % 999,2 hPa 0,0 mm 0,0 km/h (0 Bft) W-SW 257 ° 0 min 0,000 mm 0,0 UV-I 0 W/m² 0,2 °C 8,7 °C 0,0 km/h (0 Bft)
13.04.2018 02:59 8,7 °C 55 % 999,2 hPa 0,0 mm 0,0 km/h (0 Bft) W-SW 257 ° 0 min 0,000 mm 0,0 UV-I 0 W/m² 0,2 °C 8,7 °C 0,0 km/h (0 Bft)
13.04.2018 03:00 8,6 °C 55 % 999,3 hPa 0,0 mm 0,0 km/h (0 Bft) W-SW 257 ° 0 min 0,025 mm 0,0 UV-I 0 W/m² 0,1 °C 8,6 °C 0,0 km/h (0 Bft)
13.04.2018 03:01 8,6 °C 55 % 999,3 hPa 0,0 mm 0,3 km/h (0 Bft) W-SW 257 ° 0 min 0,000 mm 0,0 UV-I 0 W/m² 0,1 °C 8,6 °C 1,6 km/h (1 Bft)
13.04.2018 03:02 8,7 °C 55 % 999,3 hPa 0,0 mm 1,5 km/h (1 Bft) W-SW 257 ° 0 min 0,000 mm 0,0 UV-I 0 W/m² 0,2 °C 8,7 °C 3,2 km/h (1 Bft)
13.04.2018 03:03 8,6 °C 55 % 999,3 hPa 0,0 mm 0,0 km/h (0 Bft) W-SW 257 ° 0 min 0,000 mm 0,0 UV-I 0 W/m² 0,1 °C 8,6 °C 0,0 km/h (0 Bft)
13.04.2018 03:04 8,6 °C 56 % 999,3 hPa 0,0 mm 0,0 km/h (0 Bft) W-SW 257 ° 0 min 0,000 mm 0,0 UV-I 0 W/m² 0,3 °C 8,6 °C 0,0 km/h (0 Bft)
13.04.2018 03:05 8,4 °C 57 % 999,4 hPa 0,0 mm 0,0 km/h (0 Bft) W-SW 257 ° 0 min 0,000 mm 0,0 UV-I 0 W/m² 0,4 °C 8,4 °C 0,0 km/h (0 Bft)
13.04.2018 03:06 8,3 °C 58 % 999,3 hPa 0,0 mm 0,2 km/h (0 Bft) W-SW 257 ° 0 min 0,000 mm 0,0 UV-I 0 W/m² 0,5 °C 8,3 °C 1,6 km/h (1 Bft)
13.04.2018 03:07 8,2 °C 58 % 999,4 hPa 0,0 mm 0,1 km/h (0 Bft) W-SW 257 ° 0 min 0,000 mm 0,0 UV-I 0 W/m² 0,4 °C 8,2 °C 1,6 km/h (1 Bft)
13.04.2018 03:08 8,2 °C 57 % 999,4 hPa 0,0 mm 0,0 km/h (0 Bft) W-SW 257 ° 0 min 0,000 mm 0,0 UV-I 0 W/m² 0,2 °C 8,2 °C 0,0 km/h (0 Bft)
13.04.2018 03:09 8,2 °C 57 % 999,4 hPa 0,0 mm 0,0 km/h (0 Bft) W-SW 257 ° 0 min 0,000 mm 0,0 UV-I 0 W/m² 0,2 °C 8,2 °C 0,0 km/h (0 Bft)
13.04.2018 03:10 8,1 °C 56 % 999,4 hPa 0,0 mm 0,0 km/h (0 Bft) W-SW 257 ° 0 min 0,000 mm 0,0 UV-I 0 W/m² -0,1 °C 8,1 °C 0,0 km/h (0 Bft)
13.04.2018 03:11 8,1 °C 56 % 999,4 hPa 0,0 mm 0,1 km/h (0 Bft) W-SW 257 ° 0 min 0,000 mm 0,0 UV-I 0 W/m² -0,1 °C 8,1 °C 1,6 km/h (1 Bft)
13.04.2018 03:12 8,2 °C 55 % 999,4 hPa 0,0 mm 0,3 km/h (0 Bft) W-SW 257 ° 0 min 0,000 mm 0,0 UV-I 0 W/m² -0,3 °C 8,2 °C 1,6 km/h (1 Bft)
13.04.2018 03:13 8,2 °C 55 % 999,4 hPa 0,0 mm 0,5 km/h (0 Bft) W-SW 257 ° 0 min 0,000 mm 0,0 UV-I 0 W/m² -0,3 °C 8,2 °C 1,6 km/h (1 Bft)
13.04.2018 03:14 8,3 °C 55 % 999,4 hPa 0,0 mm 0,0 km/h (0 Bft) W-SW 257 ° 0 min 0,000 mm 0,0 UV-I 0 W/m² -0,2 °C 8,3 °C 0,0 km/h (0 Bft)
13.04.2018 03:15 8,3 °C 54 % 999,3 hPa 0,0 mm 0,0 km/h (0 Bft) W-SW 257 ° 0 min 0,000 mm 0,0 UV-I 0 W/m² -0,5 °C 8,3 °C 0,0 km/h (0 Bft)
13.04.2018 03:16 8,4 °C 53 % 999,3 hPa 0,0 mm 0,0 km/h (0 Bft) W-SW 257 ° 0 min 0,000 mm 0,0 UV-I 0 W/m² -0,6 °C 8,4 °C 0,0 km/h (0 Bft)
13.04.2018 03:17 8,6 °C 54 % 999,4 hPa 0,0 mm 0,0 km/h (0 Bft) W-SW 257 ° 0 min 0,000 mm 0,0 UV-I 0 W/m² -0,2 °C 8,6 °C 0,0 km/h (0 Bft)
13.04.2018 03:18 8,6 °C 54 % 999,4 hPa 0,0 mm 0,0 km/h (0 Bft) W-SW 257 ° 0 min 0,000 mm 0,0 UV-I 0 W/m² -0,2 °C 8,6 °C 0,0 km/h (0 Bft)
13.04.2018 03:19 8,6 °C 54 % 999,4 hPa 0,0 mm 0,0 km/h (0 Bft) W-SW 257 ° 0 min 0,000 mm 0,0 UV-I 0 W/m² -0,2 °C 8,6 °C 0,0 km/h (0 Bft)
13.04.2018 03:20 8,5 °C 55 % 999,4 hPa 0,0 mm 0,0 km/h (0 Bft) W-SW 257 ° 0 min 0,000 mm 0,0 UV-I 0 W/m² -0,0 °C 8,5 °C 0,0 km/h (0 Bft)
13.04.2018 03:21 8,4 °C 56 % 999,4 hPa 0,0 mm 0,0 km/h (0 Bft) W-SW 257 ° 0 min 0,000 mm 0,0 UV-I 0 W/m² 0,1 °C 8,4 °C 0,0 km/h (0 Bft)
13.04.2018 03:22 8,3 °C 55 % 999,4 hPa 0,0 mm 0,0 km/h (0 Bft) W-SW 257 ° 0 min 0,000 mm 0,0 UV-I 0 W/m² -0,2 °C 8,3 °C 0,0 km/h (0 Bft)
13.04.2018 03:23 8,3 °C 55 % 999,4 hPa 0,0 mm 0,2 km/h (0 Bft) W-SW 257 ° 0 min 0,000 mm 0,0 UV-I 0 W/m² -0,2 °C 8,3 °C 1,6 km/h (1 Bft)
13.04.2018 03:24 8,2 °C 55 % 999,4 hPa 0,0 mm 0,0 km/h (0 Bft) W-SW 257 ° 0 min 0,000 mm 0,0 UV-I 0 W/m² -0,3 °C 8,2 °C 0,0 km/h (0 Bft)
13.04.2018 03:25 8,3 °C 55 % 999,4 hPa 0,0 mm 0,0 km/h (0 Bft) W-SW 257 ° 0 min 0,000 mm 0,0 UV-I 0 W/m² -0,2 °C 8,3 °C 0,0 km/h (0 Bft)
13.04.2018 03:26 8,3 °C 54 % 999,4 hPa 0,0 mm 1,3 km/h (1 Bft) W-SW 257 ° 0 min 0,000 mm 0,0 UV-I 0 W/m² -0,5 °C 8,3 °C 3,2 km/h (1 Bft)
13.04.2018 03:27 8,3 °C 55 % 999,4 hPa 0,0 mm 0,1 km/h (0 Bft) W-SW 257 ° 0 min 0,000 mm 0,0 UV-I 0 W/m² -0,2 °C 8,3 °C 1,6 km/h (1 Bft)
13.04.2018 03:28 8,4 °C 54 % 999,4 hPa 0,0 mm 0,0 km/h (0 Bft) W-SW 257 ° 0 min 0,000 mm 0,0 UV-I 0 W/m² -0,4 °C 8,4 °C 0,0 km/h (0 Bft)
13.04.2018 03:29 8,3 °C 56 % 999,4 hPa 0,0 mm 0,0 km/h (0 Bft) W-SW 257 ° 0 min 0,000 mm 0,0 UV-I 0 W/m² 0,0 °C 8,3 °C 0,0 km/h (0 Bft)
13.04.2018 03:30 8,2 °C 57 % 999,5 hPa 0,0 mm 0,0 km/h (0 Bft) W-SW 257 ° 0 min 0,000 mm 0,0 UV-I 0 W/m² 0,2 °C 8,2 °C 0,0 km/h (0 Bft)
13.04.2018 03:31 8,0 °C 57 % 999,5 hPa 0,0 mm 1,3 km/h (1 Bft) W-SW 257 ° 0 min 0,000 mm 0,0 UV-I 0 W/m² 0,0 °C 8,0 °C 3,2 km/h (1 Bft)
13.04.2018 03:32 7,9 °C 56 % 999,5 hPa 0,0 mm 1,7 km/h (1 Bft) W-SW 257 ° 0 min 0,000 mm 0,0 UV-I 0 W/m² -0,3 °C 7,9 °C 3,2 km/h (1 Bft)
13.04.2018 03:33 7,9 °C 56 % 999,6 hPa 0,0 mm 3,0 km/h (1 Bft) W-SW 257 ° 0 min 0,000 mm 0,0 UV-I 0 W/m² -0,3 °C 7,9 °C 4,8 km/h (1 Bft)
13.04.2018 03:34 8,1 °C 55 % 999,5 hPa 0,0 mm 2,2 km/h (1 Bft) W-SW 257 ° 0 min 0,000 mm 0,0 UV-I 0 W/m² -0,4 °C 8,1 °C 3,2 km/h (1 Bft)
13.04.2018 03:35 8,1 °C 57 % 999,5 hPa 0,0 mm 0,2 km/h (0 Bft) W-SW 257 ° 0 min 0,000 mm 0,0 UV-I 0 W/m² 0,1 °C 8,1 °C 1,6 km/h (1 Bft)
13.04.2018 03:36 8,1 °C 56 % 999,5 hPa 0,0 mm 0,0 km/h (0 Bft) W-SW 257 ° 0 min 0,000 mm 0,0 UV-I 0 W/m² -0,1 °C 8,1 °C 0,0 km/h (0 Bft)
13.04.2018 03:37 8,2 °C 56 % 999,5 hPa 0,0 mm 0,0 km/h (0 Bft) W-SW 257 ° 0 min 0,000 mm 0,0 UV-I 0 W/m² -0,0 °C 8,2 °C 0,0 km/h (0 Bft)
13.04.2018 03:38 8,3 °C 56 % 999,5 hPa 0,0 mm 0,0 km/h (0 Bft) W-SW 257 ° 0 min 0,000 mm 0,0 UV-I 0 W/m² 0,0 °C 8,3 °C 0,0 km/h (0 Bft)
13.04.2018 03:39 8,1 °C 58 % 999,6 hPa 0,0 mm 0,0 km/h (0 Bft) W-SW 257 ° 0 min 0,000 mm 0,0 UV-I 0 W/m² 0,3 °C 8,1 °C 0,0 km/h (0 Bft)
13.04.2018 03:40 7,9 °C 57 % 999,6 hPa 0,0 mm 0,0 km/h (0 Bft) W-SW 257 ° 0 min 0,000 mm 0,0 UV-I 0 W/m² -0,1 °C 7,9 °C 0,0 km/h (0 Bft)
13.04.2018 03:41 7,9 °C 56 % 999,6 hPa 0,0 mm 0,0 km/h (0 Bft) W-SW 257 ° 0 min 0,000 mm 0,0 UV-I 0 W/m² -0,3 °C 7,9 °C 0,0 km/h (0 Bft)
13.04.2018 03:42 8,0 °C 56 % 999,6 hPa 0,0 mm 0,0 km/h (0 Bft) W-SW 257 ° 0 min 0,000 mm 0,0 UV-I 0 W/m² -0,2 °C 8,0 °C 0,0 km/h (0 Bft)
13.04.2018 03:43 8,1 °C 56 % 999,6 hPa 0,0 mm 0,7 km/h (0 Bft) W-SW 257 ° 0 min 0,000 mm 0,0 UV-I 0 W/m² -0,1 °C 8,1 °C 1,6 km/h (1 Bft)
13.04.2018 03:44 8,2 °C 55 % 999,6 hPa 0,0 mm 0,2 km/h (0 Bft) W-SW 257 ° 0 min 0,000 mm 0,0 UV-I 0 W/m² -0,3 °C 8,2 °C 1,6 km/h (1 Bft)
13.04.2018 03:45 8,2 °C 57 % 999,6 hPa 0,0 mm 0,9 km/h (0 Bft) W-SW 257 ° 0 min 0,000 mm 0,0 UV-I 0 W/m² 0,2 °C 8,2 °C 1,6 km/h (1 Bft)
13.04.2018 03:46 8,2 °C 55 % 999,6 hPa 0,0 mm 3,6 km/h (1 Bft) W-SW 257 ° 0 min 0,000 mm 0,0 UV-I 0 W/m² -0,3 °C 8,2 °C 4,8 km/h (1 Bft)
13.04.2018 03:47 8,2 °C 56 % 999,6 hPa 0,0 mm 1,5 km/h (1 Bft) W-SW 257 ° 0 min 0,000 mm 0,0 UV-I 0 W/m² -0,0 °C 8,2 °C 3,2 km/h (1 Bft)
13.04.2018 03:48 8,3 °C 56 % 999,6 hPa 0,0 mm 1,2 km/h (1 Bft) W-SW 257 ° 0 min 0,000 mm 0,0 UV-I 0 W/m² 0,0 °C 8,3 °C 1,6 km/h (1 Bft)
13.04.2018 03:49 8,3 °C 55 % 999,6 hPa 0,0 mm 1,0 km/h (0 Bft) W-SW 257 ° 0 min 0,000 mm 0,0 UV-I 0 W/m² -0,2 °C 8,3 °C 3,2 km/h (1 Bft)
13.04.2018 03:50 8,3 °C 54 % 999,6 hPa 0,0 mm 2,5 km/h (1 Bft) W-SW 257 ° 0 min 0,000 mm 0,0 UV-I 0 W/m² -0,5 °C 8,3 °C 4,8 km/h (1 Bft)
13.04.2018 03:51 8,3 °C 54 % 999,7 hPa 0,0 mm 3,5 km/h (1 Bft) W-SW 257 ° 0 min 0,000 mm 0,0 UV-I 0 W/m² -0,5 °C 8,3 °C 4,8 km/h (1 Bft)
13.04.2018 03:52 8,4 °C 54 % 999,7 hPa 0,0 mm 2,8 km/h (1 Bft) W-SW 257 ° 0 min 0,000 mm 0,0 UV-I 0 W/m² -0,4 °C 8,4 °C 4,8 km/h (1 Bft)
13.04.2018 03:53 8,5 °C 54 % 999,9 hPa 0,0 mm 1,3 km/h (1 Bft) W-SW 257 ° 0 min 0,000 mm 0,0 UV-I 0 W/m² -0,3 °C 8,5 °C 3,2 km/h (1 Bft)
13.04.2018 03:54 8,6 °C 55 % 999,9 hPa 0,0 mm 1,0 km/h (0 Bft) W-SW 257 ° 0 min 0,000 mm 0,0 UV-I 0 W/m² 0,1 °C 8,6 °C 3,2 km/h (1 Bft)
13.04.2018 03:55 8,4 °C 55 % 999,9 hPa 0,0 mm 0,8 km/h (0 Bft) W-SW 257 ° 0 min 0,000 mm 0,0 UV-I 0 W/m² -0,1 °C 8,4 °C 1,6 km/h (1 Bft)
13.04.2018 03:56 8,3 °C 58 % 999,9 hPa 0,0 mm 0,0 km/h (0 Bft) W-SW 257 ° 0 min 0,000 mm 0,0 UV-I 0 W/m² 0,5 °C 8,3 °C 0,0 km/h (0 Bft)
13.04.2018 03:57 7,9 °C 59 % 999,9 hPa 0,0 mm 0,0 km/h (0 Bft) W-SW 257 ° 0 min 0,000 mm 0,0 UV-I 0 W/m² 0,4 °C 7,9 °C 0,0 km/h (0 Bft)
13.04.2018 03:58 7,7 °C 61 % 1000,0 hPa 0,0 mm 0,0 km/h (0 Bft) W-SW 257 ° 0 min 0,000 mm 0,0 UV-I 0 W/m² 0,7 °C 7,7 °C 0,0 km/h (0 Bft)
13.04.2018 03:59 7,4 °C 61 % 1000,1 hPa 0,0 mm 0,0 km/h (0 Bft) W-SW 257 ° 0 min 0,000 mm 0,0 UV-I 0 W/m² 0,4 °C 7,4 °C 0,0 km/h (0 Bft)
13.04.2018 04:00 7,2 °C 63 % 1000,1 hPa 0,0 mm 0,0 km/h (0 Bft) W-SW 257 ° 0 min 0,026 mm 0,0 UV-I 0 W/m² 0,6 °C 7,2 °C 0,0 km/h (0 Bft)
13.04.2018 04:01 7,0 °C 63 % 1000,1 hPa 0,0 mm 0,0 km/h (0 Bft) W-SW 257 ° 0 min 0,000 mm 0,0 UV-I 0 W/m² 0,4 °C 7,0 °C 0,0 km/h (0 Bft)
13.04.2018 04:02 6,8 °C 64 % 1000,1 hPa 0,0 mm 0,0 km/h (0 Bft) W-SW 257 ° 0 min 0,000 mm 0,0 UV-I 0 W/m² 0,5 °C 6,8 °C 0,0 km/h (0 Bft)
13.04.2018 04:03 6,8 °C 64 % 1000,0 hPa 0,0 mm 0,5 km/h (0 Bft) W-SW 257 ° 0 min 0,000 mm 0,0 UV-I 0 W/m² 0,5 °C 6,8 °C 3,2 km/h (1 Bft)
13.04.2018 04:04 6,9 °C 62 % 1000,0 hPa 0,0 mm 4,0 km/h (1 Bft) W-SW 254 ° 0 min 0,000 mm 0,0 UV-I 0 W/m² 0,1 °C 6,9 °C 4,8 km/h (1 Bft)
13.04.2018 04:05 7,1 °C 61 % 999,9 hPa 0,0 mm 4,6 km/h (1 Bft) W-SW 254 ° 0 min 0,000 mm 0,0 UV-I 0 W/m² 0,1 °C 6,6 °C 6,4 km/h (2 Bft)
13.04.2018 04:06 7,3 °C 60 % 999,9 hPa 0,0 mm 2,2 km/h (1 Bft) W-SW 254 ° 0 min 0,000 mm 0,0 UV-I 0 W/m² 0,1 °C 7,3 °C 3,2 km/h (1 Bft)
13.04.2018 04:07 7,6 °C 59 % 999,9 hPa 0,0 mm 0,4 km/h (0 Bft) W-SW 254 ° 0 min 0,000 mm 0,0 UV-I 0 W/m² 0,1 °C 7,6 °C 1,6 km/h (1 Bft)
13.04.2018 04:08 7,6 °C 62 % 999,9 hPa 0,0 mm 0,0 km/h (0 Bft) W-SW 254 ° 0 min 0,000 mm 0,0 UV-I 0 W/m² 0,8 °C 7,6 °C 0,0 km/h (0 Bft)
13.04.2018 04:09 7,5 °C 63 % 999,9 hPa 0,0 mm 0,0 km/h (0 Bft) W-SW 254 ° 0 min 0,000 mm 0,0 UV-I 0 W/m² 0,9 °C 7,5 °C 0,0 km/h (0 Bft)
13.04.2018 04:10 7,3 °C 64 % 999,9 hPa 0,0 mm 0,0 km/h (0 Bft) W-SW 254 ° 0 min 0,000 mm 0,0 UV-I 0 W/m² 1,0 °C 7,3 °C 0,0 km/h (0 Bft)
13.04.2018 04:11 7,1 °C 64 % 999,9 hPa 0,0 mm 0,0 km/h (0 Bft) W-SW 254 ° 0 min 0,000 mm 0,0 UV-I 0 W/m² 0,8 °C 7,1 °C 0,0 km/h (0 Bft)
13.04.2018 04:12 7,1 °C 64 % 1000,0 hPa 0,0 mm 0,0 km/h (0 Bft) W-SW 254 ° 0 min 0,000 mm 0,0 UV-I 0 W/m² 0,8 °C 7,1 °C 0,0 km/h (0 Bft)
13.04.2018 04:13 7,2 °C 61 % 1000,0 hPa 0,0 mm 0,3 km/h (0 Bft) W-SW 254 ° 0 min 0,000 mm 0,0 UV-I 0 W/m² 0,2 °C 7,2 °C 1,6 km/h (1 Bft)
13.04.2018 04:14 7,4 °C 59 % 1000,0 hPa 0,0 mm 0,7 km/h (0 Bft) W-SW 254 ° 0 min 0,000 mm 0,0 UV-I 0 W/m² -0,1 °C 7,4 °C 1,6 km/h (1 Bft)
13.04.2018 04:15 7,7 °C 58 % 1000,0 hPa 0,0 mm 0,0 km/h (0 Bft) W-SW 254 ° 0 min 0,000 mm 0,0 UV-I 0 W/m² -0,0 °C 7,7 °C 0,0 km/h (0 Bft)
13.04.2018 04:16 7,8 °C 61 % 1000,0 hPa 0,0 mm 0,0 km/h (0 Bft) W-SW 254 ° 0 min 0,000 mm 0,0 UV-I 0 W/m² 0,8 °C 7,8 °C 0,0 km/h (0 Bft)
13.04.2018 04:17 7,7 °C 63 % 1000,0 hPa 0,0 mm 0,0 km/h (0 Bft) W-SW 254 ° 0 min 0,000 mm 0,0 UV-I 0 W/m² 1,1 °C 7,7 °C 0,0 km/h (0 Bft)
13.04.2018 04:18 7,4 °C 64 % 999,9 hPa 0,0 mm 0,0 km/h (0 Bft) W-SW 254 ° 0 min 0,000 mm 0,0 UV-I 0 W/m² 1,0 °C 7,4 °C 0,0 km/h (0 Bft)
13.04.2018 04:19 7,4 °C 63 % 999,9 hPa 0,0 mm 0,0 km/h (0 Bft) W-SW 254 ° 0 min 0,000 mm 0,0 UV-I 0 W/m² 0,8 °C 7,4 °C 0,0 km/h (0 Bft)
13.04.2018 04:20 7,4 °C 61 % 999,9 hPa 0,0 mm 0,3 km/h (0 Bft) W-SW 254 ° 0 min 0,000 mm 0,0 UV-I 0 W/m² 0,4 °C 7,4 °C 1,6 km/h (1 Bft)
13.04.2018 04:21 7,5 °C 63 % 999,9 hPa 0,0 mm 0,0 km/h (0 Bft) W-SW 254 ° 0 min 0,000 mm 0,0 UV-I 0 W/m² 0,9 °C 7,5 °C 0,0 km/h (0 Bft)
13.04.2018 04:22 7,4 °C 63 % 999,9 hPa 0,0 mm 0,0 km/h (0 Bft) W-SW 254 ° 0 min 0,000 mm 0,0 UV-I 0 W/m² 0,8 °C 7,4 °C 0,0 km/h (0 Bft)
13.04.2018 04:23 7,2 °C 65 % 999,9 hPa 0,0 mm 0,0 km/h (0 Bft) W-SW 254 ° 0 min 0,000 mm 0,0 UV-I 0 W/m² 1,1 °C 7,2 °C 0,0 km/h (0 Bft)
13.04.2018 04:24 7,1 °C 65 % 999,9 hPa 0,0 mm 0,0 km/h (0 Bft) W-SW 254 ° 0 min 0,000 mm 0,0 UV-I 0 W/m² 1,0 °C 7,1 °C 0,0 km/h (0 Bft)
13.04.2018 04:25 6,8 °C 66 % 999,9 hPa 0,0 mm 0,0 km/h (0 Bft) W-SW 254 ° 0 min 0,000 mm 0,0 UV-I 0 W/m² 0,9 °C 6,8 °C 0,0 km/h (0 Bft)
13.04.2018 04:26 6,7 °C 66 % 999,9 hPa 0,0 mm 0,0 km/h (0 Bft) W-SW 254 ° 0 min 0,000 mm 0,0 UV-I 0 W/m² 0,8 °C 6,7 °C 0,0 km/h (0 Bft)
13.04.2018 04:27 6,7 °C 67 % 1000,0 hPa 0,0 mm 0,0 km/h (0 Bft) W-SW 254 ° 0 min 0,000 mm 0,0 UV-I 0 W/m² 1,0 °C 6,7 °C 0,0 km/h (0 Bft)
13.04.2018 04:28 6,7 °C 67 % 1000,0 hPa 0,0 mm 0,0 km/h (0 Bft) W-SW 254 ° 0 min 0,000 mm 0,0 UV-I 0 W/m² 1,0 °C 6,7 °C 0,0 km/h (0 Bft)
13.04.2018 04:29 6,7 °C 66 % 1000,0 hPa 0,0 mm 1,1 km/h (1 Bft) W-SW 254 ° 0 min 0,000 mm 0,0 UV-I 0 W/m² 0,8 °C 6,7 °C 3,2 km/h (1 Bft)
13.04.2018 04:30 6,8 °C 66 % 1000,0 hPa 0,0 mm 2,7 km/h (1 Bft) W-SW 254 ° 0 min 0,000 mm 0,0 UV-I 0 W/m² 0,9 °C 6,8 °C 4,8 km/h (1 Bft)
13.04.2018 04:31 7,0 °C 64 % 1000,1 hPa 0,0 mm 2,8 km/h (1 Bft) W-SW 253 ° 0 min 0,000 mm 0,0 UV-I 0 W/m² 0,7 °C 7,0 °C 4,8 km/h (1 Bft)
13.04.2018 04:32 7,1 °C 63 % 1000,1 hPa 0,0 mm 4,6 km/h (1 Bft) W-SW 252 ° 0 min 0,000 mm 0,0 UV-I 0 W/m² 0,5 °C 6,6 °C 6,4 km/h (2 Bft)
13.04.2018 04:33 7,3 °C 63 % 1000,1 hPa 0,0 mm 3,9 km/h (1 Bft) W-SW 251 ° 0 min 0,000 mm 0,0 UV-I 0 W/m² 0,7 °C 7,3 °C 4,8 km/h (1 Bft)
13.04.2018 04:34 7,4 °C 63 % 1000,1 hPa 0,0 mm 3,0 km/h (1 Bft) W-SW 251 ° 0 min 0,000 mm 0,0 UV-I 0 W/m² 0,8 °C 7,4 °C 4,8 km/h (1 Bft)
13.04.2018 04:35 7,4 °C 63 % 1000,1 hPa 0,0 mm 3,4 km/h (1 Bft) W-SW 251 ° 0 min 0,000 mm 0,0 UV-I 0 W/m² 0,8 °C 7,4 °C 4,8 km/h (1 Bft)
13.04.2018 04:36 7,6 °C 62 % 1000,1 hPa 0,0 mm 2,7 km/h (1 Bft) W-SW 251 ° 0 min 0,000 mm 0,0 UV-I 0 W/m² 0,8 °C 7,6 °C 4,8 km/h (1 Bft)
13.04.2018 04:37 7,7 °C 62 % 1000,1 hPa 0,0 mm 0,1 km/h (0 Bft) W-SW 251 ° 0 min 0,000 mm 0,0 UV-I 0 W/m² 0,9 °C 7,7 °C 1,6 km/h (1 Bft)
13.04.2018 04:38 7,6 °C 64 % 1000,1 hPa 0,0 mm 2,1 km/h (1 Bft) W-SW 251 ° 0 min 0,000 mm 0,0 UV-I 0 W/m² 1,2 °C 7,6 °C 3,2 km/h (1 Bft)
13.04.2018 04:39 7,3 °C 65 % 1000,1 hPa 0,0 mm 0,8 km/h (0 Bft) W-SW 251 ° 0 min 0,000 mm 0,0 UV-I 0 W/m² 1,2 °C 7,3 °C 1,6 km/h (1 Bft)
13.04.2018 04:40 6,9 °C 66 % 1000,1 hPa 0,0 mm 0,0 km/h (0 Bft) W-SW 251 ° 0 min 0,000 mm 0,0 UV-I 0 W/m² 1,0 °C 6,9 °C 0,0 km/h (0 Bft)
13.04.2018 04:41 6,7 °C 66 % 1000,1 hPa 0,0 mm 0,2 km/h (0 Bft) W-SW 251 ° 0 min 0,000 mm 0,0 UV-I 0 W/m² 0,8 °C 6,7 °C 1,6 km/h (1 Bft)
13.04.2018 04:42 6,6 °C 66 % 1000,1 hPa 0,0 mm 1,4 km/h (1 Bft) W-SW 251 ° 0 min 0,000 mm 0,0 UV-I 0 W/m² 0,7 °C 6,6 °C 3,2 km/h (1 Bft)
13.04.2018 04:43 6,6 °C 67 % 1000,1 hPa 0,0 mm 1,2 km/h (1 Bft) W-SW 251 ° 0 min 0,000 mm 0,0 UV-I 0 W/m² 0,9 °C 6,6 °C 1,6 km/h (1 Bft)
13.04.2018 04:44 6,6 °C 67 % 1000,1 hPa 0,0 mm 0,1 km/h (0 Bft) W-SW 251 ° 0 min 0,000 mm 0,0 UV-I 0 W/m² 0,9 °C 6,6 °C 1,6 km/h (1 Bft)
13.04.2018 04:45 6,7 °C 67 % 1000,1 hPa 0,0 mm 0,3 km/h (0 Bft) W-SW 251 ° 0 min 0,000 mm 0,0 UV-I 0 W/m² 1,0 °C 6,7 °C 1,6 km/h (1 Bft)
13.04.2018 04:46 6,6 °C 68 % 1000,1 hPa 0,0 mm 0,0 km/h (0 Bft) W-SW 251 ° 0 min 0,000 mm 0,0 UV-I 0 W/m² 1,1 °C 6,6 °C 0,0 km/h (0 Bft)
13.04.2018 04:47 6,7 °C 68 % 1000,1 hPa 0,0 mm 0,0 km/h (0 Bft) W-SW 251 ° 0 min 0,000 mm 0,0 UV-I 0 W/m² 1,2 °C 6,7 °C 0,0 km/h (0 Bft)
13.04.2018 04:48 6,7 °C 67 % 1000,1 hPa 0,0 mm 1,1 km/h (1 Bft) W-SW 251 ° 0 min 0,000 mm 0,0 UV-I 0 W/m² 1,0 °C 6,7 °C 3,2 km/h (1 Bft)
13.04.2018 04:49 6,7 °C 68 % 1000,1 hPa 0,0 mm 0,3 km/h (0 Bft) W-SW 251 ° 0 min 0,000 mm 0,0 UV-I 0 W/m² 1,2 °C 6,7 °C 1,6 km/h (1 Bft)
13.04.2018 04:50 6,7 °C 68 % 1000,2 hPa 0,0 mm 0,0 km/h (0 Bft) W-SW 251 ° 0 min 0,000 mm 0,0 UV-I 0 W/m² 1,2 °C 6,7 °C 0,0 km/h (0 Bft)
13.04.2018 04:51 6,7 °C 67 % 1000,2 hPa 0,0 mm 0,0 km/h (0 Bft) W-SW 251 ° 0 min 0,000 mm 0,0 UV-I 0 W/m² 1,0 °C 6,7 °C 0,0 km/h (0 Bft)
13.04.2018 04:52 6,7 °C 68 % 1000,2 hPa 0,0 mm 0,0 km/h (0 Bft) W-SW 251 ° 0 min 0,000 mm 0,0 UV-I 0 W/m² 1,2 °C 6,7 °C 0,0 km/h (0 Bft)
13.04.2018 04:53 6,6 °C 69 % 1000,3 hPa 0,0 mm 0,0 km/h (0 Bft) W-SW 251 ° 0 min 0,000 mm 0,0 UV-I 0 W/m² 1,3 °C 6,6 °C 0,0 km/h (0 Bft)
13.04.2018 04:54 6,6 °C 69 % 1000,3 hPa 0,0 mm 0,0 km/h (0 Bft) W-SW 251 ° 0 min 0,000 mm 0,0 UV-I 0 W/m² 1,3 °C 6,6 °C 0,0 km/h (0 Bft)
13.04.2018 04:55 6,6 °C 68 % 1000,2 hPa 0,0 mm 0,0 km/h (0 Bft) W-SW 251 ° 0 min 0,000 mm 0,0 UV-I 0 W/m² 1,1 °C 6,6 °C 0,0 km/h (0 Bft)
13.04.2018 04:56 6,7 °C 68 % 1000,3 hPa 0,0 mm 0,0 km/h (0 Bft) W-SW 251 ° 0 min 0,000 mm 0,0 UV-I 0 W/m² 1,2 °C 6,7 °C 0,0 km/h (0 Bft)
13.04.2018 04:57 6,8 °C 66 % 1000,3 hPa 0,0 mm 0,1 km/h (0 Bft) W-SW 251 ° 0 min 0,000 mm 0,0 UV-I 0 W/m² 0,9 °C 6,8 °C 1,6 km/h (1 Bft)
13.04.2018 04:58 6,9 °C 65 % 1000,3 hPa 0,0 mm 0,7 km/h (0 Bft) W-SW 251 ° 0 min 0,000 mm 0,0 UV-I 0 W/m² 0,8 °C 6,9 °C 1,6 km/h (1 Bft)
13.04.2018 04:59 7,1 °C 64 % 1000,3 hPa 0,0 mm 0,0 km/h (0 Bft) W-SW 251 ° 0 min 0,000 mm 0,0 UV-I 0 W/m² 0,8 °C 7,1 °C 0,0 km/h (0 Bft)
13.04.2018 05:00 7,2 °C 64 % 1000,3 hPa 0,0 mm 1,3 km/h (1 Bft) W-SW 251 ° 0 min 0,000 mm 0,0 UV-I 0 W/m² 0,9 °C 7,2 °C 4,8 km/h (1 Bft)
13.04.2018 05:01 7,3 °C 63 % 1000,4 hPa 0,0 mm 1,7 km/h (1 Bft) W-SW 251 ° 0 min 0,025 mm 0,0 UV-I 0 W/m² 0,7 °C 7,3 °C 3,2 km/h (1 Bft)
13.04.2018 05:02 7,3 °C 65 % 1000,3 hPa 0,0 mm 0,6 km/h (0 Bft) W-SW 251 ° 0 min 0,000 mm 0,0 UV-I 0 W/m² 1,2 °C 7,3 °C 3,2 km/h (1 Bft)
13.04.2018 05:03 7,2 °C 66 % 1000,4 hPa 0,0 mm 0,6 km/h (0 Bft) W-SW 251 ° 0 min 0,000 mm 0,0 UV-I 0 W/m² 1,3 °C 7,2 °C 1,6 km/h (1 Bft)
13.04.2018 05:04 6,9 °C 67 % 1000,4 hPa 0,0 mm 0,0 km/h (0 Bft) W-SW 251 ° 0 min 0,000 mm 0,0 UV-I 0 W/m² 1,2 °C 6,9 °C 0,0 km/h (0 Bft)
13.04.2018 05:05 6,7 °C 68 % 1000,4 hPa 0,0 mm 0,0 km/h (0 Bft) W-SW 251 ° 0 min 0,000 mm 0,0 UV-I 0 W/m² 1,2 °C 6,7 °C 0,0 km/h (0 Bft)
13.04.2018 05:06 6,6 °C 69 % 1000,3 hPa 0,0 mm 0,0 km/h (0 Bft) W-SW 251 ° 0 min 0,000 mm 0,0 UV-I 0 W/m² 1,3 °C 6,6 °C 0,0 km/h (0 Bft)
13.04.2018 05:07 6,5 °C 69 % 1000,3 hPa 0,0 mm 0,0 km/h (0 Bft) W-SW 251 ° 0 min 0,000 mm 0,0 UV-I 0 W/m² 1,2 °C 6,5 °C 0,0 km/h (0 Bft)
13.04.2018 05:08 6,6 °C 69 % 1000,4 hPa 0,0 mm 0,0 km/h (0 Bft) W-SW 251 ° 0 min 0,000 mm 0,0 UV-I 0 W/m² 1,3 °C 6,6 °C 0,0 km/h (0 Bft)
13.04.2018 05:09 6,6 °C 69 % 1000,4 hPa 0,0 mm 0,0 km/h (0 Bft) W-SW 251 ° 0 min 0,000 mm 0,0 UV-I 0 W/m² 1,3 °C 6,6 °C 0,0 km/h (0 Bft)
13.04.2018 05:10 6,6 °C 69 % 1000,4 hPa 0,0 mm 0,0 km/h (0 Bft) W-SW 251 ° 0 min 0,000 mm 0,0 UV-I 0 W/m² 1,3 °C 6,6 °C 0,0 km/h (0 Bft)
13.04.2018 05:11 6,5 °C 70 % 1000,4 hPa 0,0 mm 0,0 km/h (0 Bft) W-SW 251 ° 0 min 0,000 mm 0,0 UV-I 0 W/m² 1,4 °C 6,5 °C 0,0 km/h (0 Bft)
13.04.2018 05:12 6,4 °C 70 % 1000,5 hPa 0,0 mm 0,0 km/h (0 Bft) W-SW 251 ° 0 min 0,000 mm 0,0 UV-I 0 W/m² 1,3 °C 6,4 °C 0,0 km/h (0 Bft)
13.04.2018 05:13 6,3 °C 70 % 1000,5 hPa 0,0 mm 0,0 km/h (0 Bft) W-SW 251 ° 0 min 0,000 mm 0,0 UV-I 0 W/m² 1,2 °C 6,3 °C 0,0 km/h (0 Bft)
13.04.2018 05:14 6,3 °C 70 % 1000,5 hPa 0,0 mm 0,3 km/h (0 Bft) W-SW 251 ° 0 min 0,000 mm 0,0 UV-I 0 W/m² 1,2 °C 6,3 °C 3,2 km/h (1 Bft)
13.04.2018 05:15 6,4 °C 71 % 1000,6 hPa 0,0 mm 3,1 km/h (1 Bft) W-SW 251 ° 0 min 0,000 mm 0,0 UV-I 0 W/m² 1,5 °C 6,4 °C 4,8 km/h (1 Bft)
13.04.2018 05:16 6,4 °C 69 % 1000,6 hPa 0,0 mm 3,6 km/h (1 Bft) W-SW 248 ° 0 min 0,000 mm 0,0 UV-I 0 W/m² 1,1 °C 6,4 °C 6,4 km/h (2 Bft)
13.04.2018 05:17 6,4 °C 70 % 1000,6 hPa 0,0 mm 3,1 km/h (1 Bft) SW 225 ° 0 min 0,000 mm 0,0 UV-I 0 W/m² 1,3 °C 6,4 °C 6,4 km/h (2 Bft)
13.04.2018 05:18 6,4 °C 71 % 1000,6 hPa 0,0 mm 4,4 km/h (1 Bft) SW 219 ° 0 min 0,000 mm 0,0 UV-I 0 W/m² 1,5 °C 6,4 °C 6,4 km/h (2 Bft)
13.04.2018 05:19 6,6 °C 68 % 1000,6 hPa 0,0 mm 4,5 km/h (1 Bft) S-SW 200 ° 0 min 0,000 mm 0,0 UV-I 0 W/m² 1,1 °C 6,6 °C 4,8 km/h (1 Bft)
13.04.2018 05:20 6,8 °C 66 % 1000,6 hPa 0,0 mm 3,8 km/h (1 Bft) S-SW 200 ° 0 min 0,000 mm 0,0 UV-I 0 W/m² 0,9 °C 6,8 °C 4,8 km/h (1 Bft)
13.04.2018 05:21 7,0 °C 65 % 1000,6 hPa 0,0 mm 3,7 km/h (1 Bft) S-SW 200 ° 0 min 0,000 mm 0,0 UV-I 0 W/m² 0,9 °C 7,0 °C 6,4 km/h (2 Bft)
13.04.2018 05:22 7,2 °C 64 % 1000,6 hPa 0,0 mm 3,0 km/h (1 Bft) S-SW 200 ° 0 min 0,000 mm 0,0 UV-I 0 W/m² 0,9 °C 7,2 °C 4,8 km/h (1 Bft)
13.04.2018 05:23 7,4 °C 64 % 1000,6 hPa 0,0 mm 1,5 km/h (1 Bft) S-SW 200 ° 0 min 0,000 mm 0,0 UV-I 0 W/m² 1,0 °C 7,4 °C 4,8 km/h (1 Bft)
13.04.2018 05:24 7,6 °C 62 % 1000,6 hPa 0,0 mm 0,9 km/h (0 Bft) S-SW 200 ° 0 min 0,000 mm 0,0 UV-I 0 W/m² 0,8 °C 7,6 °C 3,2 km/h (1 Bft)
13.04.2018 05:25 7,7 °C 62 % 1000,6 hPa 0,0 mm 0,0 km/h (0 Bft) S-SW 200 ° 0 min 0,000 mm 0,0 UV-I 0 W/m² 0,9 °C 7,7 °C 0,0 km/h (0 Bft)
13.04.2018 05:26 7,9 °C 62 % 1000,6 hPa 0,0 mm 0,0 km/h (0 Bft) S-SW 200 ° 0 min 0,000 mm 0,0 UV-I 0 W/m² 1,1 °C 7,9 °C 0,0 km/h (0 Bft)
13.04.2018 05:27 8,0 °C 61 % 1000,6 hPa 0,0 mm 1,8 km/h (1 Bft) S-SW 200 ° 0 min 0,000 mm 0,0 UV-I 0 W/m² 0,9 °C 8,0 °C 3,2 km/h (1 Bft)
13.04.2018 05:28 8,1 °C 60 % 1000,6 hPa 0,0 mm 2,6 km/h (1 Bft) S-SW 200 ° 0 min 0,000 mm 0,0 UV-I 0 W/m² 0,8 °C 8,1 °C 3,2 km/h (1 Bft)
13.04.2018 05:29 8,3 °C 60 % 1000,7 hPa 0,0 mm 1,8 km/h (1 Bft) S-SW 200 ° 0 min 0,000 mm 0,0 UV-I 0 W/m² 1,0 °C 8,3 °C 3,2 km/h (1 Bft)
13.04.2018 05:30 8,3 °C 60 % 1000,7 hPa 0,0 mm 1,6 km/h (1 Bft) S-SW 200 ° 0 min 0,000 mm 0,0 UV-I 0 W/m² 1,0 °C 8,3 °C 3,2 km/h (1 Bft)
13.04.2018 05:31 8,3 °C 61 % 1000,7 hPa 0,0 mm 2,4 km/h (1 Bft) S-SW 200 ° 0 min 0,000 mm 0,0 UV-I 0 W/m² 1,2 °C 8,3 °C 4,8 km/h (1 Bft)
13.04.2018 05:32 8,3 °C 60 % 1000,8 hPa 0,0 mm 1,1 km/h (1 Bft) S-SW 200 ° 0 min 0,000 mm 0,0 UV-I 0 W/m² 1,0 °C 8,3 °C 3,2 km/h (1 Bft)
13.04.2018 05:33 8,3 °C 61 % 1000,8 hPa 0,0 mm 0,0 km/h (0 Bft) S-SW 200 ° 0 min 0,000 mm 0,0 UV-I 0 W/m² 1,2 °C 8,3 °C 0,0 km/h (0 Bft)
13.04.2018 05:34 8,0 °C 64 % 1000,7 hPa 0,0 mm 0,0 km/h (0 Bft) S-SW 200 ° 0 min 0,000 mm 0,0 UV-I 0 W/m² 1,6 °C 8,0 °C 0,0 km/h (0 Bft)
13.04.2018 05:35 7,7 °C 64 % 1000,7 hPa 0,0 mm 0,1 km/h (0 Bft) S-SW 200 ° 0 min 0,000 mm 0,0 UV-I 0 W/m² 1,3 °C 7,7 °C 1,6 km/h (1 Bft)
13.04.2018 05:36 7,4 °C 65 % 1000,7 hPa 0,0 mm 0,0 km/h (0 Bft) S-SW 200 ° 0 min 0,000 mm 0,0 UV-I 0 W/m² 1,3 °C 7,4 °C 0,0 km/h (0 Bft)
13.04.2018 05:37 7,2 °C 65 % 1000,8 hPa 0,0 mm 0,0 km/h (0 Bft) S-SW 200 ° 0 min 0,000 mm 0,0 UV-I 0 W/m² 1,1 °C 7,2 °C 0,0 km/h (0 Bft)
13.04.2018 05:38 7,2 °C 65 % 1000,8 hPa 0,0 mm 0,0 km/h (0 Bft) S-SW 200 ° 0 min 0,000 mm 0,0 UV-I 0 W/m² 1,1 °C 7,2 °C 0,0 km/h (0 Bft)
13.04.2018 05:39 7,1 °C 65 % 1000,8 hPa 0,0 mm 0,0 km/h (0 Bft) S-SW 200 ° 0 min 0,000 mm 0,0 UV-I 0 W/m² 1,0 °C 7,1 °C 0,0 km/h (0 Bft)
13.04.2018 05:40 7,0 °C 66 % 1000,8 hPa 0,0 mm 0,2 km/h (0 Bft) S-SW 200 ° 0 min 0,000 mm 0,0 UV-I 0 W/m² 1,1 °C 7,0 °C 1,6 km/h (1 Bft)
13.04.2018 05:41 7,1 °C 65 % 1000,8 hPa 0,0 mm 1,3 km/h (1 Bft) S-SW 200 ° 0 min 0,000 mm 0,0 UV-I 0 W/m² 1,0 °C 7,1 °C 3,2 km/h (1 Bft)
13.04.2018 05:42 7,2 °C 66 % 1000,8 hPa 0,0 mm 1,6 km/h (1 Bft) S-SW 200 ° 0 min 0,000 mm 0,0 UV-I 0 W/m² 1,3 °C 7,2 °C 3,2 km/h (1 Bft)
13.04.2018 05:43 7,3 °C 64 % 1000,8 hPa 0,0 mm 0,1 km/h (0 Bft) S-SW 200 ° 0 min 0,000 mm 0,0 UV-I 0 W/m² 1,0 °C 7,3 °C 1,6 km/h (1 Bft)
13.04.2018 05:44 7,4 °C 67 % 1000,8 hPa 0,0 mm 1,4 km/h (1 Bft) S-SW 200 ° 0 min 0,000 mm 0,0 UV-I 0 W/m² 1,7 °C 7,4 °C 3,2 km/h (1 Bft)
13.04.2018 05:45 7,5 °C 65 % 1000,8 hPa 0,0 mm 1,6 km/h (1 Bft) S-SW 200 ° 0 min 0,000 mm 0,0 UV-I 0 W/m² 1,4 °C 7,5 °C 3,2 km/h (1 Bft)
13.04.2018 05:46 7,6 °C 65 % 1000,9 hPa 0,0 mm 0,0 km/h (0 Bft) S-SW 200 ° 0 min 0,000 mm 0,0 UV-I 0 W/m² 1,5 °C 7,6 °C 0,0 km/h (0 Bft)
13.04.2018 05:47 7,7 °C 66 % 1000,8 hPa 0,0 mm 0,0 km/h (0 Bft) S-SW 200 ° 0 min 0,000 mm 0,0 UV-I 0 W/m² 1,8 °C 7,7 °C 0,0 km/h (0 Bft)
13.04.2018 05:48 7,7 °C 65 % 1000,8 hPa 0,0 mm 0,0 km/h (0 Bft) S-SW 200 ° 0 min 0,000 mm 0,0 UV-I 0 W/m² 1,5 °C 7,7 °C 0,0 km/h (0 Bft)
13.04.2018 05:49 7,8 °C 65 % 1000,8 hPa 0,0 mm 0,0 km/h (0 Bft) S-SW 200 ° 0 min 0,000 mm 0,0 UV-I 0 W/m² 1,6 °C 7,8 °C 0,0 km/h (0 Bft)
13.04.2018 05:50 7,8 °C 64 % 1000,8 hPa 0,0 mm 0,0 km/h (0 Bft) S-SW 200 ° 0 min 0,000 mm 0,0 UV-I 0 W/m² 1,4 °C 7,8 °C 0,0 km/h (0 Bft)
13.04.2018 05:51 7,8 °C 66 % 1000,8 hPa 0,0 mm 0,0 km/h (0 Bft) S-SW 200 ° 0 min 0,000 mm 0,0 UV-I 0 W/m² 1,9 °C 7,8 °C 0,0 km/h (0 Bft)
13.04.2018 05:52 7,7 °C 66 % 1000,8 hPa 0,0 mm 0,0 km/h (0 Bft) S-SW 200 ° 0 min 0,000 mm 0,0 UV-I 0 W/m² 1,8 °C 7,7 °C 0,0 km/h (0 Bft)
13.04.2018 05:53 7,7 °C 66 % 1000,8 hPa 0,0 mm 0,0 km/h (0 Bft) S-SW 200 ° 0 min 0,000 mm 0,0 UV-I 0 W/m² 1,8 °C 7,7 °C 0,0 km/h (0 Bft)
13.04.2018 05:54 7,6 °C 66 % 1000,8 hPa 0,0 mm 0,0 km/h (0 Bft) S-SW 200 ° 0 min 0,000 mm 0,0 UV-I 0 W/m² 1,7 °C 7,6 °C 0,0 km/h (0 Bft)
13.04.2018 05:55 7,4 °C 66 % 1000,8 hPa 0,0 mm 0,0 km/h (0 Bft) S-SW 200 ° 0 min 0,000 mm 0,0 UV-I 0 W/m² 1,5 °C 7,4 °C 0,0 km/h (0 Bft)
13.04.2018 05:56 7,3 °C 67 % 1000,9 hPa 0,0 mm 0,0 km/h (0 Bft) S-SW 200 ° 0 min 0,000 mm 0,0 UV-I 0 W/m² 1,6 °C 7,3 °C 0,0 km/h (0 Bft)
13.04.2018 05:57 7,2 °C 67 % 1000,9 hPa 0,0 mm 0,0 km/h (0 Bft) S-SW 200 ° 0 min 0,000 mm 0,0 UV-I 0 W/m² 1,5 °C 7,2 °C 0,0 km/h (0 Bft)
13.04.2018 05:58 7,2 °C 68 % 1000,9 hPa 0,0 mm 0,0 km/h (0 Bft) S-SW 200 ° 0 min 0,000 mm 0,0 UV-I 0 W/m² 1,7 °C 7,2 °C 0,0 km/h (0 Bft)
13.04.2018 05:59 7,1 °C 69 % 1000,9 hPa 0,0 mm 0,0 km/h (0 Bft) S-SW 200 ° 0 min 0,000 mm 0,0 UV-I 0 W/m² 1,8 °C 7,1 °C 0,0 km/h (0 Bft)
13.04.2018 06:00 7,0 °C 68 % 1000,9 hPa 0,0 mm 0,0 km/h (0 Bft) S-SW 200 ° 0 min 0,025 mm 0,0 UV-I 0 W/m² 1,5 °C 7,0 °C 0,0 km/h (0 Bft)
13.04.2018 06:01 7,1 °C 68 % 1000,9 hPa 0,0 mm 0,0 km/h (0 Bft) S-SW 200 ° 0 min 0,000 mm 0,0 UV-I 0 W/m² 1,6 °C 7,1 °C 0,0 km/h (0 Bft)
13.04.2018 06:02 7,0 °C 69 % 1000,9 hPa 0,0 mm 0,4 km/h (0 Bft) S-SW 200 ° 0 min 0,000 mm 0,0 UV-I 0 W/m² 1,7 °C 7,0 °C 1,6 km/h (1 Bft)
13.04.2018 06:03 6,9 °C 68 % 1001,0 hPa 0,0 mm 0,0 km/h (0 Bft) S-SW 200 ° 0 min 0,000 mm 0,0 UV-I 0 W/m² 1,4 °C 6,9 °C 0,0 km/h (0 Bft)
13.04.2018 06:04 6,9 °C 67 % 1001,0 hPa 0,0 mm 0,0 km/h (0 Bft) S-SW 200 ° 0 min 0,000 mm 0,0 UV-I 0 W/m² 1,2 °C 6,9 °C 0,0 km/h (0 Bft)
13.04.2018 06:05 6,9 °C 67 % 1001,0 hPa 0,0 mm 0,0 km/h (0 Bft) S-SW 200 ° 0 min 0,000 mm 0,0 UV-I 0 W/m² 1,2 °C 6,9 °C 0,0 km/h (0 Bft)
13.04.2018 06:06 6,9 °C 67 % 1001,0 hPa 0,0 mm 0,0 km/h (0 Bft) S-SW 200 ° 0 min 0,000 mm 0,0 UV-I 0 W/m² 1,2 °C 6,9 °C 0,0 km/h (0 Bft)
13.04.2018 06:07 6,9 °C 66 % 1001,0 hPa 0,0 mm 0,0 km/h (0 Bft) S-SW 200 ° 0 min 0,000 mm 0,0 UV-I 0 W/m² 1,0 °C 6,9 °C 0,0 km/h (0 Bft)
13.04.2018 06:08 7,0 °C 66 % 1001,0 hPa 0,0 mm 2,7 km/h (1 Bft) S-SW 202 ° 0 min 0,000 mm 0,0 UV-I 0 W/m² 1,1 °C 7,0 °C 4,8 km/h (1 Bft)
13.04.2018 06:09 7,1 °C 67 % 1001,2 hPa 0,0 mm 3,4 km/h (1 Bft) S-SW 205 ° 0 min 0,000 mm 0,0 UV-I 0 W/m² 1,4 °C 7,1 °C 4,8 km/h (1 Bft)
13.04.2018 06:10 7,1 °C 67 % 1001,2 hPa 0,0 mm 0,7 km/h (0 Bft) S-SW 205 ° 0 min 0,000 mm 0,0 UV-I 0 W/m² 1,4 °C 7,1 °C 1,6 km/h (1 Bft)
13.04.2018 06:11 7,2 °C 66 % 1001,1 hPa 0,0 mm 0,0 km/h (0 Bft) S-SW 205 ° 0 min 0,000 mm 0,0 UV-I 0 W/m² 1,3 °C 7,2 °C 0,0 km/h (0 Bft)
13.04.2018 06:12 7,3 °C 67 % 1001,1 hPa 0,0 mm 1,1 km/h (1 Bft) S-SW 205 ° 0 min 0,000 mm 0,0 UV-I 0 W/m² 1,6 °C 7,3 °C 3,2 km/h (1 Bft)
13.04.2018 06:13 7,3 °C 67 % 1001,1 hPa 0,0 mm 3,5 km/h (1 Bft) S-SW 205 ° 0 min 0,000 mm 0,0 UV-I 0 W/m² 1,6 °C 7,3 °C 8,0 km/h (2 Bft)
13.04.2018 06:14 7,4 °C 65 % 1001,1 hPa 0,0 mm 4,8 km/h (1 Bft) S-SW 208 ° 0 min 0,000 mm 0,0 UV-I 0 W/m² 1,3 °C 6,9 °C 8,0 km/h (2 Bft)
13.04.2018 06:15 7,6 °C 67 % 1001,2 hPa 0,0 mm 1,9 km/h (1 Bft) SW 214 ° 0 min 0,000 mm 0,0 UV-I 0 W/m² 1,9 °C 7,6 °C 8,0 km/h (2 Bft)
13.04.2018 06:16 7,7 °C 63 % 1001,1 hPa 0,0 mm 4,5 km/h (1 Bft) SW 218 ° 0 min 0,000 mm 0,0 UV-I 0 W/m² 1,1 °C 7,7 °C 6,4 km/h (2 Bft)
13.04.2018 06:17 7,8 °C 66 % 1001,1 hPa 0,0 mm 1,3 km/h (1 Bft) SW 218 ° 0 min 0,000 mm 0,0 UV-I 0 W/m² 1,9 °C 7,8 °C 3,2 km/h (1 Bft)
13.04.2018 06:18 7,8 °C 66 % 1001,2 hPa 0,0 mm 0,7 km/h (0 Bft) SW 218 ° 0 min 0,000 mm 0,0 UV-I 0 W/m² 1,9 °C 7,8 °C 3,2 km/h (1 Bft)
13.04.2018 06:19 7,8 °C 67 % 1001,2 hPa 0,0 mm 0,4 km/h (0 Bft) SW 218 ° 0 min 0,000 mm 0,0 UV-I 0 W/m² 2,1 °C 7,8 °C 3,2 km/h (1 Bft)
13.04.2018 06:20 7,8 °C 65 % 1001,2 hPa 0,0 mm 3,2 km/h (1 Bft) SW 220 ° 0 min 0,000 mm 0,0 UV-I 0 W/m² 1,6 °C 7,8 °C 4,8 km/h (1 Bft)
13.04.2018 06:21 7,8 °C 65 % 1001,3 hPa 0,0 mm 1,6 km/h (1 Bft) SW 220 ° 0 min 0,000 mm 0,0 UV-I 0 W/m² 1,6 °C 7,8 °C 3,2 km/h (1 Bft)
13.04.2018 06:22 7,8 °C 66 % 1001,3 hPa 0,0 mm 1,1 km/h (1 Bft) SW 220 ° 0 min 0,000 mm 0,0 UV-I 0 W/m² 1,9 °C 7,8 °C 1,6 km/h (1 Bft)
13.04.2018 06:23 7,8 °C 66 % 1001,3 hPa 0,0 mm 0,7 km/h (0 Bft) SW 220 ° 0 min 0,000 mm 0,0 UV-I 0 W/m² 1,9 °C 7,8 °C 1,6 km/h (1 Bft)
13.04.2018 06:24 7,8 °C 66 % 1001,4 hPa 0,0 mm 0,3 km/h (0 Bft) SW 220 ° 0 min 0,000 mm 0,0 UV-I 0 W/m² 1,9 °C 7,8 °C 1,6 km/h (1 Bft)
13.04.2018 06:25 7,7 °C 65 % 1001,4 hPa 0,0 mm 6,0 km/h (2 Bft) W 259 ° 0 min 0,000 mm 0,0 UV-I 0 W/m² 1,5 °C 6,8 °C 9,7 km/h (2 Bft)
13.04.2018 06:26 7,7 °C 65 % 1001,4 hPa 0,0 mm 7,5 km/h (2 Bft) W 261 ° 0 min 0,000 mm 0,0 UV-I 0 W/m² 1,5 °C 6,4 °C 9,7 km/h (2 Bft)
13.04.2018 06:27 7,8 °C 64 % 1001,4 hPa 0,0 mm 5,3 km/h (1 Bft) W 261 ° 0 min 0,000 mm 0,0 UV-I 0 W/m² 1,4 °C 7,2 °C 6,4 km/h (2 Bft)
13.04.2018 06:28 7,8 °C 63 % 1001,5 hPa 0,0 mm 3,3 km/h (1 Bft) W 259 ° 0 min 0,000 mm 0,0 UV-I 0 W/m² 1,2 °C 7,8 °C 4,8 km/h (1 Bft)
13.04.2018 06:29 7,9 °C 64 % 1001,5 hPa 0,0 mm 3,1 km/h (1 Bft) W-SW 256 ° 0 min 0,000 mm 0,0 UV-I 0 W/m² 1,5 °C 7,9 °C 4,8 km/h (1 Bft)
13.04.2018 06:30 8,1 °C 63 % 1001,5 hPa 0,0 mm 4,3 km/h (1 Bft) W-SW 256 ° 0 min 0,000 mm 0,0 UV-I 0 W/m² 1,5 °C 8,1 °C 6,4 km/h (2 Bft)
13.04.2018 06:31 8,1 °C 62 % 1001,5 hPa 0,0 mm 1,9 km/h (1 Bft) W-SW 256 ° 0 min 0,000 mm 0,0 UV-I 0 W/m² 1,3 °C 8,1 °C 4,8 km/h (1 Bft)
13.04.2018 06:32 8,3 °C 61 % 1001,5 hPa 0,0 mm 3,3 km/h (1 Bft) W-SW 256 ° 0 min 0,000 mm 0,0 UV-I 0 W/m² 1,2 °C 8,3 °C 4,8 km/h (1 Bft)
13.04.2018 06:33 8,4 °C 61 % 1001,5 hPa 0,0 mm 2,4 km/h (1 Bft) W-SW 255 ° 0 min 0,000 mm 0,0 UV-I 0 W/m² 1,3 °C 8,4 °C 4,8 km/h (1 Bft)
13.04.2018 06:34 8,4 °C 61 % 1001,6 hPa 0,0 mm 4,5 km/h (1 Bft) S 180 ° 0 min 0,000 mm 0,0 UV-I 0 W/m² 1,3 °C 8,4 °C 8,0 km/h (2 Bft)
13.04.2018 06:35 8,5 °C 61 % 1001,6 hPa 0,0 mm 4,4 km/h (1 Bft) W-SW 250 ° 0 min 0,000 mm 0,0 UV-I 0 W/m² 1,4 °C 8,5 °C 8,0 km/h (2 Bft)
13.04.2018 06:36 8,6 °C 59 % 1001,6 hPa 0,0 mm 7,1 km/h (2 Bft) W 269 ° 0 min 0,000 mm 0,0 UV-I 0 W/m² 1,0 °C 7,6 °C 11,3 km/h (2 Bft)
13.04.2018 06:37 8,6 °C 60 % 1001,6 hPa 0,0 mm 3,7 km/h (1 Bft) W 269 ° 0 min 0,000 mm 0,0 UV-I 0 W/m² 1,3 °C 8,6 °C 6,4 km/h (2 Bft)
13.04.2018 06:38 8,7 °C 60 % 1001,6 hPa 0,0 mm 2,1 km/h (1 Bft) W-SW 249 ° 0 min 0,000 mm 0,0 UV-I 0 W/m² 1,4 °C 8,7 °C 4,8 km/h (1 Bft)
13.04.2018 06:39 8,7 °C 60 % 1001,6 hPa 0,0 mm 1,9 km/h (1 Bft) W-SW 249 ° 0 min 0,000 mm 0,0 UV-I 0 W/m² 1,4 °C 8,7 °C 3,2 km/h (1 Bft)
13.04.2018 06:40 8,8 °C 60 % 1001,7 hPa 0,0 mm 0,0 km/h (0 Bft) W-SW 249 ° 0 min 0,000 mm 0,0 UV-I 0 W/m² 1,5 °C 8,8 °C 0,0 km/h (0 Bft)
13.04.2018 06:41 8,8 °C 60 % 1001,7 hPa 0,0 mm 1,1 km/h (1 Bft) W-SW 249 ° 0 min 0,000 mm 0,0 UV-I 0 W/m² 1,5 °C 8,8 °C 3,2 km/h (1 Bft)
13.04.2018 06:42 8,7 °C 62 % 1001,7 hPa 0,0 mm 0,1 km/h (0 Bft) W-SW 249 ° 0 min 0,000 mm 0,0 UV-I 0 W/m² 1,8 °C 8,7 °C 1,6 km/h (1 Bft)
13.04.2018 06:43 8,7 °C 61 % 1001,7 hPa 0,0 mm 0,0 km/h (0 Bft) W-SW 249 ° 0 min 0,000 mm 0,0 UV-I 0 W/m² 1,6 °C 8,7 °C 0,0 km/h (0 Bft)
13.04.2018 06:44 8,7 °C 62 % 1001,7 hPa 0,0 mm 0,8 km/h (0 Bft) W-SW 249 ° 0 min 0,000 mm 0,0 UV-I 0 W/m² 1,8 °C 8,7 °C 3,2 km/h (1 Bft)
13.04.2018 06:45 8,7 °C 63 % 1001,7 hPa 0,0 mm 0,0 km/h (0 Bft) W-SW 249 ° 0 min 0,000 mm 0,0 UV-I 5 W/m² 2,1 °C 8,7 °C 0,0 km/h (0 Bft)
13.04.2018 06:46 8,7 °C 63 % 1001,7 hPa 0,0 mm 0,4 km/h (0 Bft) W-SW 249 ° 0 min 0,000 mm 0,0 UV-I 5 W/m² 2,1 °C 8,7 °C 3,2 km/h (1 Bft)
13.04.2018 06:47 8,6 °C 63 % 1001,8 hPa 0,0 mm 1,5 km/h (1 Bft) W-SW 249 ° 0 min 0,000 mm 0,0 UV-I 5 W/m² 2,0 °C 8,6 °C 3,2 km/h (1 Bft)
13.04.2018 06:48 8,6 °C 61 % 1001,8 hPa 0,0 mm 1,6 km/h (1 Bft) W-SW 249 ° 0 min 0,000 mm 0,0 UV-I 5 W/m² 1,5 °C 8,6 °C 3,2 km/h (1 Bft)
13.04.2018 06:49 8,7 °C 60 % 1001,8 hPa 0,0 mm 2,0 km/h (1 Bft) W-SW 249 ° 0 min 0,000 mm 0,0 UV-I 5 W/m² 1,4 °C 8,7 °C 3,2 km/h (1 Bft)
13.04.2018 06:50 8,9 °C 59 % 1001,8 hPa 0,0 mm 0,1 km/h (0 Bft) W-SW 249 ° 0 min 0,000 mm 0,0 UV-I 5 W/m² 1,3 °C 8,9 °C 1,6 km/h (1 Bft)
13.04.2018 06:51 9,0 °C 58 % 1001,8 hPa 0,0 mm 0,3 km/h (0 Bft) W-SW 249 ° 0 min 0,000 mm 0,0 UV-I 7 W/m² 1,2 °C 9,0 °C 3,2 km/h (1 Bft)
13.04.2018 06:52 9,1 °C 58 % 1001,9 hPa 0,0 mm 2,4 km/h (1 Bft) W-SW 249 ° 0 min 0,000 mm 0,0 UV-I 7 W/m² 1,3 °C 9,1 °C 4,8 km/h (1 Bft)
13.04.2018 06:53 9,2 °C 58 % 1002,0 hPa 0,0 mm 0,3 km/h (0 Bft) W-SW 249 ° 0 min 0,000 mm 0,0 UV-I 7 W/m² 1,4 °C 9,2 °C 3,2 km/h (1 Bft)
13.04.2018 06:54 9,2 °C 58 % 1002,1 hPa 0,0 mm 2,1 km/h (1 Bft) W-SW 249 ° 0 min 0,000 mm 0,0 UV-I 9 W/m² 1,4 °C 9,2 °C 4,8 km/h (1 Bft)
13.04.2018 06:55 9,3 °C 58 % 1002,1 hPa 0,0 mm 2,3 km/h (1 Bft) W-SW 249 ° 0 min 0,000 mm 0,0 UV-I 9 W/m² 1,5 °C 9,3 °C 4,8 km/h (1 Bft)
13.04.2018 06:56 9,3 °C 58 % 1002,1 hPa 0,0 mm 0,4 km/h (0 Bft) W-SW 249 ° 0 min 0,000 mm 0,0 UV-I 11 W/m² 1,5 °C 9,3 °C 1,6 km/h (1 Bft)
13.04.2018 06:57 9,3 °C 58 % 1002,1 hPa 0,0 mm 0,0 km/h (0 Bft) W-SW 249 ° 0 min 0,000 mm 0,0 UV-I 11 W/m² 1,5 °C 9,3 °C 0,0 km/h (0 Bft)
13.04.2018 06:58 9,4 °C 59 % 1002,2 hPa 0,0 mm 0,0 km/h (0 Bft) W-SW 249 ° 0 min 0,000 mm 0,0 UV-I 12 W/m² 1,8 °C 9,4 °C 0,0 km/h (0 Bft)
13.04.2018 06:59 9,3 °C 60 % 1002,2 hPa 0,0 mm 1,9 km/h (1 Bft) W-SW 249 ° 0 min 0,000 mm 0,0 UV-I 12 W/m² 1,9 °C 9,3 °C 4,8 km/h (1 Bft)
13.04.2018 07:00 9,3 °C 60 % 1002,2 hPa 0,0 mm 3,2 km/h (1 Bft) W-SW 249 ° 0 min 0,026 mm 0,0 UV-I 14 W/m² 1,9 °C 9,3 °C 4,8 km/h (1 Bft)
13.04.2018 07:01 9,3 °C 60 % 1002,2 hPa 0,0 mm 4,9 km/h (1 Bft) W-SW 248 ° 0 min 0,000 mm 0,0 UV-I 14 W/m² 1,9 °C 9,0 °C 6,4 km/h (2 Bft)
13.04.2018 07:02 9,2 °C 60 % 1002,2 hPa 0,0 mm 3,9 km/h (1 Bft) W-SW 248 ° 0 min 0,000 mm 0,0 UV-I 14 W/m² 1,8 °C 9,2 °C 6,4 km/h (2 Bft)
13.04.2018 07:03 9,2 °C 60 % 1002,2 hPa 0,0 mm 4,8 km/h (1 Bft) W-SW 241 ° 0 min 0,000 mm 0,0 UV-I 16 W/m² 1,8 °C 8,9 °C 9,7 km/h (2 Bft)
13.04.2018 07:04 9,3 °C 59 % 1002,3 hPa 0,0 mm 6,4 km/h (2 Bft) S 185 ° 0 min 0,000 mm 0,0 UV-I 16 W/m² 1,7 °C 8,6 °C 17,7 km/h (3 Bft)
13.04.2018 07:05 9,4 °C 60 % 1002,3 hPa 0,0 mm 4,6 km/h (1 Bft) W-SW 257 ° 0 min 0,000 mm 0,0 UV-I 16 W/m² 2,0 °C 9,2 °C 9,7 km/h (2 Bft)
13.04.2018 07:06 9,5 °C 60 % 1002,4 hPa 0,0 mm 6,1 km/h (2 Bft) W-NW 292 ° 0 min 0,000 mm 0,0 UV-I 16 W/m² 2,1 °C 8,9 °C 12,9 km/h (3 Bft)
13.04.2018 07:07 9,6 °C 59 % 1002,5 hPa 0,0 mm 3,6 km/h (1 Bft) W-NW 288 ° 0 min 0,000 mm 0,0 UV-I 16 W/m² 2,0 °C 9,6 °C 6,4 km/h (2 Bft)
13.04.2018 07:08 9,7 °C 59 % 1002,4 hPa 0,0 mm 5,9 km/h (2 Bft) W-NW 290 ° 0 min 0,000 mm 0,0 UV-I 16 W/m² 2,1 °C 9,2 °C 11,3 km/h (2 Bft)
13.04.2018 07:09 9,7 °C 60 % 1002,5 hPa 0,0 mm 5,0 km/h (1 Bft) W-SW 248 ° 0 min 0,000 mm 0,0 UV-I 16 W/m² 2,3 °C 9,4 °C 6,4 km/h (2 Bft)
13.04.2018 07:10 9,7 °C 62 % 1002,5 hPa 0,0 mm 3,5 km/h (1 Bft) S-SW 209 ° 0 min 0,000 mm 0,0 UV-I 16 W/m² 2,8 °C 9,7 °C 8,0 km/h (2 Bft)
13.04.2018 07:11 9,7 °C 61 % 1002,5 hPa 0,0 mm 7,5 km/h (2 Bft) NW 326 ° 0 min 0,000 mm 0,0 UV-I 16 W/m² 2,5 °C 8,8 °C 12,9 km/h (3 Bft)
13.04.2018 07:12 9,7 °C 61 % 1002,5 hPa 0,0 mm 8,4 km/h (2 Bft) W 273 ° 0 min 0,000 mm 0,0 UV-I 14 W/m² 2,5 °C 8,6 °C 14,5 km/h (3 Bft)
13.04.2018 07:13 9,7 °C 61 % 1002,5 hPa 0,0 mm 9,3 km/h (2 Bft) W 259 ° 0 min 0,000 mm 0,0 UV-I 14 W/m² 2,5 °C 8,4 °C 17,7 km/h (3 Bft)
13.04.2018 07:14 9,7 °C 62 % 1002,5 hPa 0,0 mm 7,7 km/h (2 Bft) W-SW 243 ° 0 min 0,000 mm 0,0 UV-I 14 W/m² 2,8 °C 8,7 °C 14,5 km/h (3 Bft)
13.04.2018 07:15 9,7 °C 62 % 1002,5 hPa 0,0 mm 7,2 km/h (2 Bft) W-SW 256 ° 0 min 0,000 mm 0,0 UV-I 12 W/m² 2,8 °C 8,8 °C 12,9 km/h (3 Bft)
13.04.2018 07:16 9,7 °C 62 % 1002,5 hPa 0,0 mm 14,6 km/h (3 Bft) S-SW 210 ° 0 min 0,000 mm 0,0 UV-I 12 W/m² 2,8 °C 7,6 °C 20,9 km/h (4 Bft)
13.04.2018 07:17 9,7 °C 62 % 1002,5 hPa 0,0 mm 12,4 km/h (3 Bft) SW 224 ° 0 min 0,000 mm 0,0 UV-I 11 W/m² 2,8 °C 7,9 °C 17,7 km/h (3 Bft)
13.04.2018 07:18 9,7 °C 62 % 1002,6 hPa 0,0 mm 6,8 km/h (2 Bft) S-SW 194 ° 0 min 0,000 mm 0,0 UV-I 11 W/m² 2,8 °C 8,9 °C 9,7 km/h (2 Bft)
13.04.2018 07:19 9,7 °C 63 % 1002,6 hPa 0,0 mm 7,7 km/h (2 Bft) S 182 ° 0 min 0,000 mm 0,0 UV-I 11 W/m² 3,0 °C 8,7 °C 14,5 km/h (3 Bft)
13.04.2018 07:20 9,7 °C 62 % 1002,6 hPa 0,0 mm 10,9 km/h (2 Bft) SW 233 ° 0 min 0,000 mm 0,0 UV-I 9 W/m² 2,8 °C 8,1 °C 16,1 km/h (3 Bft)
13.04.2018 07:21 9,7 °C 63 % 1002,7 hPa 0,0 mm 8,1 km/h (2 Bft) SW 216 ° 0 min 0,000 mm 0,0 UV-I 9 W/m² 3,0 °C 8,6 °C 12,9 km/h (3 Bft)
13.04.2018 07:22 9,7 °C 63 % 1002,7 hPa 0,0 mm 7,3 km/h (2 Bft) S-SW 202 ° 0 min 0,000 mm 0,0 UV-I 9 W/m² 3,0 °C 8,8 °C 12,9 km/h (3 Bft)
13.04.2018 07:23 9,7 °C 63 % 1002,7 hPa 0,0 mm 7,2 km/h (2 Bft) SW 217 ° 0 min 0,000 mm 0,0 UV-I 9 W/m² 3,0 °C 8,8 °C 11,3 km/h (2 Bft)
13.04.2018 07:24 9,7 °C 62 % 1002,7 hPa 0,0 mm 7,0 km/h (2 Bft) SW 214 ° 0 min 0,000 mm 0,0 UV-I 9 W/m² 2,8 °C 8,9 °C 12,9 km/h (3 Bft)
13.04.2018 07:25 9,7 °C 63 % 1002,7 hPa 0,0 mm 5,9 km/h (2 Bft) S 180 ° 0 min 0,000 mm 0,0 UV-I 9 W/m² 3,0 °C 9,2 °C 11,3 km/h (2 Bft)
13.04.2018 07:26 9,7 °C 63 % 1002,7 hPa 0,0 mm 4,2 km/h (1 Bft) SW 220 ° 0 min 0,000 mm 0,0 UV-I 9 W/m² 3,0 °C 9,7 °C 4,8 km/h (1 Bft)
13.04.2018 07:27 9,7 °C 64 % 1002,8 hPa 0,0 mm 4,8 km/h (1 Bft) S-SW 202 ° 0 min 0,000 mm 0,0 UV-I 9 W/m² 3,2 °C 9,5 °C 8,0 km/h (2 Bft)
13.04.2018 07:28 9,6 °C 63 % 1002,8 hPa 0,0 mm 6,5 km/h (2 Bft) W 259 ° 0 min 0,000 mm 0,0 UV-I 9 W/m² 2,9 °C 8,9 °C 11,3 km/h (2 Bft)
13.04.2018 07:29 9,6 °C 63 % 1002,8 hPa 0,0 mm 5,1 km/h (1 Bft) SW 226 ° 0 min 0,000 mm 0,0 UV-I 9 W/m² 2,9 °C 9,3 °C 11,3 km/h (2 Bft)
13.04.2018 07:30 9,6 °C 64 % 1002,9 hPa 0,0 mm 4,9 km/h (1 Bft) SW 216 ° 0 min 0,000 mm 0,0 UV-I 11 W/m² 3,1 °C 9,3 °C 8,0 km/h (2 Bft)
13.04.2018 07:31 9,6 °C 64 % 1002,8 hPa 0,0 mm 8,4 km/h (2 Bft) SW 215 ° 0 min 0,000 mm 0,0 UV-I 11 W/m² 3,1 °C 8,5 °C 12,9 km/h (3 Bft)
13.04.2018 07:32 9,6 °C 63 % 1002,9 hPa 0,0 mm 6,5 km/h (2 Bft) SW 221 ° 0 min 0,000 mm 0,0 UV-I 11 W/m² 2,9 °C 8,9 °C 14,5 km/h (3 Bft)
13.04.2018 07:33 9,6 °C 63 % 1002,9 hPa 0,0 mm 4,6 km/h (1 Bft) S 182 ° 0 min 0,000 mm 0,0 UV-I 12 W/m² 2,9 °C 9,4 °C 8,0 km/h (2 Bft)
13.04.2018 07:34 9,7 °C 63 % 1002,9 hPa 0,0 mm 6,2 km/h (2 Bft) W-SW 248 ° 0 min 0,000 mm 0,0 UV-I 12 W/m² 3,0 °C 9,1 °C 11,3 km/h (2 Bft)
13.04.2018 07:35 9,7 °C 63 % 1002,9 hPa 0,0 mm 4,4 km/h (1 Bft) S-SW 213 ° 0 min 0,000 mm 0,0 UV-I 14 W/m² 3,0 °C 9,7 °C 6,4 km/h (2 Bft)
13.04.2018 07:36 9,7 °C 63 % 1002,9 hPa 0,0 mm 3,5 km/h (1 Bft) SW 232 ° 0 min 0,000 mm 0,0 UV-I 14 W/m² 3,0 °C 9,7 °C 4,8 km/h (1 Bft)
13.04.2018 07:37 9,7 °C 63 % 1002,9 hPa 0,0 mm 5,3 km/h (1 Bft) S-SW 193 ° 0 min 0,000 mm 0,0 UV-I 14 W/m² 3,0 °C 9,3 °C 8,0 km/h (2 Bft)
13.04.2018 07:38 9,7 °C 63 % 1002,9 hPa 0,0 mm 3,7 km/h (1 Bft) S-SW 209 ° 0 min 0,000 mm 0,0 UV-I 16 W/m² 3,0 °C 9,7 °C 4,8 km/h (1 Bft)
13.04.2018 07:39 9,6 °C 64 % 1002,9 hPa 0,0 mm 2,5 km/h (1 Bft) S-SW 210 ° 0 min 0,000 mm 0,0 UV-I 18 W/m² 3,1 °C 9,6 °C 4,8 km/h (1 Bft)
13.04.2018 07:40 9,6 °C 65 % 1002,9 hPa 0,0 mm 6,4 km/h (2 Bft) S 188 ° 0 min 0,000 mm 0,0 UV-I 18 W/m² 3,4 °C 8,9 °C 9,7 km/h (2 Bft)
13.04.2018 07:41 9,6 °C 64 % 1003,0 hPa 0,0 mm 12,1 km/h (2 Bft) W-SW 242 ° 0 min 0,000 mm 0,0 UV-I 19 W/m² 3,1 °C 7,8 °C 16,1 km/h (3 Bft)
13.04.2018 07:42 9,6 °C 64 % 1003,0 hPa 0,0 mm 8,2 km/h (2 Bft) W 265 ° 0 min 0,000 mm 0,0 UV-I 23 W/m² 3,1 °C 8,5 °C 12,9 km/h (3 Bft)
13.04.2018 07:43 9,6 °C 64 % 1003,1 hPa 0,0 mm 11,2 km/h (2 Bft) W 263 ° 0 min 0,000 mm 0,0 UV-I 23 W/m² 3,1 °C 8,0 °C 17,7 km/h (3 Bft)
13.04.2018 07:44 9,6 °C 65 % 1003,1 hPa 0,0 mm 7,9 km/h (2 Bft) W-SW 240 ° 0 min 0,000 mm 0,0 UV-I 25 W/m² 3,4 °C 8,6 °C 16,1 km/h (3 Bft)
13.04.2018 07:45 9,6 °C 65 % 1003,1 hPa 0,0 mm 6,2 km/h (2 Bft) W-SW 237 ° 0 min 0,000 mm 0,0 UV-I 26 W/m² 3,4 °C 9,0 °C 9,7 km/h (2 Bft)
13.04.2018 07:46 9,6 °C 65 % 1003,1 hPa 0,0 mm 3,9 km/h (1 Bft) SW 232 ° 0 min 0,000 mm 0,0 UV-I 28 W/m² 3,4 °C 9,6 °C 8,0 km/h (2 Bft)
13.04.2018 07:47 9,6 °C 65 % 1003,1 hPa 0,0 mm 5,2 km/h (1 Bft) W 268 ° 0 min 0,000 mm 0,0 UV-I 32 W/m² 3,4 °C 9,2 °C 12,9 km/h (3 Bft)
13.04.2018 07:48 9,6 °C 66 % 1003,1 hPa 0,0 mm 11,2 km/h (2 Bft) W 270 ° 0 min 0,000 mm 0,0 UV-I 33 W/m² 3,6 °C 8,0 °C 19,3 km/h (3 Bft)
13.04.2018 07:49 9,6 °C 65 % 1003,3 hPa 0,0 mm 6,5 km/h (2 Bft) W-SW 242 ° 0 min 0,000 mm 0,0 UV-I 35 W/m² 3,4 °C 8,9 °C 9,7 km/h (2 Bft)
13.04.2018 07:50 9,6 °C 65 % 1003,2 hPa 0,0 mm 7,5 km/h (2 Bft) W-SW 248 ° 0 min 0,000 mm 0,0 UV-I 35 W/m² 3,4 °C 8,6 °C 12,9 km/h (3 Bft)
13.04.2018 07:51 9,6 °C 65 % 1003,3 hPa 0,0 mm 12,9 km/h (3 Bft) W-SW 246 ° 0 min 0,000 mm 0,0 UV-I 37 W/m² 3,4 °C 7,7 °C 16,1 km/h (3 Bft)
13.04.2018 07:52 9,6 °C 65 % 1003,3 hPa 0,0 mm 6,3 km/h (2 Bft) W-SW 255 ° 0 min 0,000 mm 0,0 UV-I 35 W/m² 3,4 °C 8,9 °C 12,9 km/h (3 Bft)
13.04.2018 07:53 9,6 °C 65 % 1003,4 hPa 0,0 mm 9,6 km/h (2 Bft) W 267 ° 0 min 0,000 mm 0,0 UV-I 33 W/m² 3,4 °C 8,2 °C 14,5 km/h (3 Bft)
13.04.2018 07:54 9,6 °C 65 % 1003,5 hPa 0,0 mm 9,2 km/h (2 Bft) W-SW 248 ° 0 min 0,000 mm 0,0 UV-I 32 W/m² 3,4 °C 8,3 °C 12,9 km/h (3 Bft)
13.04.2018 07:55 9,6 °C 66 % 1003,5 hPa 0,0 mm 5,0 km/h (1 Bft) S 189 ° 0 min 0,000 mm 0,0 UV-I 30 W/m² 3,6 °C 9,3 °C 9,7 km/h (2 Bft)
13.04.2018 07:56 9,6 °C 66 % 1003,4 hPa 0,0 mm 9,3 km/h (2 Bft) W 263 ° 0 min 0,000 mm 0,0 UV-I 28 W/m² 3,6 °C 8,3 °C 19,3 km/h (3 Bft)
13.04.2018 07:57 9,6 °C 66 % 1003,4 hPa 0,0 mm 8,4 km/h (2 Bft) W-SW 239 ° 0 min 0,000 mm 0,0 UV-I 28 W/m² 3,6 °C 8,5 °C 11,3 km/h (2 Bft)
13.04.2018 07:58 9,6 °C 67 % 1003,5 hPa 0,0 mm 7,2 km/h (2 Bft) W 259 ° 0 min 0,000 mm 0,0 UV-I 28 W/m² 3,8 °C 8,7 °C 11,3 km/h (2 Bft)
13.04.2018 07:59 9,5 °C 67 % 1003,5 hPa 0,0 mm 9,8 km/h (2 Bft) W 260 ° 0 min 0,000 mm 0,0 UV-I 26 W/m² 3,7 °C 8,1 °C 12,9 km/h (3 Bft)
13.04.2018 08:00 9,5 °C 67 % 1003,5 hPa 0,0 mm 10,3 km/h (2 Bft) SW 229 ° 0 min 0,051 mm 0,0 UV-I 26 W/m² 3,7 °C 8,0 °C 14,5 km/h (3 Bft)
13.04.2018 08:01 9,4 °C 67 % 1003,5 hPa 0,0 mm 6,4 km/h (2 Bft) W 268 ° 0 min 0,000 mm 0,0 UV-I 28 W/m² 3,6 °C 8,7 °C 12,9 km/h (3 Bft)
13.04.2018 08:02 9,4 °C 67 % 1003,5 hPa 0,0 mm 8,8 km/h (2 Bft) W-NW 282 ° 0 min 0,000 mm 0,0 UV-I 28 W/m² 3,6 °C 8,1 °C 12,9 km/h (3 Bft)
13.04.2018 08:03 9,4 °C 68 % 1003,5 hPa 0,0 mm 7,1 km/h (2 Bft) W-SW 241 ° 0 min 0,000 mm 0,0 UV-I 30 W/m² 3,8 °C 8,5 °C 11,3 km/h (2 Bft)
13.04.2018 08:04 9,4 °C 68 % 1003,6 hPa 0,0 mm 8,0 km/h (2 Bft) W 260 ° 0 min 0,000 mm 0,0 UV-I 30 W/m² 3,8 °C 8,3 °C 11,3 km/h (2 Bft)
13.04.2018 08:05 9,4 °C 68 % 1003,5 hPa 0,0 mm 4,5 km/h (1 Bft) W 259 ° 0 min 0,000 mm 0,0 UV-I 32 W/m² 3,8 °C 9,4 °C 9,7 km/h (2 Bft)
13.04.2018 08:06 9,3 °C 68 % 1003,6 hPa 0,0 mm 7,2 km/h (2 Bft) W 269 ° 0 min 0,000 mm 0,0 UV-I 33 W/m² 3,7 °C 8,4 °C 11,3 km/h (2 Bft)
13.04.2018 08:07 9,3 °C 69 % 1003,5 hPa 0,0 mm 8,0 km/h (2 Bft) W 267 ° 0 min 0,000 mm 0,0 UV-I 33 W/m² 3,9 °C 8,2 °C 14,5 km/h (3 Bft)
13.04.2018 08:08 9,3 °C 69 % 1003,6 hPa 0,0 mm 7,0 km/h (2 Bft) W 273 ° 0 min 0,000 mm 0,0 UV-I 33 W/m² 3,9 °C 8,4 °C 14,5 km/h (3 Bft)
13.04.2018 08:09 9,2 °C 70 % 1003,5 hPa 0,0 mm 9,7 km/h (2 Bft) W-NW 286 ° 0 min 0,000 mm 0,0 UV-I 33 W/m² 4,0 °C 7,7 °C 11,3 km/h (2 Bft)
13.04.2018 08:10 9,2 °C 70 % 1003,5 hPa 0,0 mm 8,7 km/h (2 Bft) W 265 ° 0 min 0,000 mm 0,0 UV-I 35 W/m² 4,0 °C 7,9 °C 14,5 km/h (3 Bft)
13.04.2018 08:11 9,2 °C 69 % 1003,6 hPa 0,0 mm 5,6 km/h (1 Bft) W 272 ° 0 min 0,000 mm 0,0 UV-I 37 W/m² 3,8 °C 8,7 °C 9,7 km/h (2 Bft)
13.04.2018 08:12 9,2 °C 70 % 1003,6 hPa 0,0 mm 2,7 km/h (1 Bft) W 270 ° 0 min 0,000 mm 0,0 UV-I 39 W/m² 4,0 °C 9,2 °C 4,8 km/h (1 Bft)
13.04.2018 08:13 9,1 °C 70 % 1003,6 hPa 0,0 mm 3,6 km/h (1 Bft) SW 229 ° 0 min 0,000 mm 0,0 UV-I 39 W/m² 3,9 °C 9,1 °C 4,8 km/h (1 Bft)
13.04.2018 08:14 9,1 °C 71 % 1003,6 hPa 0,0 mm 1,3 km/h (1 Bft) SW 229 ° 0 min 0,000 mm 0,0 UV-I 40 W/m² 4,1 °C 9,1 °C 4,8 km/h (1 Bft)
13.04.2018 08:15 9,1 °C 71 % 1003,5 hPa 0,0 mm 0,7 km/h (0 Bft) SW 229 ° 0 min 0,000 mm 0,0 UV-I 42 W/m² 4,1 °C 9,1 °C 1,6 km/h (1 Bft)
13.04.2018 08:16 9,0 °C 72 % 1003,5 hPa 0,0 mm 0,9 km/h (0 Bft) W-SW 258 ° 0 min 0,000 mm 0,0 UV-I 44 W/m² 4,2 °C 9,0 °C 3,2 km/h (1 Bft)
13.04.2018 08:17 9,0 °C 72 % 1003,5 hPa 0,0 mm 1,8 km/h (1 Bft) SW 220 ° 0 min 0,000 mm 0,0 UV-I 44 W/m² 4,2 °C 9,0 °C 3,2 km/h (1 Bft)
13.04.2018 08:18 8,9 °C 72 % 1003,4 hPa 0,0 mm 2,5 km/h (1 Bft) SW 218 ° 0 min 0,000 mm 0,0 UV-I 47 W/m² 4,1 °C 8,9 °C 3,2 km/h (1 Bft)
13.04.2018 08:19 8,9 °C 72 % 1003,4 hPa 0,0 mm 2,5 km/h (1 Bft) S-SW 213 ° 0 min 0,000 mm 0,0 UV-I 49 W/m² 4,1 °C 8,9 °C 4,8 km/h (1 Bft)
13.04.2018 08:20 8,9 °C 73 % 1003,3 hPa 0,0 mm 1,0 km/h (0 Bft) S-SW 213 ° 0 min 0,000 mm 0,0 UV-I 51 W/m² 4,3 °C 8,9 °C 1,6 km/h (1 Bft)
13.04.2018 08:21 8,8 °C 75 % 1003,3 hPa 0,0 mm 0,6 km/h (0 Bft) S-SW 213 ° 0 min 0,000 mm 0,0 UV-I 53 W/m² 4,6 °C 8,8 °C 1,6 km/h (1 Bft)
13.04.2018 08:22 8,8 °C 75 % 1003,1 hPa 0,0 mm 0,0 km/h (0 Bft) S-SW 213 ° 0 min 0,000 mm 0,0 UV-I 58 W/m² 4,6 °C 8,8 °C 0,0 km/h (0 Bft)
13.04.2018 08:23 8,7 °C 76 % 1003,1 hPa 0,0 mm 0,0 km/h (0 Bft) S-SW 213 ° 0 min 0,000 mm 0,0 UV-I 63 W/m² 4,7 °C 8,7 °C 0,0 km/h (0 Bft)
13.04.2018 08:24 8,7 °C 76 % 1003,0 hPa 0,0 mm 0,0 km/h (0 Bft) S-SW 213 ° 0 min 0,000 mm 0,0 UV-I 67 W/m² 4,7 °C 8,7 °C 0,0 km/h (0 Bft)
13.04.2018 08:25 8,7 °C 76 % 1003,0 hPa 0,0 mm 0,1 km/h (0 Bft) S-SW 213 ° 0 min 0,000 mm 0,0 UV-I 70 W/m² 4,7 °C 8,7 °C 1,6 km/h (1 Bft)
13.04.2018 08:26 8,7 °C 77 % 1003,1 hPa 0,0 mm 0,3 km/h (0 Bft) S-SW 213 ° 0 min 0,000 mm 0,0 UV-I 76 W/m² 4,9 °C 8,7 °C 1,6 km/h (1 Bft)
13.04.2018 08:27 8,7 °C 77 % 1003,1 hPa 0,0 mm 0,0 km/h (0 Bft) S-SW 213 ° 0 min 0,000 mm 0,0 UV-I 81 W/m² 4,9 °C 8,7 °C 0,0 km/h (0 Bft)
13.04.2018 08:28 8,7 °C 77 % 1003,0 hPa 0,0 mm 0,2 km/h (0 Bft) S-SW 213 ° 0 min 0,000 mm 0,0 UV-I 93 W/m² 4,9 °C 8,7 °C 3,2 km/h (1 Bft)
13.04.2018 08:29 8,7 °C 76 % 1003,0 hPa 0,0 mm 1,9 km/h (1 Bft) S-SW 213 ° 0 min 0,000 mm 0,5 UV-I 98 W/m² 4,7 °C 8,7 °C 3,2 km/h (1 Bft)
13.04.2018 08:30 8,7 °C 76 % 1003,0 hPa 0,0 mm 0,4 km/h (0 Bft) S-SW 213 ° 0 min 0,000 mm 0,5 UV-I 104 W/m² 4,7 °C 8,7 °C 1,6 km/h (1 Bft)
13.04.2018 08:31 8,8 °C 77 % 1003,0 hPa 0,0 mm 0,0 km/h (0 Bft) S-SW 213 ° 0 min 0,000 mm 0,5 UV-I 109 W/m² 5,0 °C 8,8 °C 0,0 km/h (0 Bft)
13.04.2018 08:32 8,8 °C 76 % 1002,9 hPa 0,0 mm 0,0 km/h (0 Bft) S-SW 213 ° 0 min 0,000 mm 0,5 UV-I 113 W/m² 4,8 °C 8,8 °C 0,0 km/h (0 Bft)
13.04.2018 08:33 8,8 °C 74 % 1002,8 hPa 0,0 mm 0,0 km/h (0 Bft) S-SW 213 ° 0 min 0,000 mm 0,6 UV-I 118 W/m² 4,4 °C 8,8 °C 0,0 km/h (0 Bft)
13.04.2018 08:34 8,9 °C 74 % 1002,8 hPa 0,0 mm 0,0 km/h (0 Bft) S-SW 213 ° 0 min 0,000 mm 0,6 UV-I 125 W/m² 4,5 °C 8,9 °C 0,0 km/h (0 Bft)
13.04.2018 08:35 8,9 °C 73 % 1002,8 hPa 0,0 mm 0,0 km/h (0 Bft) S-SW 213 ° 0 min 0,000 mm 0,6 UV-I 128 W/m² 4,3 °C 8,9 °C 0,0 km/h (0 Bft)
13.04.2018 08:36 8,9 °C 74 % 1002,8 hPa 0,0 mm 0,0 km/h (0 Bft) S-SW 213 ° 0 min 0,000 mm 0,6 UV-I 130 W/m² 4,5 °C 8,9 °C 0,0 km/h (0 Bft)
13.04.2018 08:37 8,9 °C 77 % 1002,8 hPa 0,0 mm 0,0 km/h (0 Bft) S-SW 213 ° 0 min 0,000 mm 0,6 UV-I 132 W/m² 5,1 °C 8,9 °C 0,0 km/h (0 Bft)
13.04.2018 08:38 8,9 °C 78 % 1002,8 hPa 0,0 mm 0,0 km/h (0 Bft) S-SW 213 ° 0 min 0,000 mm 0,6 UV-I 134 W/m² 5,3 °C 8,9 °C 0,0 km/h (0 Bft)
13.04.2018 08:39 8,9 °C 77 % 1002,9 hPa 0,0 mm 0,0 km/h (0 Bft) S-SW 213 ° 0 min 0,000 mm 0,6 UV-I 135 W/m² 5,1 °C 8,9 °C 0,0 km/h (0 Bft)
13.04.2018 08:40 9,0 °C 75 % 1003,0 hPa 0,0 mm 0,0 km/h (0 Bft) S-SW 213 ° 0 min 0,000 mm 0,7 UV-I 134 W/m² 4,8 °C 9,0 °C 0,0 km/h (0 Bft)
13.04.2018 08:41 9,0 °C 75 % 1003,0 hPa 0,0 mm 0,0 km/h (0 Bft) S-SW 213 ° 0 min 0,000 mm 0,7 UV-I 134 W/m² 4,8 °C 9,0 °C 0,0 km/h (0 Bft)
13.04.2018 08:42 9,1 °C 75 % 1003,0 hPa 0,0 mm 0,0 km/h (0 Bft) S-SW 213 ° 0 min 0,000 mm 0,7 UV-I 132 W/m² 4,9 °C 9,1 °C 0,0 km/h (0 Bft)
13.04.2018 08:43 9,1 °C 75 % 1003,0 hPa 0,0 mm 0,0 km/h (0 Bft) S-SW 213 ° 0 min 0,000 mm 0,7 UV-I 130 W/m² 4,9 °C 9,1 °C 0,0 km/h (0 Bft)
13.04.2018 08:44 9,2 °C 75 % 1003,0 hPa 0,0 mm 0,0 km/h (0 Bft) S-SW 213 ° 0 min 0,000 mm 0,7 UV-I 128 W/m² 5,0 °C 9,2 °C 0,0 km/h (0 Bft)
13.04.2018 08:45 9,2 °C 75 % 1003,0 hPa 0,0 mm 0,0 km/h (0 Bft) S-SW 213 ° 0 min 0,000 mm 0,7 UV-I 128 W/m² 5,0 °C 9,2 °C 0,0 km/h (0 Bft)
13.04.2018 08:46 9,2 °C 74 % 1003,0 hPa 0,0 mm 0,4 km/h (0 Bft) S-SW 211 ° 0 min 0,000 mm 0,7 UV-I 128 W/m² 4,8 °C 9,2 °C 1,6 km/h (1 Bft)
13.04.2018 08:47 9,2 °C 74 % 1003,0 hPa 0,0 mm 0,1 km/h (0 Bft) S-SW 211 ° 0 min 0,000 mm 0,7 UV-I 128 W/m² 4,8 °C 9,2 °C 1,6 km/h (1 Bft)
13.04.2018 08:48 9,3 °C 74 % 1003,1 hPa 0,0 mm 0,2 km/h (0 Bft) W 266 ° 0 min 0,000 mm 0,8 UV-I 132 W/m² 4,9 °C 9,3 °C 1,6 km/h (1 Bft)
13.04.2018 08:49 9,3 °C 76 % 1003,0 hPa 0,0 mm 0,7 km/h (0 Bft) N-NW 328 ° 0 min 0,000 mm 0,8 UV-I 134 W/m² 5,3 °C 9,3 °C 3,2 km/h (1 Bft)
13.04.2018 08:50 9,4 °C 73 % 1003,0 hPa 0,0 mm 0,1 km/h (0 Bft) N-NW 328 ° 0 min 0,000 mm 0,8 UV-I 139 W/m² 4,8 °C 9,4 °C 1,6 km/h (1 Bft)
13.04.2018 08:51 9,4 °C 73 % 1003,1 hPa 0,0 mm 2,3 km/h (1 Bft) N-NW 331 ° 0 min 0,000 mm 0,8 UV-I 153 W/m² 4,8 °C 9,4 °C 6,4 km/h (2 Bft)
13.04.2018 08:52 9,6 °C 73 % 1003,0 hPa 0,0 mm 3,2 km/h (1 Bft) N-NW 331 ° 0 min 0,000 mm 0,9 UV-I 151 W/m² 5,0 °C 9,6 °C 4,8 km/h (1 Bft)
13.04.2018 08:53 9,6 °C 74 % 1003,1 hPa 0,0 mm 2,3 km/h (1 Bft) W-NW 285 ° 0 min 0,000 mm 0,9 UV-I 153 W/m² 5,2 °C 9,6 °C 6,4 km/h (2 Bft)
13.04.2018 08:54 9,7 °C 72 % 1003,1 hPa 0,0 mm 3,3 km/h (1 Bft) W-NW 283 ° 0 min 0,000 mm 0,9 UV-I 156 W/m² 4,9 °C 9,7 °C 6,4 km/h (2 Bft)
13.04.2018 08:55 9,8 °C 73 % 1003,1 hPa 0,0 mm 0,5 km/h (0 Bft) W-NW 290 ° 0 min 0,000 mm 0,9 UV-I 158 W/m² 5,2 °C 9,8 °C 3,2 km/h (1 Bft)
13.04.2018 08:56 9,8 °C 72 % 1003,1 hPa 0,0 mm 2,7 km/h (1 Bft) W-NW 298 ° 0 min 0,000 mm 0,9 UV-I 160 W/m² 5,0 °C 9,8 °C 3,2 km/h (1 Bft)
13.04.2018 08:57 9,9 °C 71 % 1003,1 hPa 0,0 mm 1,3 km/h (1 Bft) NW 304 ° 0 min 0,000 mm 1,0 UV-I 162 W/m² 4,9 °C 9,9 °C 3,2 km/h (1 Bft)
13.04.2018 08:58 9,9 °C 71 % 1003,0 hPa 0,0 mm 1,0 km/h (0 Bft) NW 309 ° 0 min 0,000 mm 1,0 UV-I 171 W/m² 4,9 °C 9,9 °C 3,2 km/h (1 Bft)
13.04.2018 08:59 9,9 °C 70 % 1003,0 hPa 0,0 mm 3,2 km/h (1 Bft) NW 318 ° 0 min 0,000 mm 1,0 UV-I 171 W/m² 4,7 °C 9,9 °C 6,4 km/h (2 Bft)
13.04.2018 09:00 10,0 °C 70 % 1002,9 hPa 0,0 mm 1,0 km/h (0 Bft) NW 319 ° 0 min 0,000 mm 1,0 UV-I 167 W/m² 4,8 °C 10,0 °C 3,2 km/h (1 Bft)
13.04.2018 09:01 10,1 °C 69 % 1002,9 hPa 0,0 mm 1,0 km/h (0 Bft) NW 318 ° 0 min 0,050 mm 1,0 UV-I 162 W/m² 4,7 °C 10,1 °C 3,2 km/h (1 Bft)
13.04.2018 09:02 10,1 °C 69 % 1002,8 hPa 0,0 mm 0,8 km/h (0 Bft) NW 318 ° 0 min 0,000 mm 1,0 UV-I 158 W/m² 4,7 °C 10,1 °C 3,2 km/h (1 Bft)
13.04.2018 09:03 10,2 °C 69 % 1002,7 hPa 0,0 mm 3,0 km/h (1 Bft) NW 318 ° 0 min 0,000 mm 1,0 UV-I 155 W/m² 4,8 °C 10,2 °C 3,2 km/h (1 Bft)
13.04.2018 09:04 10,2 °C 70 % 1002,7 hPa 0,0 mm 2,4 km/h (1 Bft) NW 319 ° 0 min 0,000 mm 1,1 UV-I 155 W/m² 5,0 °C 10,2 °C 3,2 km/h (1 Bft)
13.04.2018 09:05 10,3 °C 68 % 1002,6 hPa 0,0 mm 0,5 km/h (0 Bft) NW 318 ° 0 min 0,000 mm 1,1 UV-I 158 W/m² 4,7 °C 10,3 °C 1,6 km/h (1 Bft)
13.04.2018 09:06 10,3 °C 67 % 1002,6 hPa 0,0 mm 0,0 km/h (0 Bft) NW 319 ° 0 min 0,000 mm 1,1 UV-I 165 W/m² 4,4 °C 10,3 °C 0,0 km/h (0 Bft)
13.04.2018 09:07 10,3 °C 66 % 1002,6 hPa 0,0 mm 0,3 km/h (0 Bft) NW 318 ° 0 min 0,000 mm 1,2 UV-I 176 W/m² 4,2 °C 10,3 °C 1,6 km/h (1 Bft)
13.04.2018 09:08 10,3 °C 68 % 1002,5 hPa 0,0 mm 0,3 km/h (0 Bft) NW 319 ° 0 min 0,000 mm 1,1 UV-I 169 W/m² 4,7 °C 10,3 °C 1,6 km/h (1 Bft)
13.04.2018 09:09 10,4 °C 68 % 1002,5 hPa 0,0 mm 0,0 km/h (0 Bft) NW 318 ° 0 min 0,000 mm 1,1 UV-I 148 W/m² 4,8 °C 10,4 °C 0,0 km/h (0 Bft)
13.04.2018 09:10 10,4 °C 67 % 1002,5 hPa 0,0 mm 0,0 km/h (0 Bft) NW 318 ° 0 min 0,000 mm 1,1 UV-I 142 W/m² 4,5 °C 10,4 °C 0,0 km/h (0 Bft)
13.04.2018 09:11 10,4 °C 66 % 1002,5 hPa 0,0 mm 0,0 km/h (0 Bft) NW 318 ° 0 min 0,000 mm 1,1 UV-I 137 W/m² 4,3 °C 10,4 °C 0,0 km/h (0 Bft)
13.04.2018 09:12 10,4 °C 67 % 1002,5 hPa 0,0 mm 0,0 km/h (0 Bft) NW 318 ° 0 min 0,000 mm 1,1 UV-I 134 W/m² 4,5 °C 10,4 °C 0,0 km/h (0 Bft)
13.04.2018 09:13 10,4 °C 66 % 1002,5 hPa 0,0 mm 0,0 km/h (0 Bft) NW 318 ° 0 min 0,000 mm 1,1 UV-I 130 W/m² 4,3 °C 10,4 °C 0,0 km/h (0 Bft)
13.04.2018 09:14 10,4 °C 67 % 1002,5 hPa 0,0 mm 0,3 km/h (0 Bft) NW 318 ° 0 min 0,000 mm 1,1 UV-I 127 W/m² 4,5 °C 10,4 °C 1,6 km/h (1 Bft)
13.04.2018 09:15 10,4 °C 66 % 1002,5 hPa 0,0 mm 1,4 km/h (1 Bft) NW 318 ° 0 min 0,000 mm 1,1 UV-I 121 W/m² 4,3 °C 10,4 °C 1,6 km/h (1 Bft)
13.04.2018 09:16 10,4 °C 67 % 1002,4 hPa 0,0 mm 0,2 km/h (0 Bft) NW 318 ° 0 min 0,000 mm 1,1 UV-I 120 W/m² 4,5 °C 10,4 °C 1,6 km/h (1 Bft)
13.04.2018 09:17 10,4 °C 65 % 1002,4 hPa 0,0 mm 0,0 km/h (0 Bft) NW 318 ° 0 min 0,000 mm 1,1 UV-I 118 W/m² 4,1 °C 10,4 °C 0,0 km/h (0 Bft)
13.04.2018 09:18 10,4 °C 66 % 1002,4 hPa 0,0 mm 0,0 km/h (0 Bft) NW 319 ° 0 min 0,000 mm 1,0 UV-I 116 W/m² 4,3 °C 10,4 °C 0,0 km/h (0 Bft)
13.04.2018 09:19 10,4 °C 65 % 1002,3 hPa 0,0 mm 0,1 km/h (0 Bft) NW 318 ° 0 min 0,000 mm 1,0 UV-I 113 W/m² 4,1 °C 10,4 °C 1,6 km/h (1 Bft)
13.04.2018 09:20 10,4 °C 65 % 1002,3 hPa 0,0 mm 0,9 km/h (0 Bft) NW 318 ° 0 min 0,000 mm 1,0 UV-I 111 W/m² 4,1 °C 10,4 °C 1,6 km/h (1 Bft)
13.04.2018 09:21 10,4 °C 66 % 1002,3 hPa 0,0 mm 1,5 km/h (1 Bft) NW 318 ° 0 min 0,000 mm 1,0 UV-I 109 W/m² 4,3 °C 10,4 °C 3,2 km/h (1 Bft)
13.04.2018 09:22 10,4 °C 65 % 1002,3 hPa 0,0 mm 2,1 km/h (1 Bft) NW 319 ° 0 min 0,000 mm 1,0 UV-I 109 W/m² 4,1 °C 10,4 °C 3,2 km/h (1 Bft)
13.04.2018 09:23 10,4 °C 66 % 1002,3 hPa 0,0 mm 1,9 km/h (1 Bft) NW 318 ° 0 min 0,000 mm 1,0 UV-I 111 W/m² 4,3 °C 10,4 °C 3,2 km/h (1 Bft)
13.04.2018 09:24 10,4 °C 65 % 1002,3 hPa 0,0 mm 1,9 km/h (1 Bft) NW 318 ° 0 min 0,000 mm 1,0 UV-I 113 W/m² 4,1 °C 10,4 °C 3,2 km/h (1 Bft)
13.04.2018 09:25 10,4 °C 66 % 1002,3 hPa 0,0 mm 0,3 km/h (0 Bft) NW 318 ° 0 min 0,000 mm 1,0 UV-I 114 W/m² 4,3 °C 10,4 °C 1,6 km/h (1 Bft)
13.04.2018 09:26 10,4 °C 65 % 1002,3 hPa 0,0 mm 0,0 km/h (0 Bft) NW 318 ° 0 min 0,000 mm 1,0 UV-I 116 W/m² 4,1 °C 10,4 °C 0,0 km/h (0 Bft)
13.04.2018 09:27 10,4 °C 64 % 1002,4 hPa 0,0 mm 0,0 km/h (0 Bft) NW 319 ° 0 min 0,000 mm 1,0 UV-I 120 W/m² 3,9 °C 10,4 °C 0,0 km/h (0 Bft)
13.04.2018 09:28 10,4 °C 65 % 1002,4 hPa 0,0 mm 0,0 km/h (0 Bft) NW 318 ° 0 min 0,000 mm 1,0 UV-I 121 W/m² 4,1 °C 10,4 °C 0,0 km/h (0 Bft)
13.04.2018 09:29 10,4 °C 68 % 1002,5 hPa 0,0 mm 0,0 km/h (0 Bft) NW 318 ° 0 min 0,000 mm 1,0 UV-I 123 W/m² 4,8 °C 10,4 °C 0,0 km/h (0 Bft)
13.04.2018 09:30 10,4 °C 65 % 1002,6 hPa 0,0 mm 0,3 km/h (0 Bft) NW 318 ° 0 min 0,000 mm 1,0 UV-I 125 W/m² 4,1 °C 10,4 °C 1,6 km/h (1 Bft)
13.04.2018 09:31 10,4 °C 65 % 1002,6 hPa 0,0 mm 1,0 km/h (0 Bft) NW 318 ° 0 min 0,000 mm 1,0 UV-I 127 W/m² 4,1 °C 10,4 °C 3,2 km/h (1 Bft)
13.04.2018 09:32 10,4 °C 67 % 1002,7 hPa 0,0 mm 2,1 km/h (1 Bft) NW 318 ° 0 min 0,000 mm 1,0 UV-I 130 W/m² 4,5 °C 10,4 °C 3,2 km/h (1 Bft)
13.04.2018 09:33 10,5 °C 68 % 1002,8 hPa 0,0 mm 1,9 km/h (1 Bft) NW 318 ° 0 min 0,000 mm 1,0 UV-I 134 W/m² 4,8 °C 10,5 °C 3,2 km/h (1 Bft)
13.04.2018 09:34 10,5 °C 67 % 1002,8 hPa 0,0 mm 0,0 km/h (0 Bft) NW 318 ° 0 min 0,000 mm 1,0 UV-I 135 W/m² 4,6 °C 10,5 °C 0,0 km/h (0 Bft)
13.04.2018 09:35 10,6 °C 68 % 1002,8 hPa 0,0 mm 0,0 km/h (0 Bft) NW 318 ° 0 min 0,000 mm 1,0 UV-I 137 W/m² 4,9 °C 10,6 °C 0,0 km/h (0 Bft)
13.04.2018 09:36 10,6 °C 69 % 1002,9 hPa 0,0 mm 0,0 km/h (0 Bft) NW 318 ° 0 min 0,000 mm 1,0 UV-I 141 W/m² 5,2 °C 10,6 °C 0,0 km/h (0 Bft)
13.04.2018 09:37 10,7 °C 69 % 1002,9 hPa 0,0 mm 0,0 km/h (0 Bft) NW 318 ° 0 min 0,000 mm 1,0 UV-I 144 W/m² 5,2 °C 10,7 °C 0,0 km/h (0 Bft)
13.04.2018 09:38 10,7 °C 68 % 1002,9 hPa 0,0 mm 1,7 km/h (1 Bft) NW 306 ° 0 min 0,000 mm 1,1 UV-I 153 W/m² 5,0 °C 10,7 °C 4,8 km/h (1 Bft)
13.04.2018 09:39 10,7 °C 67 % 1002,9 hPa 0,0 mm 3,6 km/h (1 Bft) W 266 ° 0 min 0,000 mm 1,1 UV-I 156 W/m² 4,8 °C 10,7 °C 4,8 km/h (1 Bft)
13.04.2018 09:40 10,7 °C 63 % 1002,9 hPa 0,0 mm 3,4 km/h (1 Bft) W 259 ° 0 min 0,000 mm 1,1 UV-I 160 W/m² 3,9 °C 10,7 °C 4,8 km/h (1 Bft)
13.04.2018 09:41 10,7 °C 63 % 1002,9 hPa 0,0 mm 3,7 km/h (1 Bft) W-SW 252 ° 0 min 0,000 mm 1,1 UV-I 165 W/m² 3,9 °C 10,7 °C 4,8 km/h (1 Bft)
13.04.2018 09:42 10,7 °C 64 % 1002,9 hPa 0,0 mm 4,3 km/h (1 Bft) W-SW 258 ° 0 min 0,000 mm 1,1 UV-I 169 W/m² 4,2 °C 10,7 °C 6,4 km/h (2 Bft)
13.04.2018 09:43 10,7 °C 63 % 1002,9 hPa 0,0 mm 4,9 km/h (1 Bft) S-SW 202 ° 0 min 0,000 mm 1,2 UV-I 174 W/m² 3,9 °C 10,7 °C 8,0 km/h (2 Bft)
13.04.2018 09:44 10,7 °C 63 % 1002,9 hPa 0,0 mm 3,6 km/h (1 Bft) SW 221 ° 0 min 0,000 mm 1,2 UV-I 185 W/m² 3,9 °C 10,7 °C 8,0 km/h (2 Bft)
13.04.2018 09:45 10,8 °C 64 % 1002,9 hPa 0,0 mm 2,0 km/h (1 Bft) S-SW 213 ° 0 min 0,000 mm 1,2 UV-I 192 W/m² 4,3 °C 10,8 °C 4,8 km/h (1 Bft)
13.04.2018 09:46 10,7 °C 64 % 1002,9 hPa 0,0 mm 5,0 km/h (1 Bft) S-SW 209 ° 0 min 0,000 mm 1,3 UV-I 200 W/m² 4,2 °C 10,7 °C 6,4 km/h (2 Bft)
13.04.2018 09:47 10,8 °C 64 % 1002,9 hPa 0,0 mm 1,1 km/h (1 Bft) S-SW 209 ° 0 min 0,000 mm 1,3 UV-I 207 W/m² 4,3 °C 10,8 °C 3,2 km/h (1 Bft)
13.04.2018 09:48 10,8 °C 64 % 1003,0 hPa 0,0 mm 4,0 km/h (1 Bft) W-SW 241 ° 0 min 0,000 mm 1,3 UV-I 218 W/m² 4,3 °C 10,8 °C 6,4 km/h (2 Bft)
13.04.2018 09:49 10,8 °C 66 % 1003,0 hPa 0,0 mm 6,3 km/h (2 Bft) W 269 ° 0 min 0,000 mm 1,4 UV-I 225 W/m² 4,7 °C 10,8 °C 12,9 km/h (3 Bft)
13.04.2018 09:50 10,9 °C 65 % 1003,0 hPa 0,0 mm 6,1 km/h (2 Bft) SW 223 ° 0 min 0,000 mm 1,4 UV-I 246 W/m² 4,6 °C 10,9 °C 9,7 km/h (2 Bft)
13.04.2018 09:51 10,9 °C 64 % 1003,1 hPa 0,0 mm 3,8 km/h (1 Bft) W 270 ° 0 min 0,000 mm 1,5 UV-I 258 W/m² 4,4 °C 10,9 °C 6,4 km/h (2 Bft)
13.04.2018 09:52 11,0 °C 66 % 1003,1 hPa 0,0 mm 3,4 km/h (1 Bft) W-SW 250 ° 0 min 0,000 mm 1,6 UV-I 269 W/m² 4,9 °C 11,0 °C 4,8 km/h (1 Bft)
13.04.2018 09:53 11,0 °C 63 % 1003,1 hPa 0,0 mm 3,5 km/h (1 Bft) SW 235 ° 1 min 0,000 mm 1,7 UV-I 295 W/m² 4,2 °C 11,0 °C 4,8 km/h (1 Bft)
13.04.2018 09:54 11,1 °C 65 % 1003,1 hPa 0,0 mm 3,3 km/h (1 Bft) W-SW 244 ° 1 min 0,000 mm 1,7 UV-I 309 W/m² 4,8 °C 11,1 °C 4,8 km/h (1 Bft)
13.04.2018 09:55 11,2 °C 64 % 1003,1 hPa 0,0 mm 5,3 km/h (1 Bft) SW 231 ° 1 min 0,000 mm 1,8 UV-I 308 W/m² 4,6 °C 11,2 °C 9,7 km/h (2 Bft)
13.04.2018 09:56 11,3 °C 63 % 1003,1 hPa 0,0 mm 2,1 km/h (1 Bft) SW 231 ° 1 min 0,000 mm 1,9 UV-I 404 W/m² 4,5 °C 11,3 °C 3,2 km/h (1 Bft)
13.04.2018 09:57 11,3 °C 65 % 1003,1 hPa 0,0 mm 3,2 km/h (1 Bft) W 263 ° 1 min 0,000 mm 2,1 UV-I 401 W/m² 5,0 °C 11,3 °C 4,8 km/h (1 Bft)
13.04.2018 09:58 11,5 °C 66 % 1003,2 hPa 0,0 mm 3,2 km/h (1 Bft) W 266 ° 1 min 0,000 mm 2,1 UV-I 392 W/m² 5,4 °C 11,5 °C 4,8 km/h (1 Bft)
13.04.2018 09:59 11,6 °C 63 % 1003,2 hPa 0,0 mm 4,1 km/h (1 Bft) W 275 ° 1 min 0,000 mm 2,2 UV-I 411 W/m² 4,8 °C 11,6 °C 6,4 km/h (2 Bft)
13.04.2018 10:00 11,7 °C 66 % 1003,3 hPa 0,0 mm 5,7 km/h (1 Bft) W 269 ° 1 min 0,000 mm 2,2 UV-I 401 W/m² 5,6 °C 11,7 °C 9,7 km/h (2 Bft)
13.04.2018 10:01 11,8 °C 64 % 1003,3 hPa 0,0 mm 8,2 km/h (2 Bft) W 277 ° 1 min 0,102 mm 2,3 UV-I 432 W/m² 5,2 °C 11,8 °C 11,3 km/h (2 Bft)
13.04.2018 10:02 11,8 °C 64 % 1003,4 hPa 0,0 mm 3,7 km/h (1 Bft) W 268 ° 1 min 0,000 mm 2,2 UV-I 436 W/m² 5,2 °C 11,8 °C 6,4 km/h (2 Bft)
13.04.2018 10:03 11,7 °C 63 % 1003,4 hPa 0,0 mm 6,0 km/h (2 Bft) W 279 ° 1 min 0,000 mm 2,3 UV-I 417 W/m² 4,9 °C 11,7 °C 9,7 km/h (2 Bft)
13.04.2018 10:04 11,8 °C 64 % 1003,4 hPa 0,0 mm 3,5 km/h (1 Bft) S-SW 200 ° 1 min 0,000 mm 2,4 UV-I 434 W/m² 5,2 °C 11,8 °C 6,4 km/h (2 Bft)
13.04.2018 10:05 11,8 °C 64 % 1003,5 hPa 0,0 mm 6,9 km/h (2 Bft) SW 234 ° 1 min 0,000 mm 2,6 UV-I 482 W/m² 5,2 °C 11,8 °C 12,9 km/h (3 Bft)
13.04.2018 10:06 11,9 °C 67 % 1003,5 hPa 0,0 mm 8,7 km/h (2 Bft) NW 318 ° 1 min 0,000 mm 2,6 UV-I 468 W/m² 6,0 °C 11,9 °C 12,9 km/h (3 Bft)
13.04.2018 10:07 11,9 °C 65 % 1003,5 hPa 0,0 mm 5,4 km/h (1 Bft) W-NW 288 ° 1 min 0,000 mm 2,7 UV-I 503 W/m² 5,5 °C 11,9 °C 6,4 km/h (2 Bft)
13.04.2018 10:08 11,9 °C 63 % 1003,5 hPa 0,0 mm 4,9 km/h (1 Bft) W 279 ° 1 min 0,000 mm 2,8 UV-I 538 W/m² 5,1 °C 11,9 °C 6,4 km/h (2 Bft)
13.04.2018 10:09 11,9 °C 63 % 1003,5 hPa 0,0 mm 4,6 km/h (1 Bft) NW 304 ° 1 min 0,000 mm 2,7 UV-I 573 W/m² 5,1 °C 11,9 °C 8,0 km/h (2 Bft)
13.04.2018 10:10 12,0 °C 66 % 1003,5 hPa 0,0 mm 7,2 km/h (2 Bft) W-NW 297 ° 1 min 0,000 mm 2,8 UV-I 520 W/m² 5,8 °C 12,0 °C 12,9 km/h (3 Bft)
13.04.2018 10:11 12,1 °C 62 % 1003,5 hPa 0,0 mm 5,7 km/h (1 Bft) NW 309 ° 1 min 0,000 mm 2,8 UV-I 513 W/m² 5,0 °C 12,1 °C 11,3 km/h (2 Bft)
13.04.2018 10:12 12,1 °C 63 % 1003,5 hPa 0,0 mm 10,4 km/h (2 Bft) W 281 ° 1 min 0,000 mm 2,7 UV-I 478 W/m² 5,3 °C 12,1 °C 14,5 km/h (3 Bft)
13.04.2018 10:13 12,1 °C 64 % 1003,5 hPa 0,0 mm 11,1 km/h (2 Bft) W 263 ° 1 min 0,000 mm 2,6 UV-I 506 W/m² 5,5 °C 12,1 °C 14,5 km/h (3 Bft)
13.04.2018 10:14 12,1 °C 61 % 1003,4 hPa 0,0 mm 12,9 km/h (3 Bft) W-NW 288 ° 1 min 0,000 mm 2,7 UV-I 508 W/m² 4,8 °C 12,1 °C 19,3 km/h (3 Bft)
13.04.2018 10:15 12,1 °C 61 % 1003,4 hPa 0,0 mm 14,0 km/h (3 Bft) W 273 ° 1 min 0,000 mm 2,7 UV-I 462 W/m² 4,8 °C 12,1 °C 19,3 km/h (3 Bft)
13.04.2018 10:16 12,1 °C 61 % 1003,4 hPa 0,0 mm 7,2 km/h (2 Bft) W-SW 258 ° 1 min 0,000 mm 2,8 UV-I 517 W/m² 4,8 °C 12,1 °C 12,9 km/h (3 Bft)
13.04.2018 10:17 12,1 °C 62 % 1003,4 hPa 0,0 mm 8,7 km/h (2 Bft) W 278 ° 1 min 0,000 mm 3,0 UV-I 531 W/m² 5,0 °C 12,1 °C 12,9 km/h (3 Bft)
13.04.2018 10:18 12,2 °C 64 % 1003,5 hPa 0,0 mm 11,1 km/h (2 Bft) NW 320 ° 1 min 0,000 mm 2,9 UV-I 566 W/m² 5,6 °C 12,2 °C 17,7 km/h (3 Bft)
13.04.2018 10:19 12,2 °C 61 % 1003,4 hPa 0,0 mm 13,8 km/h (3 Bft) NW 318 ° 1 min 0,000 mm 2,9 UV-I 517 W/m² 4,9 °C 12,2 °C 20,9 km/h (4 Bft)
13.04.2018 10:20 12,3 °C 60 % 1003,5 hPa 0,0 mm 17,0 km/h (3 Bft) W 273 ° 1 min 0,000 mm 3,0 UV-I 555 W/m² 4,8 °C 12,3 °C 25,7 km/h (4 Bft)
13.04.2018 10:21 12,4 °C 60 % 1003,5 hPa 0,0 mm 15,6 km/h (3 Bft) W 273 ° 1 min 0,000 mm 2,9 UV-I 510 W/m² 4,9 °C 12,4 °C 19,3 km/h (3 Bft)
13.04.2018 10:22 12,4 °C 59 % 1003,5 hPa 0,0 mm 17,6 km/h (3 Bft) W-SW 253 ° 1 min 0,000 mm 2,9 UV-I 494 W/m² 4,6 °C 12,4 °C 24,1 km/h (4 Bft)
13.04.2018 10:23 12,4 °C 58 % 1003,5 hPa 0,0 mm 13,7 km/h (3 Bft) W 265 ° 1 min 0,000 mm 3,2 UV-I 494 W/m² 4,4 °C 12,4 °C 20,9 km/h (4 Bft)
13.04.2018 10:24 12,4 °C 58 % 1003,5 hPa 0,0 mm 14,6 km/h (3 Bft) W 271 ° 1 min 0,000 mm 2,9 UV-I 494 W/m² 4,4 °C 12,4 °C 19,3 km/h (3 Bft)
13.04.2018 10:25 12,4 °C 56 % 1003,5 hPa 0,0 mm 14,6 km/h (3 Bft) W-NW 285 ° 1 min 0,000 mm 2,3 UV-I 494 W/m² 3,9 °C 12,4 °C 24,1 km/h (4 Bft)
13.04.2018 10:26 12,4 °C 57 % 1003,5 hPa 0,0 mm 9,5 km/h (2 Bft) NW 312 ° 1 min 0,000 mm 2,4 UV-I 323 W/m² 4,1 °C 12,4 °C 20,9 km/h (4 Bft)
13.04.2018 10:27 12,4 °C 57 % 1003,5 hPa 0,0 mm 16,3 km/h (3 Bft) W 277 ° 1 min 0,000 mm 2,9 UV-I 323 W/m² 4,1 °C 12,4 °C 24,1 km/h (4 Bft)
13.04.2018 10:28 12,4 °C 56 % 1003,5 hPa 0,0 mm 16,4 km/h (3 Bft) W 281 ° 1 min 0,000 mm 2,6 UV-I 397 W/m² 3,9 °C 12,4 °C 22,5 km/h (4 Bft)
13.04.2018 10:29 12,4 °C 55 % 1003,5 hPa 0,0 mm 18,5 km/h (3 Bft) W 261 ° 1 min 0,000 mm 3,1 UV-I 490 W/m² 3,6 °C 12,4 °C 25,7 km/h (4 Bft)
13.04.2018 10:30 12,4 °C 57 % 1003,6 hPa 0,0 mm 19,2 km/h (3 Bft) W 263 ° 1 min 0,000 mm 3,3 UV-I 490 W/m² 4,1 °C 12,4 °C 24,1 km/h (4 Bft)
13.04.2018 10:31 12,4 °C 55 % 1003,6 hPa 0,0 mm 17,7 km/h (3 Bft) W 263 ° 1 min 0,000 mm 3,2 UV-I 594 W/m² 3,6 °C 12,4 °C 22,5 km/h (4 Bft)
13.04.2018 10:32 12,5 °C 57 % 1003,5 hPa 0,0 mm 14,3 km/h (3 Bft) W-NW 297 ° 1 min 0,000 mm 2,6 UV-I 454 W/m² 4,2 °C 12,5 °C 19,3 km/h (3 Bft)
13.04.2018 10:33 12,5 °C 55 % 1003,6 hPa 0,0 mm 14,9 km/h (3 Bft) W-SW 257 ° 1 min 0,000 mm 2,8 UV-I 399 W/m² 3,7 °C 12,5 °C 17,7 km/h (3 Bft)
13.04.2018 10:34 12,5 °C 56 % 1003,6 hPa 0,0 mm 13,0 km/h (3 Bft) W-NW 288 ° 1 min 0,000 mm 3,3 UV-I 399 W/m² 4,0 °C 12,5 °C 16,1 km/h (3 Bft)
13.04.2018 10:35 12,5 °C 57 % 1003,6 hPa 0,0 mm 7,3 km/h (2 Bft) NW 309 ° 1 min 0,000 mm 3,4 UV-I 649 W/m² 4,2 °C 12,5 °C 11,3 km/h (2 Bft)
13.04.2018 10:36 12,7 °C 57 % 1003,6 hPa 0,0 mm 13,1 km/h (3 Bft) W 274 ° 1 min 0,000 mm 3,3 UV-I 617 W/m² 4,4 °C 12,7 °C 19,3 km/h (3 Bft)
13.04.2018 10:37 12,7 °C 56 % 1003,6 hPa 0,0 mm 15,9 km/h (3 Bft) W-NW 296 ° 1 min 0,000 mm 3,3 UV-I 571 W/m² 4,2 °C 12,7 °C 20,9 km/h (4 Bft)
13.04.2018 10:38 12,7 °C 55 % 1003,6 hPa 0,0 mm 16,0 km/h (3 Bft) W-NW 291 ° 1 min 0,000 mm 2,8 UV-I 571 W/m² 3,9 °C 12,7 °C 25,7 km/h (4 Bft)
13.04.2018 10:39 12,7 °C 56 % 1003,6 hPa 0,0 mm 13,2 km/h (3 Bft) SW 234 ° 1 min 0,000 mm 2,5 UV-I 571 W/m² 4,2 °C 12,7 °C 19,3 km/h (3 Bft)
13.04.2018 10:40 12,6 °C 52 % 1003,7 hPa 0,0 mm 12,9 km/h (3 Bft) W 271 ° 1 min 0,000 mm 3,0 UV-I 376 W/m² 3,0 °C 12,6 °C 19,3 km/h (3 Bft)
13.04.2018 10:41 12,6 °C 54 % 1003,7 hPa 0,0 mm 12,8 km/h (3 Bft) W-SW 250 ° 1 min 0,000 mm 3,2 UV-I 376 W/m² 3,5 °C 12,6 °C 20,9 km/h (4 Bft)
13.04.2018 10:42 12,6 °C 54 % 1003,7 hPa 0,0 mm 12,8 km/h (3 Bft) W-NW 299 ° 1 min 0,000 mm 3,3 UV-I 540 W/m² 3,5 °C 12,6 °C 20,9 km/h (4 Bft)
13.04.2018 10:43 12,6 °C 54 % 1003,7 hPa 0,0 mm 10,2 km/h (2 Bft) NW 311 ° 1 min 0,000 mm 3,2 UV-I 512 W/m² 3,5 °C 12,6 °C 14,5 km/h (3 Bft)
13.04.2018 10:44 12,7 °C 54 % 1003,7 hPa 0,0 mm 10,8 km/h (2 Bft) W-SW 257 ° 1 min 0,000 mm 3,1 UV-I 575 W/m² 3,6 °C 12,7 °C 16,1 km/h (3 Bft)
13.04.2018 10:45 12,7 °C 55 % 1003,8 hPa 0,0 mm 16,1 km/h (3 Bft) W 281 ° 1 min 0,000 mm 3,1 UV-I 522 W/m² 3,9 °C 12,7 °C 19,3 km/h (3 Bft)
13.04.2018 10:46 12,8 °C 54 % 1003,8 hPa 0,0 mm 12,1 km/h (2 Bft) S-SW 194 ° 1 min 0,000 mm 3,2 UV-I 485 W/m² 3,7 °C 12,8 °C 17,7 km/h (3 Bft)
13.04.2018 10:47 12,8 °C 56 % 1003,8 hPa 0,0 mm 10,4 km/h (2 Bft) W-NW 300 ° 1 min 0,000 mm 3,2 UV-I 515 W/m² 4,2 °C 12,8 °C 16,1 km/h (3 Bft)
13.04.2018 10:48 12,7 °C 53 % 1003,8 hPa 0,0 mm 12,9 km/h (3 Bft) W-NW 288 ° 1 min 0,000 mm 2,9 UV-I 485 W/m² 3,4 °C 12,7 °C 19,3 km/h (3 Bft)
13.04.2018 10:49 12,7 °C 53 % 1003,8 hPa 0,0 mm 11,7 km/h (2 Bft) W-NW 286 ° 1 min 0,000 mm 3,0 UV-I 475 W/m² 3,4 °C 12,7 °C 19,3 km/h (3 Bft)
13.04.2018 10:50 12,6 °C 54 % 1003,8 hPa 0,0 mm 13,6 km/h (3 Bft) W 275 ° 1 min 0,000 mm 3,2 UV-I 522 W/m² 3,5 °C 12,6 °C 17,7 km/h (3 Bft)
13.04.2018 10:51 12,6 °C 55 % 1003,8 hPa 0,0 mm 12,8 km/h (3 Bft) W-NW 294 ° 1 min 0,000 mm 3,3 UV-I 545 W/m² 3,8 °C 12,6 °C 16,1 km/h (3 Bft)
13.04.2018 10:52 12,6 °C 55 % 1003,8 hPa 0,0 mm 11,7 km/h (2 Bft) NW 308 ° 1 min 0,000 mm 3,2 UV-I 547 W/m² 3,8 °C 12,6 °C 14,5 km/h (3 Bft)
13.04.2018 10:53 12,7 °C 55 % 1003,8 hPa 0,0 mm 7,8 km/h (2 Bft) W 280 ° 1 min 0,000 mm 3,3 UV-I 550 W/m² 3,9 °C 12,7 °C 12,9 km/h (3 Bft)
13.04.2018 10:54 12,8 °C 55 % 1003,8 hPa 0,0 mm 12,5 km/h (3 Bft) W 269 ° 1 min 0,000 mm 3,3 UV-I 527 W/m² 4,0 °C 12,8 °C 17,7 km/h (3 Bft)
13.04.2018 10:55 12,8 °C 55 % 1003,8 hPa 0,0 mm 12,5 km/h (3 Bft) SW 234 ° 1 min 0,000 mm 3,2 UV-I 536 W/m² 4,0 °C 12,8 °C 20,9 km/h (4 Bft)
13.04.2018 10:56 12,9 °C 54 % 1003,9 hPa 0,0 mm 11,7 km/h (2 Bft) W-SW 253 ° 1 min 0,000 mm 3,4 UV-I 571 W/m² 3,8 °C 12,9 °C 22,5 km/h (4 Bft)
13.04.2018 10:57 12,9 °C 56 % 1003,9 hPa 0,0 mm 10,1 km/h (2 Bft) W-NW 288 ° 1 min 0,000 mm 3,5 UV-I 585 W/m² 4,3 °C 12,9 °C 14,5 km/h (3 Bft)
13.04.2018 10:58 13,1 °C 55 % 1003,9 hPa 0,0 mm 8,1 km/h (2 Bft) W 273 ° 1 min 0,000 mm 3,5 UV-I 591 W/m² 4,3 °C 13,1 °C 12,9 km/h (3 Bft)
13.04.2018 10:59 13,1 °C 54 % 1004,0 hPa 0,0 mm 7,9 km/h (2 Bft) W-NW 285 ° 1 min 0,000 mm 3,5 UV-I 570 W/m² 4,0 °C 13,1 °C 14,5 km/h (3 Bft)
13.04.2018 11:00 13,1 °C 54 % 1004,0 hPa 0,0 mm 7,8 km/h (2 Bft) NW 315 ° 1 min 0,305 mm 3,5 UV-I 587 W/m² 4,0 °C 13,1 °C 16,1 km/h (3 Bft)
13.04.2018 11:01 13,1 °C 54 % 1004,0 hPa 0,0 mm 4,4 km/h (1 Bft) W-NW 289 ° 1 min 0,000 mm 3,4 UV-I 564 W/m² 4,0 °C 13,1 °C 6,4 km/h (2 Bft)
13.04.2018 11:02 13,3 °C 55 % 1004,0 hPa 0,0 mm 8,5 km/h (2 Bft) W-NW 303 ° 1 min 0,000 mm 3,4 UV-I 557 W/m² 4,5 °C 13,3 °C 12,9 km/h (3 Bft)
13.04.2018 11:03 13,3 °C 56 % 1004,0 hPa 0,0 mm 9,7 km/h (2 Bft) N-NW 329 ° 1 min 0,000 mm 3,5 UV-I 566 W/m² 4,7 °C 13,3 °C 14,5 km/h (3 Bft)
13.04.2018 11:04 13,4 °C 55 % 1004,0 hPa 0,0 mm 9,3 km/h (2 Bft) NW 309 ° 1 min 0,000 mm 3,5 UV-I 554 W/m² 4,5 °C 13,4 °C 12,9 km/h (3 Bft)
13.04.2018 11:05 13,4 °C 55 % 1004,0 hPa 0,0 mm 8,5 km/h (2 Bft) W-NW 299 ° 1 min 0,000 mm 3,5 UV-I 564 W/m² 4,5 °C 13,4 °C 16,1 km/h (3 Bft)
13.04.2018 11:06 13,3 °C 55 % 1004,0 hPa 0,0 mm 9,4 km/h (2 Bft) W-NW 302 ° 1 min 0,000 mm 3,5 UV-I 564 W/m² 4,5 °C 13,3 °C 14,5 km/h (3 Bft)
13.04.2018 11:07 13,3 °C 55 % 1004,0 hPa 0,0 mm 11,3 km/h (2 Bft) NW 304 ° 1 min 0,000 mm 3,4 UV-I 547 W/m² 4,5 °C 13,3 °C 17,7 km/h (3 Bft)
13.04.2018 11:08 13,3 °C 54 % 1004,0 hPa 0,0 mm 7,1 km/h (2 Bft) NW 316 ° 1 min 0,000 mm 3,4 UV-I 548 W/m² 4,2 °C 13,3 °C 11,3 km/h (2 Bft)
13.04.2018 11:09 13,3 °C 54 % 1004,1 hPa 0,0 mm 5,3 km/h (1 Bft) N-NW 327 ° 1 min 0,000 mm 3,4 UV-I 547 W/m² 4,2 °C 13,3 °C 6,4 km/h (2 Bft)
13.04.2018 11:10 13,3 °C 57 % 1004,1 hPa 0,0 mm 8,1 km/h (2 Bft) W-NW 301 ° 1 min 0,000 mm 3,5 UV-I 564 W/m² 5,0 °C 13,3 °C 16,1 km/h (3 Bft)
13.04.2018 11:11 13,4 °C 56 % 1004,1 hPa 0,0 mm 10,1 km/h (2 Bft) W-NW 284 ° 1 min 0,000 mm 3,4 UV-I 545 W/m² 4,8 °C 13,4 °C 17,7 km/h (3 Bft)
13.04.2018 11:12 13,4 °C 54 % 1004,1 hPa 0,0 mm 14,3 km/h (3 Bft) W-NW 288 ° 1 min 0,000 mm 3,4 UV-I 492 W/m² 4,3 °C 13,4 °C 19,3 km/h (3 Bft)
13.04.2018 11:13 13,3 °C 52 % 1004,1 hPa 0,0 mm 4,8 km/h (1 Bft) W 279 ° 1 min 0,000 mm 3,2 UV-I 469 W/m² 3,7 °C 13,3 °C 9,7 km/h (2 Bft)
13.04.2018 11:14 13,3 °C 55 % 1004,2 hPa 0,0 mm 6,3 km/h (2 Bft) NW 306 ° 1 min 0,000 mm 3,4 UV-I 534 W/m² 4,5 °C 13,3 °C 11,3 km/h (2 Bft)
13.04.2018 11:15 13,2 °C 55 % 1004,2 hPa 0,0 mm 3,9 km/h (1 Bft) W-NW 296 ° 1 min 0,000 mm 3,4 UV-I 534 W/m² 4,4 °C 13,2 °C 6,4 km/h (2 Bft)
13.04.2018 11:16 13,2 °C 56 % 1004,1 hPa 0,0 mm 7,0 km/h (2 Bft) NW 306 ° 1 min 0,000 mm 3,4 UV-I 533 W/m² 4,6 °C 13,2 °C 11,3 km/h (2 Bft)
13.04.2018 11:17 13,2 °C 54 % 1004,2 hPa 0,0 mm 8,6 km/h (2 Bft) W-NW 303 ° 1 min 0,000 mm 3,6 UV-I 573 W/m² 4,1 °C 13,2 °C 14,5 km/h (3 Bft)
13.04.2018 11:18 13,2 °C 56 % 1004,2 hPa 0,0 mm 5,2 km/h (1 Bft) NW 312 ° 1 min 0,000 mm 3,7 UV-I 577 W/m² 4,6 °C 13,2 °C 8,0 km/h (2 Bft)
13.04.2018 11:19 13,4 °C 56 % 1004,2 hPa 0,0 mm 5,1 km/h (1 Bft) NW 321 ° 1 min 0,000 mm 3,6 UV-I 582 W/m² 4,8 °C 13,4 °C 12,9 km/h (3 Bft)
13.04.2018 11:20 13,4 °C 56 % 1004,2 hPa 0,0 mm 10,2 km/h (2 Bft) W-NW 300 ° 1 min 0,000 mm 3,6 UV-I 606 W/m² 4,8 °C 13,4 °C 17,7 km/h (3 Bft)
13.04.2018 11:21 13,6 °C 55 % 1004,2 hPa 0,0 mm 8,3 km/h (2 Bft) NW 311 ° 1 min 0,000 mm 3,7 UV-I 594 W/m² 4,7 °C 13,6 °C 11,3 km/h (2 Bft)
13.04.2018 11:22 13,6 °C 56 % 1004,2 hPa 0,0 mm 6,9 km/h (2 Bft) W 278 ° 1 min 0,000 mm 4,0 UV-I 666 W/m² 5,0 °C 13,6 °C 12,9 km/h (3 Bft)
13.04.2018 11:23 13,8 °C 57 % 1004,2 hPa 0,0 mm 8,2 km/h (2 Bft) NW 320 ° 1 min 0,000 mm 4,0 UV-I 650 W/m² 5,4 °C 13,8 °C 14,5 km/h (3 Bft)
13.04.2018 11:24 13,8 °C 53 % 1004,3 hPa 0,0 mm 7,8 km/h (2 Bft) NW 325 ° 1 min 0,000 mm 4,1 UV-I 717 W/m² 4,4 °C 13,8 °C 12,9 km/h (3 Bft)
13.04.2018 11:25 14,0 °C 55 % 1004,2 hPa 0,0 mm 6,2 km/h (2 Bft) N-NW 330 ° 1 min 0,000 mm 4,4 UV-I 744 W/m² 5,1 °C 14,0 °C 8,0 km/h (2 Bft)
13.04.2018 11:26 14,2 °C 56 % 1004,2 hPa 0,0 mm 6,3 km/h (2 Bft) NW 313 ° 1 min 0,000 mm 4,5 UV-I 749 W/m² 5,6 °C 14,2 °C 9,7 km/h (2 Bft)
13.04.2018 11:27 14,2 °C 52 % 1004,3 hPa 0,0 mm 8,0 km/h (2 Bft) W 275 ° 1 min 0,000 mm 4,6 UV-I 772 W/m² 4,5 °C 14,2 °C 12,9 km/h (3 Bft)
13.04.2018 11:28 14,1 °C 53 % 1004,3 hPa 0,0 mm 6,9 km/h (2 Bft) NW 312 ° 1 min 0,000 mm 4,5 UV-I 756 W/m² 4,7 °C 14,1 °C 12,9 km/h (3 Bft)
13.04.2018 11:29 14,2 °C 55 % 1004,3 hPa 0,0 mm 6,1 km/h (2 Bft) W-NW 284 ° 1 min 0,000 mm 4,4 UV-I 710 W/m² 5,3 °C 14,2 °C 11,3 km/h (2 Bft)
13.04.2018 11:30 14,1 °C 53 % 1004,3 hPa 0,0 mm 5,3 km/h (1 Bft) NW 323 ° 1 min 0,000 mm 4,5 UV-I 752 W/m² 4,7 °C 14,1 °C 12,9 km/h (3 Bft)
13.04.2018 11:31 14,2 °C 53 % 1004,3 hPa 0,0 mm 4,3 km/h (1 Bft) NW 319 ° 1 min 0,000 mm 4,2 UV-I 671 W/m² 4,8 °C 14,2 °C 8,0 km/h (2 Bft)
13.04.2018 11:32 14,2 °C 53 % 1004,3 hPa 0,0 mm 5,1 km/h (1 Bft) NW 304 ° 1 min 0,000 mm 3,8 UV-I 580 W/m² 4,8 °C 14,2 °C 6,4 km/h (2 Bft)
13.04.2018 11:33 14,2 °C 53 % 1004,4 hPa 0,0 mm 9,0 km/h (2 Bft) W 277 ° 1 min 0,000 mm 3,3 UV-I 580 W/m² 4,8 °C 14,2 °C 12,9 km/h (3 Bft)
13.04.2018 11:34 14,1 °C 51 % 1004,3 hPa 0,0 mm 7,8 km/h (2 Bft) NW 311 ° 1 min 0,000 mm 2,8 UV-I 580 W/m² 4,1 °C 14,1 °C 12,9 km/h (3 Bft)
13.04.2018 11:35 13,9 °C 52 % 1004,4 hPa 0,0 mm 5,4 km/h (1 Bft) NW 306 ° 1 min 0,000 mm 3,1 UV-I 399 W/m² 4,2 °C 13,9 °C 8,0 km/h (2 Bft)
13.04.2018 11:36 13,8 °C 52 % 1004,4 hPa 0,0 mm 7,3 km/h (2 Bft) W-NW 283 ° 1 min 0,000 mm 3,1 UV-I 387 W/m² 4,1 °C 13,8 °C 9,7 km/h (2 Bft)
13.04.2018 11:37 13,7 °C 52 % 1004,5 hPa 0,0 mm 4,9 km/h (1 Bft) W-NW 298 ° 1 min 0,000 mm 3,1 UV-I 418 W/m² 4,0 °C 13,7 °C 6,4 km/h (2 Bft)
13.04.2018 11:38 13,6 °C 54 % 1004,5 hPa 0,0 mm 4,8 km/h (1 Bft) W-NW 299 ° 1 min 0,000 mm 3,3 UV-I 471 W/m² 4,5 °C 13,6 °C 6,4 km/h (2 Bft)
13.04.2018 11:39 13,6 °C 53 % 1004,5 hPa 0,0 mm 6,7 km/h (2 Bft) NW 307 ° 1 min 0,000 mm 2,8 UV-I 373 W/m² 4,2 °C 13,6 °C 11,3 km/h (2 Bft)
13.04.2018 11:40 13,6 °C 56 % 1004,5 hPa 0,0 mm 4,8 km/h (1 Bft) W-NW 289 ° 1 min 0,000 mm 2,7 UV-I 332 W/m² 5,0 °C 13,6 °C 6,4 km/h (2 Bft)
13.04.2018 11:41 13,7 °C 56 % 1004,5 hPa 0,0 mm 6,9 km/h (2 Bft) W-NW 284 ° 1 min 0,000 mm 3,1 UV-I 388 W/m² 5,1 °C 13,7 °C 11,3 km/h (2 Bft)
13.04.2018 11:42 13,7 °C 55 % 1004,5 hPa 0,0 mm 10,4 km/h (2 Bft) W-NW 293 ° 1 min 0,000 mm 2,8 UV-I 478 W/m² 4,8 °C 13,7 °C 12,9 km/h (3 Bft)
13.04.2018 11:43 13,7 °C 53 % 1004,5 hPa 0,0 mm 8,6 km/h (2 Bft) W 279 ° 1 min 0,000 mm 3,0 UV-I 383 W/m² 4,3 °C 13,7 °C 12,9 km/h (3 Bft)
13.04.2018 11:44 13,7 °C 53 % 1004,5 hPa 0,0 mm 5,2 km/h (1 Bft) W-NW 283 ° 1 min 0,000 mm 3,1 UV-I 432 W/m² 4,3 °C 13,7 °C 9,7 km/h (2 Bft)
13.04.2018 11:45 13,6 °C 54 % 1004,5 hPa 0,0 mm 8,4 km/h (2 Bft) W 272 ° 1 min 0,000 mm 3,1 UV-I 427 W/m² 4,5 °C 13,6 °C 11,3 km/h (2 Bft)
13.04.2018 11:46 13,6 °C 55 % 1004,6 hPa 0,0 mm 7,0 km/h (2 Bft) NW 313 ° 1 min 0,000 mm 3,0 UV-I 417 W/m² 4,7 °C 13,6 °C 11,3 km/h (2 Bft)
13.04.2018 11:47 13,6 °C 54 % 1004,6 hPa 0,0 mm 5,9 km/h (2 Bft) W-NW 282 ° 1 min 0,000 mm 2,9 UV-I 387 W/m² 4,5 °C 13,6 °C 11,3 km/h (2 Bft)
13.04.2018 11:48 13,5 °C 52 % 1004,6 hPa 0,0 mm 6,4 km/h (2 Bft) W 281 ° 1 min 0,000 mm 2,8 UV-I 357 W/m² 3,8 °C 13,5 °C 12,9 km/h (3 Bft)
13.04.2018 11:49 13,5 °C 53 % 1004,6 hPa 0,0 mm 7,1 km/h (2 Bft) W-NW 290 ° 1 min 0,000 mm 2,6 UV-I 322 W/m² 4,1 °C 13,5 °C 12,9 km/h (3 Bft)
13.04.2018 11:50 13,4 °C 54 % 1004,6 hPa 0,0 mm 5,1 km/h (1 Bft) NW 305 ° 1 min 0,000 mm 2,5 UV-I 302 W/m² 4,3 °C 13,4 °C 8,0 km/h (2 Bft)
13.04.2018 11:51 13,4 °C 52 % 1004,6 hPa 0,0 mm 4,2 km/h (1 Bft) W-SW 248 ° 1 min 0,000 mm 2,5 UV-I 297 W/m² 3,7 °C 13,4 °C 8,0 km/h (2 Bft)
13.04.2018 11:52 13,3 °C 57 % 1004,6 hPa 0,0 mm 5,2 km/h (1 Bft) W 276 ° 1 min 0,000 mm 2,5 UV-I 301 W/m² 5,0 °C 13,3 °C 6,4 km/h (2 Bft)
13.04.2018 11:53 13,3 °C 56 % 1004,6 hPa 0,0 mm 5,0 km/h (1 Bft) NW 320 ° 1 min 0,000 mm 2,5 UV-I 323 W/m² 4,7 °C 13,3 °C 8,0 km/h (2 Bft)
13.04.2018 11:54 13,4 °C 55 % 1004,6 hPa 0,0 mm 5,2 km/h (1 Bft) W 273 ° 1 min 0,000 mm 2,6 UV-I 320 W/m² 4,5 °C 13,4 °C 9,7 km/h (2 Bft)
13.04.2018 11:55 13,3 °C 53 % 1004,6 hPa 0,0 mm 5,3 km/h (1 Bft) W 262 ° 1 min 0,000 mm 2,6 UV-I 316 W/m² 3,9 °C 13,3 °C 6,4 km/h (2 Bft)
13.04.2018 11:56 13,3 °C 55 % 1004,6 hPa 0,0 mm 5,2 km/h (1 Bft) W-SW 252 ° 1 min 0,000 mm 2,6 UV-I 325 W/m² 4,5 °C 13,3 °C 6,4 km/h (2 Bft)
13.04.2018 11:57 13,3 °C 52 % 1004,7 hPa 0,0 mm 4,3 km/h (1 Bft) S-SW 197 ° 1 min 0,000 mm 3,0 UV-I 413 W/m² 3,7 °C 13,3 °C 9,7 km/h (2 Bft)
13.04.2018 11:58 13,3 °C 52 % 1004,6 hPa 0,0 mm 3,2 km/h (1 Bft) S-SW 197 ° 1 min 0,000 mm 3,3 UV-I 476 W/m² 3,7 °C 13,3 °C 4,8 km/h (1 Bft)
13.04.2018 11:59 13,3 °C 52 % 1004,6 hPa 0,0 mm 2,9 km/h (1 Bft) W-SW 250 ° 1 min 0,000 mm 3,4 UV-I 582 W/m² 3,7 °C 13,3 °C 8,0 km/h (2 Bft)
13.04.2018 12:00 13,4 °C 54 % 1004,7 hPa 0,0 mm 9,7 km/h (2 Bft) W 263 ° 1 min 0,000 mm 4,1 UV-I 582 W/m² 4,3 °C 13,4 °C 11,3 km/h (2 Bft)
13.04.2018 12:01 13,5 °C 52 % 1004,7 hPa 0,0 mm 8,5 km/h (2 Bft) W 262 ° 1 min 0,305 mm 4,1 UV-I 677 W/m² 3,8 °C 13,5 °C 11,3 km/h (2 Bft)
13.04.2018 12:02 13,4 °C 51 % 1004,7 hPa 0,0 mm 5,2 km/h (1 Bft) W 264 ° 1 min 0,000 mm 3,9 UV-I 638 W/m² 3,5 °C 13,4 °C 9,7 km/h (2 Bft)
13.04.2018 12:03 13,5 °C 52 % 1004,7 hPa 0,0 mm 2,1 km/h (1 Bft) W 264 ° 1 min 0,000 mm 3,9 UV-I 582 W/m² 3,8 °C 13,5 °C 4,8 km/h (1 Bft)
13.04.2018 12:04 13,6 °C 52 % 1004,7 hPa 0,0 mm 2,5 km/h (1 Bft) W 261 ° 1 min 0,000 mm 3,9 UV-I 536 W/m² 3,9 °C 13,6 °C 6,4 km/h (2 Bft)
13.04.2018 12:05 13,7 °C 52 % 1004,7 hPa 0,0 mm 8,7 km/h (2 Bft) W 276 ° 1 min 0,000 mm 3,4 UV-I 513 W/m² 4,0 °C 13,7 °C 12,9 km/h (3 Bft)
13.04.2018 12:06 13,6 °C 50 % 1004,7 hPa 0,0 mm 4,6 km/h (1 Bft) W 271 ° 1 min 0,000 mm 3,1 UV-I 406 W/m² 3,4 °C 13,6 °C 9,7 km/h (2 Bft)
13.04.2018 12:07 13,6 °C 53 % 1004,7 hPa 0,0 mm 0,5 km/h (0 Bft) W 270 ° 1 min 0,000 mm 3,1 UV-I 413 W/m² 4,2 °C 13,6 °C 1,6 km/h (1 Bft)
13.04.2018 12:08 13,6 °C 54 % 1004,6 hPa 0,0 mm 0,2 km/h (0 Bft) W 270 ° 1 min 0,000 mm 2,8 UV-I 367 W/m² 4,5 °C 13,6 °C 1,6 km/h (1 Bft)
13.04.2018 12:09 13,7 °C 52 % 1004,7 hPa 0,0 mm 0,0 km/h (0 Bft) W 270 ° 1 min 0,000 mm 2,7 UV-I 332 W/m² 4,0 °C 13,7 °C 0,0 km/h (0 Bft)
13.04.2018 12:10 13,7 °C 50 % 1004,8 hPa 0,0 mm 3,3 km/h (1 Bft) W-SW 242 ° 1 min 0,000 mm 2,7 UV-I 329 W/m² 3,5 °C 13,7 °C 4,8 km/h (1 Bft)
13.04.2018 12:11 13,7 °C 51 % 1004,8 hPa 0,0 mm 3,5 km/h (1 Bft) W 262 ° 1 min 0,000 mm 2,9 UV-I 355 W/m² 3,8 °C 13,7 °C 6,4 km/h (2 Bft)
13.04.2018 12:12 13,7 °C 52 % 1004,8 hPa 0,0 mm 4,0 km/h (1 Bft) W-SW 243 ° 1 min 0,000 mm 2,6 UV-I 322 W/m² 4,0 °C 13,7 °C 6,4 km/h (2 Bft)
13.04.2018 12:13 13,7 °C 50 % 1004,8 hPa 0,0 mm 5,4 km/h (1 Bft) W 264 ° 1 min 0,000 mm 2,5 UV-I 292 W/m² 3,5 °C 13,7 °C 9,7 km/h (2 Bft)
13.04.2018 12:14 13,7 °C 51 % 1004,8 hPa 0,0 mm 7,5 km/h (2 Bft) W-SW 240 ° 0 min 0,000 mm 2,4 UV-I 285 W/m² 3,8 °C 13,7 °C 9,7 km/h (2 Bft)
13.04.2018 12:15 13,7 °C 53 % 1004,8 hPa 0,0 mm 4,2 km/h (1 Bft) W-SW 240 ° 0 min 0,000 mm 2,4 UV-I 283 W/m² 4,3 °C 13,7 °C 4,8 km/h (1 Bft)
13.04.2018 12:16 13,6 °C 49 % 1004,8 hPa 0,0 mm 1,3 km/h (1 Bft) W-SW 240 ° 0 min 0,000 mm 2,4 UV-I 288 W/m² 3,1 °C 13,6 °C 3,2 km/h (1 Bft)
13.04.2018 12:17 13,4 °C 49 % 1004,8 hPa 0,0 mm 2,3 km/h (1 Bft) W-SW 237 ° 0 min 0,000 mm 2,4 UV-I 285 W/m² 2,9 °C 13,4 °C 3,2 km/h (1 Bft)
13.04.2018 12:18 13,3 °C 50 % 1004,8 hPa 0,0 mm 0,1 km/h (0 Bft) W-SW 237 ° 1 min 0,000 mm 2,4 UV-I 290 W/m² 3,1 °C 13,3 °C 1,6 km/h (1 Bft)
13.04.2018 12:19 13,3 °C 54 % 1004,7 hPa 0,0 mm 1,6 km/h (1 Bft) SW 236 ° 1 min 0,000 mm 2,4 UV-I 297 W/m² 4,2 °C 13,3 °C 3,2 km/h (1 Bft)
13.04.2018 12:20 13,3 °C 53 % 1004,8 hPa 0,0 mm 1,3 km/h (1 Bft) SW 236 ° 1 min 0,000 mm 2,5 UV-I 308 W/m² 3,9 °C 13,3 °C 3,2 km/h (1 Bft)
13.04.2018 12:21 13,4 °C 55 % 1004,8 hPa 0,0 mm 5,3 km/h (1 Bft) NW 313 ° 1 min 0,000 mm 2,7 UV-I 357 W/m² 4,5 °C 13,4 °C 9,7 km/h (2 Bft)
13.04.2018 12:22 13,6 °C 57 % 1004,8 hPa 0,0 mm 5,1 km/h (1 Bft) NW 309 ° 1 min 0,000 mm 2,8 UV-I 406 W/m² 5,2 °C 13,6 °C 8,0 km/h (2 Bft)
13.04.2018 12:23 13,7 °C 54 % 1004,8 hPa 0,0 mm 5,3 km/h (1 Bft) NW 317 ° 1 min 0,000 mm 3,1 UV-I 418 W/m² 4,6 °C 13,7 °C 9,7 km/h (2 Bft)
13.04.2018 12:24 13,8 °C 51 % 1004,8 hPa 0,0 mm 6,4 km/h (2 Bft) NW 317 ° 1 min 0,000 mm 2,8 UV-I 381 W/m² 3,8 °C 13,8 °C 9,7 km/h (2 Bft)
13.04.2018 12:25 13,8 °C 52 % 1004,8 hPa 0,0 mm 3,9 km/h (1 Bft) NW 324 ° 1 min 0,000 mm 2,8 UV-I 378 W/m² 4,1 °C 13,8 °C 6,4 km/h (2 Bft)
13.04.2018 12:26 13,9 °C 54 % 1004,8 hPa 0,0 mm 3,7 km/h (1 Bft) NW 324 ° 1 min 0,000 mm 3,1 UV-I 461 W/m² 4,7 °C 13,9 °C 4,8 km/h (1 Bft)
13.04.2018 12:27 14,0 °C 51 % 1004,9 hPa 0,0 mm 3,8 km/h (1 Bft) W 265 ° 1 min 0,000 mm 2,9 UV-I 420 W/m² 4,0 °C 14,0 °C 4,8 km/h (1 Bft)
13.04.2018 12:28 14,1 °C 52 % 1004,9 hPa 0,0 mm 1,2 km/h (1 Bft) W 279 ° 1 min 0,000 mm 3,0 UV-I 445 W/m² 4,4 °C 14,1 °C 3,2 km/h (1 Bft)
13.04.2018 12:29 14,1 °C 52 % 1004,9 hPa 0,0 mm 4,0 km/h (1 Bft) W 270 ° 1 min 0,000 mm 3,1 UV-I 446 W/m² 4,4 °C 14,1 °C 9,7 km/h (2 Bft)
13.04.2018 12:30 14,1 °C 52 % 1004,9 hPa 0,0 mm 8,8 km/h (2 Bft) W 265 ° 1 min 0,000 mm 2,9 UV-I 401 W/m² 4,4 °C 14,1 °C 14,5 km/h (3 Bft)
13.04.2018 12:31 14,1 °C 49 % 1004,9 hPa 0,0 mm 5,2 km/h (1 Bft) W-NW 296 ° 1 min 0,000 mm 2,8 UV-I 385 W/m² 3,6 °C 14,1 °C 6,4 km/h (2 Bft)
13.04.2018 12:32 13,9 °C 50 % 1005,0 hPa 0,0 mm 1,5 km/h (1 Bft) W-NW 296 ° 1 min 0,000 mm 3,0 UV-I 427 W/m² 3,7 °C 13,9 °C 4,8 km/h (1 Bft)
13.04.2018 12:33 13,9 °C 49 % 1005,0 hPa 0,0 mm 3,4 km/h (1 Bft) W-NW 283 ° 1 min 0,000 mm 3,1 UV-I 446 W/m² 3,4 °C 13,9 °C 4,8 km/h (1 Bft)
13.04.2018 12:34 13,9 °C 51 % 1005,0 hPa 0,0 mm 3,7 km/h (1 Bft) W-NW 295 ° 1 min 0,000 mm 3,3 UV-I 501 W/m² 3,9 °C 13,9 °C 4,8 km/h (1 Bft)
13.04.2018 12:35 13,9 °C 51 % 1005,0 hPa 0,0 mm 2,1 km/h (1 Bft) NW 309 ° 1 min 0,000 mm 3,1 UV-I 381 W/m² 3,9 °C 13,9 °C 4,8 km/h (1 Bft)
13.04.2018 12:36 14,1 °C 54 % 1005,0 hPa 0,0 mm 3,8 km/h (1 Bft) NW 317 ° 1 min 0,000 mm 2,9 UV-I 396 W/m² 4,9 °C 14,1 °C 6,4 km/h (2 Bft)
13.04.2018 12:37 14,2 °C 53 % 1005,0 hPa 0,0 mm 6,0 km/h (2 Bft) W 277 ° 1 min 0,000 mm 2,7 UV-I 367 W/m² 4,8 °C 14,2 °C 11,3 km/h (2 Bft)
13.04.2018 12:38 14,2 °C 50 % 1005,0 hPa 0,0 mm 4,5 km/h (1 Bft) W-NW 298 ° 1 min 0,000 mm 3,5 UV-I 367 W/m² 3,9 °C 14,2 °C 6,4 km/h (2 Bft)
13.04.2018 12:39 14,2 °C 50 % 1005,0 hPa 0,0 mm 4,7 km/h (1 Bft) W-NW 298 ° 1 min 0,000 mm 3,4 UV-I 367 W/m² 3,9 °C 14,2 °C 8,0 km/h (2 Bft)
13.04.2018 12:40 14,2 °C 50 % 1005,1 hPa 0,0 mm 9,1 km/h (2 Bft) W-SW 255 ° 1 min 0,000 mm 2,9 UV-I 454 W/m² 3,9 °C 14,2 °C 14,5 km/h (3 Bft)
13.04.2018 12:41 14,2 °C 49 % 1005,0 hPa 0,0 mm 9,8 km/h (2 Bft) W-SW 254 ° 1 min 0,000 mm 3,6 UV-I 573 W/m² 3,6 °C 14,2 °C 16,1 km/h (3 Bft)
13.04.2018 12:42 14,1 °C 49 % 1005,1 hPa 0,0 mm 5,1 km/h (1 Bft) W 260 ° 1 min 0,000 mm 3,7 UV-I 617 W/m² 3,6 °C 14,1 °C 9,7 km/h (2 Bft)
13.04.2018 12:43 14,1 °C 49 % 1005,1 hPa 0,0 mm 5,9 km/h (2 Bft) NW 304 ° 1 min 0,000 mm 2,8 UV-I 534 W/m² 3,6 °C 14,1 °C 9,7 km/h (2 Bft)
13.04.2018 12:44 14,2 °C 52 % 1005,1 hPa 0,0 mm 5,9 km/h (2 Bft) W-NW 294 ° 1 min 0,000 mm 2,7 UV-I 534 W/m² 4,5 °C 14,2 °C 8,0 km/h (2 Bft)
13.04.2018 12:45 14,2 °C 51 % 1005,1 hPa 0,0 mm 5,1 km/h (1 Bft) NW 321 ° 1 min 0,000 mm 2,8 UV-I 364 W/m² 4,2 °C 14,2 °C 9,7 km/h (2 Bft)
13.04.2018 12:46 14,2 °C 51 % 1005,1 hPa 0,0 mm 6,9 km/h (2 Bft) W 278 ° 1 min 0,000 mm 2,6 UV-I 353 W/m² 4,2 °C 14,2 °C 11,3 km/h (2 Bft)
13.04.2018 12:47 14,2 °C 48 % 1005,2 hPa 0,0 mm 7,0 km/h (2 Bft) W-NW 286 ° 1 min 0,000 mm 2,6 UV-I 353 W/m² 3,4 °C 14,2 °C 11,3 km/h (2 Bft)
13.04.2018 12:48 14,2 °C 50 % 1005,2 hPa 0,0 mm 5,9 km/h (2 Bft) W-NW 285 ° 1 min 0,000 mm 2,6 UV-I 353 W/m² 3,9 °C 14,2 °C 12,9 km/h (3 Bft)
13.04.2018 12:49 14,2 °C 50 % 1005,2 hPa 0,0 mm 8,0 km/h (2 Bft) W-SW 253 ° 1 min 0,000 mm 2,7 UV-I 357 W/m² 3,9 °C 14,2 °C 12,9 km/h (3 Bft)
13.04.2018 12:50 14,2 °C 50 % 1005,2 hPa 0,0 mm 4,3 km/h (1 Bft) W 281 ° 1 min 0,000 mm 3,1 UV-I 406 W/m² 3,9 °C 14,2 °C 6,4 km/h (2 Bft)
13.04.2018 12:51 14,2 °C 49 % 1005,2 hPa 0,0 mm 4,6 km/h (1 Bft) W-SW 258 ° 1 min 0,000 mm 2,7 UV-I 362 W/m² 3,6 °C 14,2 °C 6,4 km/h (2 Bft)
13.04.2018 12:52 14,2 °C 48 % 1005,2 hPa 0,0 mm 4,5 km/h (1 Bft) NW 311 ° 1 min 0,000 mm 2,7 UV-I 355 W/m² 3,4 °C 14,2 °C 6,4 km/h (2 Bft)
13.04.2018 12:53 14,1 °C 49 % 1005,2 hPa 0,0 mm 5,5 km/h (1 Bft) NW 309 ° 1 min 0,000 mm 2,7 UV-I 359 W/m² 3,6 °C 14,1 °C 8,0 km/h (2 Bft)
13.04.2018 12:54 14,1 °C 48 % 1005,2 hPa 0,0 mm 3,7 km/h (1 Bft) NW 309 ° 1 min 0,000 mm 2,7 UV-I 359 W/m² 3,3 °C 14,1 °C 6,4 km/h (2 Bft)
13.04.2018 12:55 14,1 °C 49 % 1005,2 hPa 0,0 mm 3,7 km/h (1 Bft) NW 311 ° 1 min 0,000 mm 2,8 UV-I 362 W/m² 3,6 °C 14,1 °C 6,4 km/h (2 Bft)
13.04.2018 12:56 14,2 °C 50 % 1005,2 hPa 0,0 mm 7,6 km/h (2 Bft) W-NW 291 ° 1 min 0,000 mm 3,9 UV-I 362 W/m² 3,9 °C 14,2 °C 12,9 km/h (3 Bft)
13.04.2018 12:57 14,3 °C 54 % 1005,3 hPa 0,0 mm 8,4 km/h (2 Bft) NW 311 ° 1 min 0,000 mm 3,9 UV-I 362 W/m² 5,1 °C 14,3 °C 12,9 km/h (3 Bft)
13.04.2018 12:58 14,4 °C 51 % 1005,4 hPa 0,0 mm 5,7 km/h (1 Bft) N-NW 338 ° 1 min 0,000 mm 3,0 UV-I 362 W/m² 4,4 °C 14,4 °C 8,0 km/h (2 Bft)
13.04.2018 12:59 14,4 °C 48 % 1005,4 hPa 0,0 mm 5,1 km/h (1 Bft) NW 314 ° 1 min 0,000 mm 2,8 UV-I 360 W/m² 3,5 °C 14,4 °C 8,0 km/h (2 Bft)
13.04.2018 13:00 14,4 °C 50 % 1005,4 hPa 0,0 mm 3,8 km/h (1 Bft) NW 318 ° 1 min 0,228 mm 2,8 UV-I 359 W/m² 4,1 °C 14,4 °C 8,0 km/h (2 Bft)
13.04.2018 13:01 14,4 °C 48 % 1005,4 hPa 0,0 mm 7,8 km/h (2 Bft) NW 317 ° 1 min 0,000 mm 2,8 UV-I 353 W/m² 3,5 °C 14,4 °C 12,9 km/h (3 Bft)
13.04.2018 13:02 14,4 °C 50 % 1005,4 hPa 0,0 mm 7,2 km/h (2 Bft) N-NW 331 ° 1 min 0,000 mm 2,8 UV-I 350 W/m² 4,1 °C 14,4 °C 12,9 km/h (3 Bft)
13.04.2018 13:03 14,4 °C 53 % 1005,4 hPa 0,0 mm 6,4 km/h (2 Bft) NW 308 ° 1 min 0,000 mm 2,9 UV-I 376 W/m² 4,9 °C 14,4 °C 9,7 km/h (2 Bft)
13.04.2018 13:04 14,5 °C 52 % 1005,4 hPa 0,0 mm 11,5 km/h (2 Bft) NW 323 ° 1 min 0,000 mm 2,6 UV-I 320 W/m² 4,8 °C 14,5 °C 17,7 km/h (3 Bft)
13.04.2018 13:05 14,5 °C 53 % 1005,4 hPa 0,0 mm 10,5 km/h (2 Bft) W-NW 300 ° 1 min 0,000 mm 2,6 UV-I 329 W/m² 5,0 °C 14,5 °C 19,3 km/h (3 Bft)
13.04.2018 13:06 14,4 °C 48 % 1005,5 hPa 0,0 mm 14,9 km/h (3 Bft) W 281 ° 1 min 0,000 mm 2,5 UV-I 304 W/m² 3,5 °C 14,4 °C 22,5 km/h (4 Bft)
13.04.2018 13:07 14,3 °C 50 % 1005,6 hPa 0,0 mm 16,3 km/h (3 Bft) W 280 ° 1 min 0,000 mm 2,5 UV-I 320 W/m² 4,0 °C 14,3 °C 19,3 km/h (3 Bft)
13.04.2018 13:08 14,2 °C 49 % 1005,6 hPa 0,0 mm 13,3 km/h (3 Bft) W-SW 257 ° 1 min 0,000 mm 2,5 UV-I 313 W/m² 3,6 °C 14,2 °C 17,7 km/h (3 Bft)
13.04.2018 13:09 14,2 °C 52 % 1005,6 hPa 0,0 mm 7,1 km/h (2 Bft) W-NW 303 ° 1 min 0,000 mm 2,5 UV-I 292 W/m² 4,5 °C 14,2 °C 12,9 km/h (3 Bft)
13.04.2018 13:10 14,1 °C 49 % 1005,6 hPa 0,0 mm 3,9 km/h (1 Bft) W 281 ° 0 min 0,000 mm 2,4 UV-I 278 W/m² 3,6 °C 14,1 °C 6,4 km/h (2 Bft)
13.04.2018 13:11 14,1 °C 52 % 1005,6 hPa 0,0 mm 5,5 km/h (1 Bft) W-NW 283 ° 0 min 0,000 mm 2,3 UV-I 276 W/m² 4,4 °C 14,1 °C 12,9 km/h (3 Bft)
13.04.2018 13:12 14,1 °C 50 % 1005,6 hPa 0,0 mm 9,9 km/h (2 Bft) W-NW 294 ° 0 min 0,000 mm 2,3 UV-I 267 W/m² 3,8 °C 14,1 °C 16,1 km/h (3 Bft)
13.04.2018 13:13 14,0 °C 50 % 1005,6 hPa 0,0 mm 12,7 km/h (3 Bft) W 262 ° 0 min 0,000 mm 2,2 UV-I 264 W/m² 3,7 °C 14,0 °C 20,9 km/h (4 Bft)
13.04.2018 13:14 13,9 °C 50 % 1005,6 hPa 0,0 mm 13,5 km/h (3 Bft) NW 305 ° 0 min 0,000 mm 2,2 UV-I 262 W/m² 3,7 °C 13,9 °C 19,3 km/h (3 Bft)
13.04.2018 13:15 13,8 °C 50 % 1005,7 hPa 0,0 mm 11,8 km/h (2 Bft) W-NW 289 ° 0 min 0,000 mm 2,2 UV-I 257 W/m² 3,6 °C 13,8 °C 16,1 km/h (3 Bft)
13.04.2018 13:16 13,8 °C 50 % 1005,7 hPa 0,0 mm 10,9 km/h (2 Bft) W-SW 250 ° 0 min 0,000 mm 2,2 UV-I 257 W/m² 3,6 °C 13,8 °C 17,7 km/h (3 Bft)
13.04.2018 13:17 13,7 °C 52 % 1005,7 hPa 0,0 mm 11,9 km/h (2 Bft) W-NW 301 ° 0 min 0,000 mm 2,2 UV-I 258 W/m² 4,0 °C 13,7 °C 14,5 km/h (3 Bft)
13.04.2018 13:18 13,7 °C 50 % 1005,7 hPa 0,0 mm 8,3 km/h (2 Bft) W-NW 284 ° 0 min 0,000 mm 2,2 UV-I 262 W/m² 3,5 °C 13,7 °C 12,9 km/h (3 Bft)
13.04.2018 13:19 13,6 °C 50 % 1005,7 hPa 0,0 mm 4,3 km/h (1 Bft) W-NW 292 ° 0 min 0,000 mm 2,2 UV-I 265 W/m² 3,4 °C 13,6 °C 6,4 km/h (2 Bft)
13.04.2018 13:20 13,7 °C 53 % 1005,7 hPa 0,0 mm 10,0 km/h (2 Bft) W-NW 282 ° 0 min 0,000 mm 2,3 UV-I 265 W/m² 4,3 °C 13,7 °C 14,5 km/h (3 Bft)
13.04.2018 13:21 13,7 °C 51 % 1005,7 hPa 0,0 mm 9,4 km/h (2 Bft) W-SW 256 ° 1 min 0,000 mm 2,3 UV-I 311 W/m² 3,8 °C 13,7 °C 16,1 km/h (3 Bft)
13.04.2018 13:22 13,8 °C 53 % 1005,8 hPa 0,0 mm 8,4 km/h (2 Bft) W 263 ° 1 min 0,000 mm 2,3 UV-I 297 W/m² 4,4 °C 13,8 °C 11,3 km/h (2 Bft)
13.04.2018 13:23 13,8 °C 52 % 1005,8 hPa 0,0 mm 11,7 km/h (2 Bft) W 276 ° 1 min 0,000 mm 2,3 UV-I 350 W/m² 4,1 °C 13,8 °C 16,1 km/h (3 Bft)
13.04.2018 13:24 13,8 °C 51 % 1005,8 hPa 0,0 mm 11,9 km/h (2 Bft) W-NW 298 ° 1 min 0,000 mm 2,6 UV-I 355 W/m² 3,8 °C 13,8 °C 17,7 km/h (3 Bft)
13.04.2018 13:25 13,8 °C 51 % 1005,9 hPa 0,0 mm 8,9 km/h (2 Bft) W-SW 257 ° 1 min 0,000 mm 2,7 UV-I 362 W/m² 3,8 °C 13,8 °C 14,5 km/h (3 Bft)
13.04.2018 13:26 13,8 °C 51 % 1005,9 hPa 0,0 mm 14,8 km/h (3 Bft) W 269 ° 1 min 0,000 mm 2,4 UV-I 323 W/m² 3,8 °C 13,8 °C 19,3 km/h (3 Bft)
13.04.2018 13:27 13,7 °C 51 % 1005,9 hPa 0,0 mm 14,3 km/h (3 Bft) W 279 ° 1 min 0,000 mm 2,5 UV-I 350 W/m² 3,8 °C 13,7 °C 20,9 km/h (4 Bft)
13.04.2018 13:28 13,7 °C 52 % 1005,9 hPa 0,0 mm 12,0 km/h (2 Bft) W-NW 296 ° 1 min 0,000 mm 3,0 UV-I 429 W/m² 4,0 °C 13,7 °C 17,7 km/h (3 Bft)
13.04.2018 13:29 13,8 °C 52 % 1006,0 hPa 0,0 mm 11,3 km/h (2 Bft) W-NW 297 ° 1 min 0,000 mm 3,8 UV-I 429 W/m² 4,1 °C 13,8 °C 16,1 km/h (3 Bft)
13.04.2018 13:30 13,8 °C 51 % 1006,1 hPa 0,0 mm 7,7 km/h (2 Bft) NW 308 ° 1 min 0,000 mm 4,0 UV-I 684 W/m² 3,8 °C 13,8 °C 12,9 km/h (3 Bft)
13.04.2018 13:31 13,9 °C 53 % 1005,9 hPa 0,0 mm 12,9 km/h (3 Bft) W-NW 287 ° 1 min 0,000 mm 4,0 UV-I 679 W/m² 4,5 °C 13,9 °C 19,3 km/h (3 Bft)
13.04.2018 13:32 14,1 °C 53 % 1006,0 hPa 0,0 mm 10,5 km/h (2 Bft) W 281 ° 1 min 0,000 mm 4,1 UV-I 673 W/m² 4,7 °C 14,1 °C 14,5 km/h (3 Bft)
13.04.2018 13:33 14,2 °C 51 % 1006,1 hPa 0,0 mm 11,1 km/h (2 Bft) W-NW 290 ° 1 min 0,000 mm 3,5 UV-I 673 W/m² 4,2 °C 14,2 °C 16,1 km/h (3 Bft)
13.04.2018 13:34 14,3 °C 51 % 1006,1 hPa 0,0 mm 12,3 km/h (3 Bft) W 276 ° 1 min 0,000 mm 4,7 UV-I 673 W/m² 4,3 °C 14,3 °C 20,9 km/h (4 Bft)
13.04.2018 13:35 14,3 °C 49 % 1006,1 hPa 0,0 mm 11,8 km/h (2 Bft) W 269 ° 1 min 0,000 mm 4,6 UV-I 788 W/m² 3,7 °C 14,3 °C 16,1 km/h (3 Bft)
13.04.2018 13:36 14,4 °C 52 % 1006,0 hPa 0,0 mm 13,9 km/h (3 Bft) W-SW 258 ° 1 min 0,000 mm 4,5 UV-I 721 W/m² 4,7 °C 14,4 °C 17,7 km/h (3 Bft)
13.04.2018 13:37 14,4 °C 50 % 1006,1 hPa 0,0 mm 11,9 km/h (2 Bft) W 260 ° 1 min 0,000 mm 4,7 UV-I 752 W/m² 4,1 °C 14,4 °C 16,1 km/h (3 Bft)
13.04.2018 13:38 14,4 °C 51 % 1006,1 hPa 0,0 mm 14,9 km/h (3 Bft) NW 309 ° 1 min 0,000 mm 4,9 UV-I 809 W/m² 4,4 °C 14,4 °C 19,3 km/h (3 Bft)
13.04.2018 13:39 14,6 °C 52 % 1006,1 hPa 0,0 mm 13,3 km/h (3 Bft) W-NW 285 ° 1 min 0,000 mm 4,7 UV-I 735 W/m² 4,9 °C 14,6 °C 19,3 km/h (3 Bft)
13.04.2018 13:40 14,5 °C 51 % 1006,1 hPa 0,0 mm 10,9 km/h (2 Bft) NW 319 ° 1 min 0,000 mm 4,7 UV-I 754 W/m² 4,5 °C 14,5 °C 14,5 km/h (3 Bft)
13.04.2018 13:41 14,6 °C 51 % 1006,1 hPa 0,0 mm 10,6 km/h (2 Bft) NW 307 ° 1 min 0,000 mm 4,7 UV-I 805 W/m² 4,6 °C 14,6 °C 19,3 km/h (3 Bft)
13.04.2018 13:42 14,6 °C 52 % 1006,2 hPa 0,0 mm 7,5 km/h (2 Bft) W 267 ° 1 min 0,000 mm 4,8 UV-I 780 W/m² 4,9 °C 14,6 °C 12,9 km/h (3 Bft)
13.04.2018 13:43 14,6 °C 52 % 1006,2 hPa 0,0 mm 14,3 km/h (3 Bft) W-NW 298 ° 1 min 0,000 mm 4,8 UV-I 770 W/m² 4,9 °C 14,6 °C 17,7 km/h (3 Bft)
13.04.2018 13:44 14,6 °C 53 % 1006,0 hPa 0,0 mm 14,7 km/h (3 Bft) NW 306 ° 1 min 0,000 mm 4,7 UV-I 751 W/m² 5,1 °C 14,6 °C 22,5 km/h (4 Bft)
13.04.2018 13:45 14,7 °C 54 % 1006,1 hPa 0,0 mm 10,3 km/h (2 Bft) W 278 ° 1 min 0,000 mm 4,8 UV-I 761 W/m² 5,5 °C 14,7 °C 16,1 km/h (3 Bft)
13.04.2018 13:46 14,7 °C 50 % 1006,2 hPa 0,0 mm 12,3 km/h (3 Bft) NW 306 ° 1 min 0,000 mm 4,6 UV-I 691 W/m² 4,4 °C 14,7 °C 17,7 km/h (3 Bft)
13.04.2018 13:47 14,7 °C 51 % 1006,2 hPa 0,0 mm 14,9 km/h (3 Bft) W 279 ° 1 min 0,000 mm 4,5 UV-I 726 W/m² 4,7 °C 14,7 °C 22,5 km/h (4 Bft)
13.04.2018 13:48 14,7 °C 52 % 1006,2 hPa 0,0 mm 18,1 km/h (3 Bft) W-NW 290 ° 1 min 0,000 mm 4,5 UV-I 696 W/m² 5,0 °C 14,7 °C 25,7 km/h (4 Bft)
13.04.2018 13:49 14,6 °C 51 % 1006,3 hPa 0,0 mm 14,4 km/h (3 Bft) W-SW 255 ° 1 min 0,000 mm 2,9 UV-I 696 W/m² 4,6 °C 14,6 °C 22,5 km/h (4 Bft)
13.04.2018 13:50 14,5 °C 51 % 1006,3 hPa 0,0 mm 13,4 km/h (3 Bft) W 275 ° 1 min 0,000 mm 3,7 UV-I 696 W/m² 4,5 °C 14,5 °C 19,3 km/h (3 Bft)
13.04.2018 13:51 14,3 °C 51 % 1006,2 hPa 0,0 mm 15,3 km/h (3 Bft) W-NW 301 ° 1 min 0,000 mm 3,8 UV-I 313 W/m² 4,3 °C 14,3 °C 20,9 km/h (4 Bft)
13.04.2018 13:52 14,2 °C 51 % 1006,3 hPa 0,0 mm 11,2 km/h (2 Bft) W 263 ° 1 min 0,000 mm 4,6 UV-I 313 W/m² 4,2 °C 14,2 °C 14,5 km/h (3 Bft)
13.04.2018 13:53 14,2 °C 51 % 1006,3 hPa 0,0 mm 8,9 km/h (2 Bft) W-NW 282 ° 1 min 0,000 mm 3,2 UV-I 313 W/m² 4,2 °C 14,2 °C 14,5 km/h (3 Bft)
13.04.2018 13:54 14,2 °C 53 % 1006,3 hPa 0,0 mm 14,5 km/h (3 Bft) W 269 ° 1 min 0,000 mm 4,4 UV-I 694 W/m² 4,8 °C 14,2 °C 19,3 km/h (3 Bft)
13.04.2018 13:55 14,2 °C 51 % 1006,3 hPa 0,0 mm 13,1 km/h (3 Bft) W 281 ° 1 min 0,000 mm 3,1 UV-I 694 W/m² 4,2 °C 14,2 °C 20,9 km/h (4 Bft)
13.04.2018 13:56 14,1 °C 51 % 1006,3 hPa 0,0 mm 12,0 km/h (2 Bft) W-NW 283 ° 1 min 0,000 mm 3,8 UV-I 694 W/m² 4,1 °C 14,1 °C 16,1 km/h (3 Bft)
13.04.2018 13:57 14,1 °C 52 % 1006,3 hPa 0,0 mm 8,4 km/h (2 Bft) W-NW 286 ° 1 min 0,000 mm 4,1 UV-I 552 W/m² 4,4 °C 14,1 °C 12,9 km/h (3 Bft)
13.04.2018 13:58 14,1 °C 52 % 1006,3 hPa 0,0 mm 11,7 km/h (2 Bft) W 272 ° 1 min 0,000 mm 4,2 UV-I 643 W/m² 4,4 °C 14,1 °C 19,3 km/h (3 Bft)
13.04.2018 13:59 14,2 °C 53 % 1006,3 hPa 0,0 mm 10,9 km/h (2 Bft) W 276 ° 1 min 0,000 mm 4,2 UV-I 642 W/m² 4,8 °C 14,2 °C 16,1 km/h (3 Bft)
13.04.2018 14:00 14,2 °C 53 % 1006,3 hPa 0,0 mm 16,1 km/h (3 Bft) W 278 ° 1 min 0,000 mm 4,3 UV-I 679 W/m² 4,8 °C 14,2 °C 20,9 km/h (4 Bft)
13.04.2018 14:01 14,2 °C 54 % 1006,3 hPa 0,0 mm 8,9 km/h (2 Bft) W 264 ° 1 min 0,305 mm 4,3 UV-I 682 W/m² 5,0 °C 14,2 °C 16,1 km/h (3 Bft)
13.04.2018 14:02 14,3 °C 55 % 1006,3 hPa 0,0 mm 13,1 km/h (3 Bft) W 278 ° 1 min 0,000 mm 4,6 UV-I 700 W/m² 5,4 °C 14,3 °C 16,1 km/h (3 Bft)
13.04.2018 14:03 14,3 °C 54 % 1006,3 hPa 0,0 mm 11,9 km/h (2 Bft) W 263 ° 1 min 0,000 mm 4,5 UV-I 731 W/m² 5,1 °C 14,3 °C 14,5 km/h (3 Bft)
13.04.2018 14:04 14,3 °C 54 % 1006,4 hPa 0,0 mm 17,3 km/h (3 Bft) W 263 ° 1 min 0,000 mm 3,9 UV-I 686 W/m² 5,1 °C 14,3 °C 24,1 km/h (4 Bft)
13.04.2018 14:05 14,4 °C 54 % 1006,4 hPa 0,0 mm 19,1 km/h (3 Bft) W-SW 253 ° 1 min 0,000 mm 3,6 UV-I 594 W/m² 5,2 °C 14,4 °C 22,5 km/h (4 Bft)
13.04.2018 14:06 14,5 °C 54 % 1006,4 hPa 0,0 mm 15,0 km/h (3 Bft) NW 309 ° 1 min 0,000 mm 4,5 UV-I 594 W/m² 5,3 °C 14,5 °C 22,5 km/h (4 Bft)
13.04.2018 14:07 14,5 °C 55 % 1006,4 hPa 0,0 mm 9,0 km/h (2 Bft) NW 311 ° 1 min 0,000 mm 4,6 UV-I 708 W/m² 5,6 °C 14,5 °C 14,5 km/h (3 Bft)
13.04.2018 14:08 14,6 °C 56 % 1006,4 hPa 0,0 mm 12,0 km/h (2 Bft) W 273 ° 1 min 0,000 mm 4,6 UV-I 710 W/m² 5,9 °C 14,6 °C 22,5 km/h (4 Bft)
13.04.2018 14:09 14,6 °C 54 % 1006,5 hPa 0,0 mm 14,1 km/h (3 Bft) W-NW 294 ° 1 min 0,000 mm 4,3 UV-I 635 W/m² 5,4 °C 14,6 °C 19,3 km/h (3 Bft)
13.04.2018 14:10 14,6 °C 54 % 1006,4 hPa 0,0 mm 11,6 km/h (2 Bft) W-SW 252 ° 1 min 0,000 mm 4,4 UV-I 698 W/m² 5,4 °C 14,6 °C 19,3 km/h (3 Bft)
13.04.2018 14:11 14,6 °C 54 % 1006,5 hPa 0,0 mm 13,9 km/h (3 Bft) W-NW 300 ° 1 min 0,000 mm 4,6 UV-I 726 W/m² 5,4 °C 14,6 °C 19,3 km/h (3 Bft)
13.04.2018 14:12 14,5 °C 55 % 1006,5 hPa 0,0 mm 17,7 km/h (3 Bft) NW 307 ° 1 min 0,000 mm 4,6 UV-I 729 W/m² 5,6 °C 14,5 °C 25,7 km/h (4 Bft)
13.04.2018 14:13 14,5 °C 54 % 1006,5 hPa 0,0 mm 16,4 km/h (3 Bft) NW 325 ° 1 min 0,000 mm 4,8 UV-I 773 W/m² 5,3 °C 14,5 °C 24,1 km/h (4 Bft)
13.04.2018 14:14 14,4 °C 55 % 1006,5 hPa 0,0 mm 13,9 km/h (3 Bft) W-NW 288 ° 1 min 0,000 mm 4,7 UV-I 782 W/m² 5,5 °C 14,4 °C 20,9 km/h (4 Bft)
13.04.2018 14:15 14,5 °C 54 % 1006,6 hPa 0,0 mm 20,3 km/h (4 Bft) W-NW 292 ° 1 min 0,000 mm 4,6 UV-I 738 W/m² 5,3 °C 14,5 °C 29,0 km/h (5 Bft)
13.04.2018 14:16 14,4 °C 54 % 1006,5 hPa 0,0 mm 13,5 km/h (3 Bft) W-NW 300 ° 1 min 0,000 mm 4,6 UV-I 752 W/m² 5,2 °C 14,4 °C 22,5 km/h (4 Bft)
13.04.2018 14:17 14,6 °C 55 % 1006,5 hPa 0,0 mm 12,0 km/h (2 Bft) W-SW 246 ° 1 min 0,000 mm 4,6 UV-I 773 W/m² 5,7 °C 14,6 °C 20,9 km/h (4 Bft)
13.04.2018 14:18 14,6 °C 57 % 1006,6 hPa 0,0 mm 13,5 km/h (3 Bft) W-NW 290 ° 1 min 0,000 mm 4,8 UV-I 779 W/m² 6,2 °C 14,6 °C 19,3 km/h (3 Bft)
13.04.2018 14:19 14,7 °C 57 % 1006,6 hPa 0,0 mm 15,1 km/h (3 Bft) W-SW 245 ° 1 min 0,000 mm 4,9 UV-I 817 W/m² 6,3 °C 14,7 °C 25,7 km/h (4 Bft)
13.04.2018 14:20 14,8 °C 56 % 1006,6 hPa 0,0 mm 20,8 km/h (4 Bft) W-NW 286 ° 1 min 0,000 mm 4,9 UV-I 817 W/m² 6,1 °C 14,8 °C 27,4 km/h (4 Bft)
13.04.2018 14:21 14,8 °C 54 % 1006,7 hPa 0,0 mm 16,9 km/h (3 Bft) W-SW 252 ° 1 min 0,000 mm 4,8 UV-I 817 W/m² 5,6 °C 14,8 °C 27,4 km/h (4 Bft)
13.04.2018 14:22 14,8 °C 55 % 1006,7 hPa 0,0 mm 16,0 km/h (3 Bft) W-NW 285 ° 1 min 0,000 mm 4,5 UV-I 772 W/m² 5,8 °C 14,8 °C 22,5 km/h (4 Bft)
13.04.2018 14:23 14,7 °C 55 % 1006,7 hPa 0,0 mm 13,4 km/h (3 Bft) W-NW 299 ° 1 min 0,000 mm 4,2 UV-I 679 W/m² 5,8 °C 14,7 °C 22,5 km/h (4 Bft)
13.04.2018 14:24 14,7 °C 54 % 1006,7 hPa 0,0 mm 11,9 km/h (2 Bft) NW 304 ° 1 min 0,000 mm 4,6 UV-I 744 W/m² 5,5 °C 14,7 °C 20,9 km/h (4 Bft)
13.04.2018 14:25 14,7 °C 54 % 1006,7 hPa 0,0 mm 7,9 km/h (2 Bft) N-NW 329 ° 1 min 0,000 mm 2,3 UV-I 744 W/m² 5,5 °C 14,7 °C 16,1 km/h (3 Bft)
13.04.2018 14:26 14,6 °C 53 % 1006,8 hPa 0,0 mm 15,2 km/h (3 Bft) N-NW 338 ° 1 min 0,000 mm 4,5 UV-I 744 W/m² 5,1 °C 14,6 °C 20,9 km/h (4 Bft)
13.04.2018 14:27 14,4 °C 55 % 1006,8 hPa 0,0 mm 15,0 km/h (3 Bft) W-NW 296 ° 1 min 0,000 mm 2,7 UV-I 744 W/m² 5,5 °C 14,4 °C 20,9 km/h (4 Bft)
13.04.2018 14:28 14,3 °C 54 % 1006,8 hPa 0,0 mm 15,9 km/h (3 Bft) NW 316 ° 1 min 0,000 mm 2,1 UV-I 744 W/m² 5,1 °C 14,3 °C 20,9 km/h (4 Bft)
13.04.2018 14:29 14,1 °C 54 % 1006,8 hPa 0,0 mm 8,1 km/h (2 Bft) W 279 ° 0 min 0,000 mm 2,7 UV-I 185 W/m² 4,9 °C 14,1 °C 14,5 km/h (3 Bft)
13.04.2018 14:30 13,9 °C 55 % 1006,8 hPa 0,0 mm 15,9 km/h (3 Bft) W 277 ° 0 min 0,000 mm 2,0 UV-I 137 W/m² 5,0 °C 13,9 °C 20,9 km/h (4 Bft)
13.04.2018 14:31 13,8 °C 55 % 1006,7 hPa 0,0 mm 15,1 km/h (3 Bft) W-NW 286 ° 0 min 0,000 mm 2,0 UV-I 142 W/m² 4,9 °C 13,8 °C 24,1 km/h (4 Bft)
13.04.2018 14:32 13,7 °C 57 % 1006,8 hPa 0,0 mm 12,7 km/h (3 Bft) NW 309 ° 0 min 0,000 mm 2,7 UV-I 142 W/m² 5,3 °C 13,7 °C 19,3 km/h (3 Bft)
13.04.2018 14:33 13,6 °C 56 % 1006,8 hPa 0,0 mm 11,2 km/h (2 Bft) W-NW 286 ° 0 min 0,000 mm 3,4 UV-I 142 W/m² 5,0 °C 13,6 °C 20,9 km/h (4 Bft)
13.04.2018 14:34 13,6 °C 58 % 1006,7 hPa 0,0 mm 11,2 km/h (2 Bft) W-NW 290 ° 0 min 0,000 mm 2,0 UV-I 142 W/m² 5,5 °C 13,6 °C 19,3 km/h (3 Bft)
13.04.2018 14:35 13,7 °C 57 % 1006,8 hPa 0,0 mm 13,8 km/h (3 Bft) NW 310 ° 0 min 0,000 mm 2,0 UV-I 149 W/m² 5,3 °C 13,7 °C 17,7 km/h (3 Bft)
13.04.2018 14:36 13,7 °C 57 % 1006,8 hPa 0,0 mm 11,9 km/h (2 Bft) W 281 ° 0 min 0,000 mm 1,9 UV-I 156 W/m² 5,3 °C 13,7 °C 16,1 km/h (3 Bft)
13.04.2018 14:37 13,7 °C 58 % 1006,9 hPa 0,0 mm 16,2 km/h (3 Bft) W 278 ° 0 min 0,000 mm 1,7 UV-I 123 W/m² 5,6 °C 13,7 °C 24,1 km/h (4 Bft)
13.04.2018 14:38 13,7 °C 57 % 1006,9 hPa 0,0 mm 16,1 km/h (3 Bft) W 281 ° 0 min 0,000 mm 1,6 UV-I 118 W/m² 5,3 °C 13,7 °C 24,1 km/h (4 Bft)
13.04.2018 14:39 13,6 °C 56 % 1006,9 hPa 0,0 mm 16,9 km/h (3 Bft) NW 326 ° 0 min 0,000 mm 1,5 UV-I 113 W/m² 5,0 °C 13,6 °C 22,5 km/h (4 Bft)
13.04.2018 14:40 13,5 °C 56 % 1006,9 hPa 0,0 mm 14,2 km/h (3 Bft) W-SW 255 ° 0 min 0,000 mm 1,4 UV-I 107 W/m² 4,9 °C 13,5 °C 22,5 km/h (4 Bft)
13.04.2018 14:41 13,4 °C 57 % 1007,0 hPa 0,0 mm 12,0 km/h (2 Bft) W 276 ° 0 min 0,000 mm 1,3 UV-I 100 W/m² 5,1 °C 13,4 °C 14,5 km/h (3 Bft)
13.04.2018 14:42 13,4 °C 57 % 1007,0 hPa 0,0 mm 12,5 km/h (3 Bft) W 275 ° 0 min 0,000 mm 1,2 UV-I 95 W/m² 5,1 °C 13,4 °C 19,3 km/h (3 Bft)
13.04.2018 14:43 13,3 °C 58 % 1007,1 hPa 0,0 mm 17,8 km/h (3 Bft) W-NW 296 ° 0 min 0,000 mm 1,2 UV-I 91 W/m² 5,2 °C 13,3 °C 29,0 km/h (5 Bft)
13.04.2018 14:44 13,3 °C 56 % 1007,1 hPa 0,0 mm 15,4 km/h (3 Bft) W-SW 250 ° 0 min 0,000 mm 1,1 UV-I 90 W/m² 4,7 °C 13,3 °C 20,9 km/h (4 Bft)
13.04.2018 14:45 13,2 °C 56 % 1007,1 hPa 0,0 mm 16,0 km/h (3 Bft) W-SW 257 ° 0 min 0,000 mm 1,0 UV-I 90 W/m² 4,6 °C 13,2 °C 19,3 km/h (3 Bft)
13.04.2018 14:46 13,1 °C 58 % 1007,2 hPa 0,0 mm 17,7 km/h (3 Bft) W-NW 286 ° 0 min 0,000 mm 1,0 UV-I 90 W/m² 5,0 °C 13,1 °C 27,4 km/h (4 Bft)
13.04.2018 14:47 13,0 °C 60 % 1007,2 hPa 0,0 mm 14,8 km/h (3 Bft) W 266 ° 0 min 0,000 mm 0,9 UV-I 88 W/m² 5,4 °C 13,0 °C 22,5 km/h (4 Bft)
13.04.2018 14:48 12,8 °C 61 % 1007,2 hPa 0,0 mm 12,4 km/h (3 Bft) W-NW 284 ° 0 min 0,000 mm 0,9 UV-I 88 W/m² 5,5 °C 12,8 °C 17,7 km/h (3 Bft)
13.04.2018 14:49 12,7 °C 60 % 1007,3 hPa 0,0 mm 17,6 km/h (3 Bft) W-NW 287 ° 0 min 0,000 mm 0,8 UV-I 86 W/m² 5,1 °C 12,7 °C 24,1 km/h (4 Bft)
13.04.2018 14:50 12,6 °C 61 % 1007,3 hPa 0,0 mm 10,7 km/h (2 Bft) W-NW 298 ° 0 min 0,000 mm 0,7 UV-I 79 W/m² 5,3 °C 12,6 °C 16,1 km/h (3 Bft)
13.04.2018 14:51 12,4 °C 63 % 1007,5 hPa 0,0 mm 5,9 km/h (2 Bft) W 259 ° 0 min 0,000 mm 0,7 UV-I 76 W/m² 5,6 °C 12,4 °C 11,3 km/h (2 Bft)
13.04.2018 14:52 12,3 °C 64 % 1007,5 hPa 0,0 mm 8,7 km/h (2 Bft) W 277 ° 0 min 0,000 mm 0,6 UV-I 76 W/m² 5,7 °C 12,3 °C 12,9 km/h (3 Bft)
13.04.2018 14:53 12,3 °C 66 % 1007,4 hPa 0,0 mm 8,5 km/h (2 Bft) W-NW 288 ° 0 min 0,000 mm 0,6 UV-I 72 W/m² 6,1 °C 12,3 °C 12,9 km/h (3 Bft)
13.04.2018 14:54 12,1 °C 67 % 1007,5 hPa 0,2 mm 4,1 km/h (1 Bft) W 261 ° 0 min 0,000 mm 0,6 UV-I 70 W/m² 6,2 °C 12,1 °C 9,7 km/h (2 Bft)
13.04.2018 14:55 11,9 °C 68 % 1007,5 hPa 0,0 mm 3,7 km/h (1 Bft) W 270 ° 0 min 0,000 mm 0,5 UV-I 65 W/m² 6,2 °C 11,9 °C 6,4 km/h (2 Bft)
13.04.2018 14:56 11,8 °C 68 % 1007,4 hPa 0,0 mm 5,3 km/h (1 Bft) W 270 ° 0 min 0,000 mm 0,5 UV-I 65 W/m² 6,1 °C 11,8 °C 11,3 km/h (2 Bft)
13.04.2018 14:57 11,6 °C 69 % 1007,4 hPa 0,0 mm 1,9 km/h (1 Bft) W-SW 246 ° 0 min 0,000 mm 0,5 UV-I 67 W/m² 6,1 °C 11,6 °C 4,8 km/h (1 Bft)
13.04.2018 14:58 11,3 °C 73 % 1007,5 hPa 0,0 mm 3,9 km/h (1 Bft) W-SW 250 ° 0 min 0,000 mm 0,5 UV-I 67 W/m² 6,6 °C 11,3 °C 4,8 km/h (1 Bft)
13.04.2018 14:59 11,2 °C 71 % 1007,4 hPa 0,2 mm 0,8 km/h (0 Bft) W-SW 250 ° 0 min 0,000 mm 0,5 UV-I 69 W/m² 6,1 °C 11,2 °C 1,6 km/h (1 Bft)
13.04.2018 15:00 11,1 °C 73 % 1007,4 hPa 0,0 mm 1,8 km/h (1 Bft) SW 236 ° 0 min 0,254 mm 0,5 UV-I 74 W/m² 6,4 °C 11,1 °C 4,8 km/h (1 Bft)
13.04.2018 15:01 11,0 °C 74 % 1007,4 hPa 0,0 mm 2,3 km/h (1 Bft) W-SW 237 ° 0 min 0,000 mm 0,6 UV-I 81 W/m² 6,5 °C 11,0 °C 3,2 km/h (1 Bft)
13.04.2018 15:02 10,9 °C 74 % 1007,5 hPa 0,0 mm 2,2 km/h (1 Bft) W-SW 237 ° 0 min 0,000 mm 0,7 UV-I 91 W/m² 6,5 °C 10,9 °C 3,2 km/h (1 Bft)
13.04.2018 15:03 10,9 °C 75 % 1007,5 hPa 0,0 mm 1,7 km/h (1 Bft) W-SW 239 ° 0 min 0,000 mm 0,9 UV-I 107 W/m² 6,6 °C 10,9 °C 4,8 km/h (1 Bft)
13.04.2018 15:04 10,9 °C 76 % 1007,5 hPa 0,0 mm 1,9 km/h (1 Bft) W-SW 239 ° 0 min 0,000 mm 1,0 UV-I 125 W/m² 6,8 °C 10,9 °C 3,2 km/h (1 Bft)
13.04.2018 15:05 10,9 °C 76 % 1007,5 hPa 0,0 mm 0,7 km/h (0 Bft) W-SW 250 ° 0 min 0,000 mm 1,2 UV-I 144 W/m² 6,8 °C 10,9 °C 3,2 km/h (1 Bft)
13.04.2018 15:06 10,9 °C 77 % 1007,5 hPa 0,0 mm 4,1 km/h (1 Bft) W-SW 252 ° 0 min 0,000 mm 1,3 UV-I 172 W/m² 7,0 °C 10,9 °C 4,8 km/h (1 Bft)
13.04.2018 15:07 11,1 °C 75 % 1007,5 hPa 0,0 mm 3,2 km/h (1 Bft) W-NW 288 ° 0 min 0,000 mm 1,3 UV-I 172 W/m² 6,8 °C 11,1 °C 6,4 km/h (2 Bft)
13.04.2018 15:08 11,3 °C 76 % 1007,5 hPa 0,0 mm 4,4 km/h (1 Bft) W-NW 292 ° 0 min 0,000 mm 1,4 UV-I 181 W/m² 7,2 °C 11,3 °C 9,7 km/h (2 Bft)
13.04.2018 15:09 11,5 °C 75 % 1007,5 hPa 0,0 mm 7,3 km/h (2 Bft) W-SW 242 ° 0 min 0,000 mm 1,5 UV-I 188 W/m² 7,2 °C 11,5 °C 11,3 km/h (2 Bft)
13.04.2018 15:10 11,7 °C 70 % 1007,6 hPa 0,0 mm 4,4 km/h (1 Bft) SW 234 ° 0 min 0,000 mm 1,5 UV-I 197 W/m² 6,4 °C 11,7 °C 6,4 km/h (2 Bft)
13.04.2018 15:11 11,9 °C 68 % 1007,6 hPa 0,0 mm 5,6 km/h (1 Bft) SW 233 ° 0 min 0,000 mm 1,5 UV-I 204 W/m² 6,2 °C 11,9 °C 12,9 km/h (3 Bft)
13.04.2018 15:12 12,0 °C 70 % 1007,6 hPa 0,0 mm 11,1 km/h (2 Bft) W 265 ° 0 min 0,000 mm 1,6 UV-I 223 W/m² 6,7 °C 12,0 °C 14,5 km/h (3 Bft)
13.04.2018 15:13 12,2 °C 67 % 1007,6 hPa 0,0 mm 6,3 km/h (2 Bft) W-SW 242 ° 0 min 0,000 mm 1,7 UV-I 229 W/m² 6,3 °C 12,2 °C 11,3 km/h (2 Bft)
13.04.2018 15:14 12,2 °C 68 % 1007,6 hPa 0,0 mm 6,0 km/h (2 Bft) W-SW 248 ° 0 min 0,000 mm 1,7 UV-I 230 W/m² 6,5 °C 12,2 °C 12,9 km/h (3 Bft)
13.04.2018 15:15 12,3 °C 67 % 1007,6 hPa 0,0 mm 12,2 km/h (2 Bft) W-SW 244 ° 0 min 0,000 mm 1,7 UV-I 220 W/m² 6,4 °C 12,3 °C 19,3 km/h (3 Bft)
13.04.2018 15:16 12,4 °C 68 % 1007,6 hPa 0,0 mm 4,9 km/h (1 Bft) W 269 ° 0 min 0,000 mm 1,6 UV-I 213 W/m² 6,7 °C 12,4 °C 9,7 km/h (2 Bft)
13.04.2018 15:17 12,4 °C 68 % 1007,6 hPa 0,0 mm 6,9 km/h (2 Bft) SW 233 ° 0 min 0,000 mm 1,6 UV-I 209 W/m² 6,7 °C 12,4 °C 11,3 km/h (2 Bft)
13.04.2018 15:18 12,5 °C 67 % 1007,7 hPa 0,0 mm 4,2 km/h (1 Bft) SW 234 ° 0 min 0,000 mm 1,6 UV-I 214 W/m² 6,5 °C 12,5 °C 6,4 km/h (2 Bft)
13.04.2018 15:19 12,5 °C 66 % 1007,7 hPa 0,0 mm 3,1 km/h (1 Bft) SW 223 ° 0 min 0,000 mm 1,7 UV-I 220 W/m² 6,3 °C 12,5 °C 6,4 km/h (2 Bft)
13.04.2018 15:20 12,6 °C 65 % 1007,7 hPa 0,0 mm 5,6 km/h (1 Bft) W 275 ° 0 min 0,000 mm 1,7 UV-I 199 W/m² 6,2 °C 12,6 °C 8,0 km/h (2 Bft)
13.04.2018 15:21 12,7 °C 68 % 1007,7 hPa 0,0 mm 8,6 km/h (2 Bft) W-SW 249 ° 0 min 0,000 mm 1,7 UV-I 206 W/m² 6,9 °C 12,7 °C 12,9 km/h (3 Bft)
13.04.2018 15:22 12,7 °C 66 % 1007,7 hPa 0,0 mm 7,6 km/h (2 Bft) W-SW 253 ° 0 min 0,000 mm 1,8 UV-I 223 W/m² 6,5 °C 12,7 °C 11,3 km/h (2 Bft)
13.04.2018 15:23 12,7 °C 67 % 1007,7 hPa 0,0 mm 4,2 km/h (1 Bft) S-SW 198 ° 0 min 0,000 mm 1,7 UV-I 193 W/m² 6,7 °C 12,7 °C 6,4 km/h (2 Bft)
13.04.2018 15:24 12,7 °C 67 % 1007,7 hPa 0,0 mm 6,3 km/h (2 Bft) W 263 ° 0 min 0,000 mm 1,9 UV-I 246 W/m² 6,7 °C 12,7 °C 11,3 km/h (2 Bft)
13.04.2018 15:25 12,8 °C 65 % 1007,7 hPa 0,0 mm 7,1 km/h (2 Bft) SW 236 ° 0 min 0,000 mm 1,9 UV-I 246 W/m² 6,4 °C 12,8 °C 12,9 km/h (3 Bft)
13.04.2018 15:26 12,8 °C 63 % 1007,7 hPa 0,0 mm 8,5 km/h (2 Bft) W-SW 257 ° 0 min 0,000 mm 1,7 UV-I 183 W/m² 5,9 °C 12,8 °C 12,9 km/h (3 Bft)
13.04.2018 15:27 12,9 °C 65 % 1007,8 hPa 0,0 mm 9,1 km/h (2 Bft) W-SW 255 ° 0 min 0,000 mm 1,7 UV-I 179 W/m² 6,5 °C 12,9 °C 12,9 km/h (3 Bft)
13.04.2018 15:28 12,9 °C 65 % 1007,8 hPa 0,0 mm 5,7 km/h (1 Bft) W-SW 248 ° 0 min 0,000 mm 1,7 UV-I 179 W/m² 6,5 °C 12,9 °C 6,4 km/h (2 Bft)
13.04.2018 15:29 12,9 °C 65 % 1007,8 hPa 0,0 mm 5,4 km/h (1 Bft) W-SW 242 ° 0 min 0,000 mm 1,7 UV-I 192 W/m² 6,5 °C 12,9 °C 8,0 km/h (2 Bft)
13.04.2018 15:30 12,9 °C 65 % 1007,8 hPa 0,0 mm 7,7 km/h (2 Bft) W-SW 244 ° 0 min 0,000 mm 1,8 UV-I 183 W/m² 6,5 °C 12,9 °C 12,9 km/h (3 Bft)
13.04.2018 15:31 13,0 °C 63 % 1007,8 hPa 0,0 mm 3,4 km/h (1 Bft) W-SW 252 ° 0 min 0,000 mm 1,6 UV-I 176 W/m² 6,1 °C 13,0 °C 6,4 km/h (2 Bft)
13.04.2018 15:32 13,0 °C 65 % 1007,9 hPa 0,0 mm 10,4 km/h (2 Bft) W-NW 289 ° 0 min 0,000 mm 1,5 UV-I 176 W/m² 6,6 °C 13,0 °C 12,9 km/h (3 Bft)
13.04.2018 15:33 13,0 °C 63 % 1007,9 hPa 0,0 mm 9,0 km/h (2 Bft) W-SW 242 ° 0 min 0,000 mm 1,4 UV-I 171 W/m² 6,1 °C 13,0 °C 12,9 km/h (3 Bft)
13.04.2018 15:34 13,0 °C 61 % 1007,9 hPa 0,0 mm 13,5 km/h (3 Bft) W 260 ° 0 min 0,000 mm 1,3 UV-I 163 W/m² 5,7 °C 13,0 °C 22,5 km/h (4 Bft)
13.04.2018 15:35 13,1 °C 62 % 1007,9 hPa 0,0 mm 12,7 km/h (3 Bft) W-SW 252 ° 0 min 0,000 mm 1,3 UV-I 158 W/m² 6,0 °C 13,1 °C 19,3 km/h (3 Bft)
13.04.2018 15:36 13,1 °C 58 % 1008,0 hPa 0,0 mm 14,8 km/h (3 Bft) W 267 ° 0 min 0,000 mm 1,2 UV-I 139 W/m² 5,0 °C 13,1 °C 20,9 km/h (4 Bft)
13.04.2018 15:37 13,1 °C 59 % 1008,0 hPa 0,0 mm 15,6 km/h (3 Bft) W 277 ° 0 min 0,000 mm 1,1 UV-I 134 W/m² 5,3 °C 13,1 °C 22,5 km/h (4 Bft)
13.04.2018 15:38 13,0 °C 59 % 1008,0 hPa 0,0 mm 9,3 km/h (2 Bft) W-SW 257 ° 0 min 0,000 mm 1,1 UV-I 132 W/m² 5,2 °C 13,0 °C 14,5 km/h (3 Bft)
13.04.2018 15:39 12,9 °C 61 % 1008,0 hPa 0,0 mm 7,5 km/h (2 Bft) W 259 ° 0 min 0,000 mm 1,2 UV-I 132 W/m² 5,6 °C 12,9 °C 11,3 km/h (2 Bft)
13.04.2018 15:40 12,9 °C 58 % 1008,0 hPa 0,0 mm 7,3 km/h (2 Bft) W 264 ° 0 min 0,000 mm 1,3 UV-I 141 W/m² 4,8 °C 12,9 °C 12,9 km/h (3 Bft)
13.04.2018 15:41 13,0 °C 60 % 1008,1 hPa 0,0 mm 11,8 km/h (2 Bft) SW 232 ° 0 min 0,000 mm 1,3 UV-I 153 W/m² 5,4 °C 13,0 °C 17,7 km/h (3 Bft)
13.04.2018 15:42 12,9 °C 58 % 1008,0 hPa 0,0 mm 12,2 km/h (2 Bft) SW 225 ° 0 min 0,000 mm 1,6 UV-I 153 W/m² 4,8 °C 12,9 °C 20,9 km/h (4 Bft)
13.04.2018 15:43 13,1 °C 59 % 1008,1 hPa 0,0 mm 9,3 km/h (2 Bft) W-NW 284 ° 0 min 0,000 mm 2,9 UV-I 153 W/m² 5,3 °C 13,1 °C 14,5 km/h (3 Bft)
13.04.2018 15:44 13,3 °C 60 % 1008,1 hPa 0,0 mm 12,3 km/h (3 Bft) W-NW 296 ° 1 min 0,000 mm 3,0 UV-I 638 W/m² 5,7 °C 13,3 °C 19,3 km/h (3 Bft)
13.04.2018 15:45 13,4 °C 59 % 1008,1 hPa 0,0 mm 13,4 km/h (3 Bft) W-SW 252 ° 1 min 0,000 mm 3,0 UV-I 659 W/m² 5,6 °C 13,4 °C 22,5 km/h (4 Bft)
13.04.2018 15:46 13,6 °C 58 % 1008,1 hPa 0,0 mm 14,1 km/h (3 Bft) W-NW 283 ° 1 min 0,000 mm 2,9 UV-I 636 W/m² 5,5 °C 13,6 °C 22,5 km/h (4 Bft)
13.04.2018 15:47 13,6 °C 60 % 1008,2 hPa 0,0 mm 12,4 km/h (3 Bft) W 263 ° 0 min 0,000 mm 2,9 UV-I 193 W/m² 6,0 °C 13,6 °C 19,3 km/h (3 Bft)
13.04.2018 15:48 13,7 °C 58 % 1008,2 hPa 0,0 mm 9,1 km/h (2 Bft) SW 231 ° 0 min 0,000 mm 1,6 UV-I 197 W/m² 5,6 °C 13,7 °C 17,7 km/h (3 Bft)
13.04.2018 15:49 13,6 °C 57 % 1008,2 hPa 0,0 mm 6,3 km/h (2 Bft) W-SW 247 ° 0 min 0,000 mm 1,5 UV-I 185 W/m² 5,2 °C 13,6 °C 8,0 km/h (2 Bft)
13.04.2018 15:50 13,5 °C 59 % 1008,2 hPa 0,0 mm 5,8 km/h (2 Bft) S-SW 199 ° 0 min 0,000 mm 1,5 UV-I 171 W/m² 5,6 °C 13,5 °C 11,3 km/h (2 Bft)
13.04.2018 15:51 13,4 °C 57 % 1008,3 hPa 0,0 mm 8,7 km/h (2 Bft) S-SW 196 ° 0 min 0,000 mm 1,4 UV-I 156 W/m² 5,1 °C 13,4 °C 12,9 km/h (3 Bft)
13.04.2018 15:52 13,3 °C 57 % 1008,2 hPa 0,0 mm 10,0 km/h (2 Bft) S 174 ° 0 min 0,000 mm 1,3 UV-I 151 W/m² 5,0 °C 13,3 °C 17,7 km/h (3 Bft)
13.04.2018 15:53 13,2 °C 56 % 1008,2 hPa 0,0 mm 2,1 km/h (1 Bft) SW 229 ° 0 min 0,000 mm 1,3 UV-I 146 W/m² 4,6 °C 13,2 °C 4,8 km/h (1 Bft)
13.04.2018 15:54 13,1 °C 58 % 1008,2 hPa 0,0 mm 7,8 km/h (2 Bft) W 274 ° 0 min 0,000 mm 1,1 UV-I 142 W/m² 5,0 °C 13,1 °C 14,5 km/h (3 Bft)
13.04.2018 15:55 13,1 °C 60 % 1008,2 hPa 0,0 mm 15,5 km/h (3 Bft) SO 130 ° 0 min 0,000 mm 1,1 UV-I 139 W/m² 5,5 °C 13,1 °C 19,3 km/h (3 Bft)
13.04.2018 15:56 12,9 °C 59 % 1008,2 hPa 0,0 mm 4,3 km/h (1 Bft) SO 124 ° 0 min 0,000 mm 1,1 UV-I 139 W/m² 5,1 °C 12,9 °C 8,0 km/h (2 Bft)
13.04.2018 15:57 12,8 °C 59 % 1008,2 hPa 0,0 mm 7,1 km/h (2 Bft) S-SO 148 ° 0 min 0,000 mm 1,1 UV-I 141 W/m² 5,0 °C 12,8 °C 9,7 km/h (2 Bft)
13.04.2018 15:58 12,6 °C 54 % 1008,3 hPa 0,0 mm 5,6 km/h (1 Bft) O 101 ° 0 min 0,000 mm 1,1 UV-I 149 W/m² 3,5 °C 12,6 °C 8,0 km/h (2 Bft)
13.04.2018 15:59 12,5 °C 57 % 1008,2 hPa 0,0 mm 3,1 km/h (1 Bft) O-SO 113 ° 0 min 0,000 mm 1,2 UV-I 160 W/m² 4,2 °C 12,5 °C 6,4 km/h (2 Bft)
13.04.2018 16:00 12,5 °C 58 % 1008,3 hPa 0,0 mm 2,0 km/h (1 Bft) W-SW 258 ° 0 min 0,127 mm 2,0 UV-I 160 W/m² 4,5 °C 12,5 °C 4,8 km/h (1 Bft)
13.04.2018 16:01 12,6 °C 60 % 1008,4 hPa 0,0 mm 4,5 km/h (1 Bft) NW 306 ° 0 min 0,000 mm 2,6 UV-I 160 W/m² 5,0 °C 12,6 °C 4,8 km/h (1 Bft)
13.04.2018 16:02 12,7 °C 59 % 1008,4 hPa 0,0 mm 3,7 km/h (1 Bft) NW 317 ° 0 min 0,000 mm 3,1 UV-I 160 W/m² 4,9 °C 12,7 °C 4,8 km/h (1 Bft)
13.04.2018 16:03 13,0 °C 59 % 1008,4 hPa 0,0 mm 7,6 km/h (2 Bft) W-NW 289 ° 1 min 0,000 mm 3,3 UV-I 784 W/m² 5,2 °C 13,0 °C 22,5 km/h (4 Bft)
13.04.2018 16:04 13,3 °C 55 % 1008,5 hPa 0,0 mm 11,7 km/h (2 Bft) W 275 ° 1 min 0,000 mm 3,1 UV-I 754 W/m² 4,5 °C 13,3 °C 19,3 km/h (3 Bft)
13.04.2018 16:05 13,6 °C 58 % 1008,4 hPa 0,0 mm 13,8 km/h (3 Bft) W 264 ° 1 min 0,000 mm 3,1 UV-I 443 W/m² 5,5 °C 13,6 °C 22,5 km/h (4 Bft)
13.04.2018 16:06 13,8 °C 56 % 1008,4 hPa 0,0 mm 12,3 km/h (3 Bft) NW 313 ° 1 min 0,000 mm 3,4 UV-I 443 W/m² 5,2 °C 13,8 °C 19,3 km/h (3 Bft)
13.04.2018 16:07 13,9 °C 55 % 1008,4 hPa 0,0 mm 7,9 km/h (2 Bft) SW 219 ° 1 min 0,000 mm 3,4 UV-I 788 W/m² 5,0 °C 13,9 °C 14,5 km/h (3 Bft)
13.04.2018 16:08 14,1 °C 52 % 1008,5 hPa 0,0 mm 12,1 km/h (2 Bft) W 262 ° 1 min 0,000 mm 2,0 UV-I 788 W/m² 4,4 °C 14,1 °C 17,7 km/h (3 Bft)
13.04.2018 16:09 14,1 °C 52 % 1008,4 hPa 0,0 mm 14,1 km/h (3 Bft) W 280 ° 1 min 0,000 mm 1,9 UV-I 788 W/m² 4,4 °C 14,1 °C 19,3 km/h (3 Bft)
13.04.2018 16:10 14,1 °C 53 % 1008,5 hPa 0,0 mm 12,2 km/h (2 Bft) W-SW 252 ° 0 min 0,000 mm 1,8 UV-I 220 W/m² 4,7 °C 14,1 °C 17,7 km/h (3 Bft)
13.04.2018 16:11 13,9 °C 54 % 1008,6 hPa 0,0 mm 12,1 km/h (2 Bft) W-NW 297 ° 0 min 0,000 mm 1,8 UV-I 220 W/m² 4,7 °C 13,9 °C 20,9 km/h (4 Bft)
13.04.2018 16:12 13,8 °C 53 % 1008,6 hPa 0,0 mm 11,9 km/h (2 Bft) NW 304 ° 0 min 0,000 mm 1,7 UV-I 220 W/m² 4,4 °C 13,8 °C 19,3 km/h (3 Bft)
13.04.2018 16:13 13,7 °C 53 % 1008,6 hPa 0,0 mm 8,8 km/h (2 Bft) W-NW 289 ° 0 min 0,000 mm 1,7 UV-I 227 W/m² 4,3 °C 13,7 °C 17,7 km/h (3 Bft)
13.04.2018 16:14 13,7 °C 57 % 1008,5 hPa 0,0 mm 14,5 km/h (3 Bft) NW 318 ° 0 min 0,000 mm 1,7 UV-I 232 W/m² 5,3 °C 13,7 °C 22,5 km/h (4 Bft)
13.04.2018 16:15 13,6 °C 55 % 1008,6 hPa 0,0 mm 11,4 km/h (2 Bft) W-SW 251 ° 0 min 0,000 mm 1,7 UV-I 236 W/m² 4,7 °C 13,6 °C 17,7 km/h (3 Bft)
13.04.2018 16:16 13,6 °C 57 % 1008,7 hPa 0,0 mm 6,2 km/h (2 Bft) S-SW 196 ° 0 min 0,000 mm 1,7 UV-I 248 W/m² 5,2 °C 13,6 °C 14,5 km/h (3 Bft)
13.04.2018 16:17 13,6 °C 58 % 1008,6 hPa 0,0 mm 5,1 km/h (1 Bft) W 267 ° 1 min 0,000 mm 2,1 UV-I 320 W/m² 5,5 °C 13,6 °C 6,4 km/h (2 Bft)
13.04.2018 16:18 13,7 °C 57 % 1008,6 hPa 0,0 mm 6,9 km/h (2 Bft) W-SW 252 ° 1 min 0,000 mm 2,6 UV-I 513 W/m² 5,3 °C 13,7 °C 14,5 km/h (3 Bft)
13.04.2018 16:19 13,8 °C 54 % 1008,7 hPa 0,0 mm 5,5 km/h (1 Bft) W 276 ° 1 min 0,000 mm 2,4 UV-I 513 W/m² 4,7 °C 13,8 °C 6,4 km/h (2 Bft)
13.04.2018 16:20 13,9 °C 55 % 1008,6 hPa 0,0 mm 4,7 km/h (1 Bft) W 269 ° 1 min 0,000 mm 1,8 UV-I 513 W/m² 5,0 °C 13,9 °C 6,4 km/h (2 Bft)
13.04.2018 16:21 13,9 °C 54 % 1008,7 hPa 0,0 mm 3,5 km/h (1 Bft) W 274 ° 0 min 0,000 mm 1,8 UV-I 239 W/m² 4,7 °C 13,9 °C 11,3 km/h (2 Bft)
13.04.2018 16:22 14,0 °C 54 % 1008,6 hPa 0,0 mm 5,7 km/h (1 Bft) S-SW 209 ° 0 min 0,000 mm 1,7 UV-I 220 W/m² 4,8 °C 14,0 °C 11,3 km/h (2 Bft)
13.04.2018 16:23 13,9 °C 54 % 1008,6 hPa 0,0 mm 4,3 km/h (1 Bft) S 188 ° 0 min 0,000 mm 1,6 UV-I 202 W/m² 4,7 °C 13,9 °C 6,4 km/h (2 Bft)
13.04.2018 16:24 13,8 °C 53 % 1008,6 hPa 0,0 mm 4,0 km/h (1 Bft) S-SW 209 ° 0 min 0,000 mm 1,5 UV-I 193 W/m² 4,4 °C 13,8 °C 6,4 km/h (2 Bft)
13.04.2018 16:25 13,8 °C 53 % 1008,7 hPa 0,0 mm 9,5 km/h (2 Bft) W 277 ° 0 min 0,000 mm 1,5 UV-I 185 W/m² 4,4 °C 13,8 °C 12,9 km/h (3 Bft)
13.04.2018 16:26 13,8 °C 54 % 1008,7 hPa 0,0 mm 6,9 km/h (2 Bft) W-NW 294 ° 0 min 0,000 mm 1,4 UV-I 185 W/m² 4,7 °C 13,8 °C 12,9 km/h (3 Bft)
13.04.2018 16:27 13,8 °C 53 % 1008,7 hPa 0,0 mm 4,3 km/h (1 Bft) W-SW 248 ° 0 min 0,000 mm 1,3 UV-I 179 W/m² 4,4 °C 13,8 °C 8,0 km/h (2 Bft)
13.04.2018 16:28 13,8 °C 53 % 1008,7 hPa 0,0 mm 4,8 km/h (1 Bft) W 276 ° 0 min 0,000 mm 1,3 UV-I 165 W/m² 4,4 °C 13,8 °C 4,8 km/h (1 Bft)
13.04.2018 16:29 13,8 °C 52 % 1008,7 hPa 0,0 mm 6,1 km/h (2 Bft) W-SW 257 ° 0 min 0,000 mm 1,2 UV-I 139 W/m² 4,1 °C 13,8 °C 9,7 km/h (2 Bft)
13.04.2018 16:30 13,8 °C 56 % 1008,7 hPa 0,0 mm 6,8 km/h (2 Bft) W 267 ° 0 min 0,000 mm 1,1 UV-I 137 W/m² 5,2 °C 13,8 °C 12,9 km/h (3 Bft)
13.04.2018 16:31 13,8 °C 53 % 1008,8 hPa 0,0 mm 9,9 km/h (2 Bft) W 263 ° 0 min 0,000 mm 1,1 UV-I 135 W/m² 4,4 °C 13,8 °C 12,9 km/h (3 Bft)
13.04.2018 16:32 13,7 °C 55 % 1008,8 hPa 0,0 mm 18,4 km/h (3 Bft) W 259 ° 0 min 0,000 mm 1,1 UV-I 134 W/m² 4,8 °C 13,7 °C 22,5 km/h (4 Bft)
13.04.2018 16:33 13,7 °C 53 % 1008,8 hPa 0,0 mm 15,6 km/h (3 Bft) W-NW 294 ° 0 min 0,000 mm 1,1 UV-I 134 W/m² 4,3 °C 13,7 °C 25,7 km/h (4 Bft)
13.04.2018 16:34 13,6 °C 54 % 1008,8 hPa 0,0 mm 19,0 km/h (3 Bft) W-SW 240 ° 0 min 0,000 mm 1,1 UV-I 132 W/m² 4,5 °C 13,6 °C 22,5 km/h (4 Bft)
13.04.2018 16:35 13,6 °C 53 % 1008,9 hPa 0,0 mm 19,9 km/h (4 Bft) W 281 ° 0 min 0,000 mm 1,1 UV-I 139 W/m² 4,2 °C 13,6 °C 25,7 km/h (4 Bft)
13.04.2018 16:36 13,5 °C 53 % 1008,9 hPa 0,0 mm 19,2 km/h (3 Bft) W 279 ° 0 min 0,000 mm 1,2 UV-I 153 W/m² 4,1 °C 13,5 °C 30,6 km/h (5 Bft)
13.04.2018 16:37 13,4 °C 53 % 1008,9 hPa 0,0 mm 12,9 km/h (3 Bft) W-SW 252 ° 0 min 0,000 mm 1,6 UV-I 153 W/m² 4,0 °C 13,4 °C 17,7 km/h (3 Bft)
13.04.2018 16:38 13,4 °C 53 % 1008,9 hPa 0,0 mm 11,3 km/h (2 Bft) W-NW 287 ° 0 min 0,000 mm 1,9 UV-I 153 W/m² 4,0 °C 13,4 °C 19,3 km/h (3 Bft)
13.04.2018 16:39 13,6 °C 53 % 1009,0 hPa 0,0 mm 14,5 km/h (3 Bft) W-NW 283 ° 0 min 0,000 mm 1,3 UV-I 171 W/m² 4,2 °C 13,6 °C 20,9 km/h (4 Bft)
13.04.2018 16:40 13,7 °C 54 % 1009,0 hPa 0,0 mm 9,1 km/h (2 Bft) W 261 ° 0 min 0,000 mm 1,3 UV-I 151 W/m² 4,6 °C 13,7 °C 19,3 km/h (3 Bft)
13.04.2018 16:41 13,7 °C 51 % 1009,0 hPa 0,0 mm 15,6 km/h (3 Bft) W-NW 283 ° 0 min 0,000 mm 1,2 UV-I 151 W/m² 3,8 °C 13,7 °C 20,9 km/h (4 Bft)
13.04.2018 16:42 13,6 °C 53 % 1009,0 hPa 0,0 mm 14,3 km/h (3 Bft) W 259 ° 0 min 0,000 mm 1,2 UV-I 155 W/m² 4,2 °C 13,6 °C 19,3 km/h (3 Bft)
13.04.2018 16:43 13,6 °C 51 % 1009,1 hPa 0,0 mm 14,4 km/h (3 Bft) W-NW 288 ° 0 min 0,000 mm 1,2 UV-I 155 W/m² 3,7 °C 13,6 °C 17,7 km/h (3 Bft)
13.04.2018 16:44 13,5 °C 51 % 1009,1 hPa 0,0 mm 10,7 km/h (2 Bft) W-NW 298 ° 0 min 0,000 mm 1,2 UV-I 151 W/m² 3,6 °C 13,5 °C 16,1 km/h (3 Bft)
13.04.2018 16:45 13,4 °C 51 % 1009,1 hPa 0,0 mm 10,2 km/h (2 Bft) W-NW 302 ° 0 min 0,000 mm 1,2 UV-I 156 W/m² 3,5 °C 13,4 °C 17,7 km/h (3 Bft)
13.04.2018 16:46 13,5 °C 50 % 1009,1 hPa 0,0 mm 17,3 km/h (3 Bft) W-NW 296 ° 0 min 0,000 mm 1,9 UV-I 156 W/m² 3,3 °C 13,5 °C 29,0 km/h (5 Bft)
13.04.2018 16:47 13,6 °C 53 % 1009,1 hPa 0,0 mm 11,4 km/h (2 Bft) W 260 ° 0 min 0,000 mm 1,4 UV-I 207 W/m² 4,2 °C 13,6 °C 17,7 km/h (3 Bft)
13.04.2018 16:48 13,6 °C 53 % 1009,1 hPa 0,0 mm 19,0 km/h (3 Bft) W 268 ° 0 min 0,000 mm 1,5 UV-I 216 W/m² 4,2 °C 13,6 °C 27,4 km/h (4 Bft)
13.04.2018 16:49 13,6 °C 52 % 1009,1 hPa 0,0 mm 16,7 km/h (3 Bft) W-NW 297 ° 0 min 0,000 mm 2,2 UV-I 216 W/m² 3,9 °C 13,6 °C 22,5 km/h (4 Bft)
13.04.2018 16:50 13,6 °C 52 % 1009,2 hPa 0,0 mm 15,9 km/h (3 Bft) NW 306 ° 1 min 0,000 mm 2,1 UV-I 439 W/m² 3,9 °C 13,6 °C 20,9 km/h (4 Bft)
13.04.2018 16:51 13,7 °C 50 % 1009,2 hPa 0,0 mm 10,0 km/h (2 Bft) W 277 ° 1 min 0,000 mm 1,5 UV-I 373 W/m² 3,5 °C 13,7 °C 14,5 km/h (3 Bft)
13.04.2018 16:52 13,7 °C 51 % 1009,2 hPa 0,0 mm 5,1 km/h (1 Bft) NW 317 ° 0 min 0,000 mm 1,4 UV-I 220 W/m² 3,8 °C 13,7 °C 9,7 km/h (2 Bft)
13.04.2018 16:53 13,8 °C 51 % 1009,2 hPa 0,0 mm 8,5 km/h (2 Bft) W 273 ° 0 min 0,000 mm 1,4 UV-I 220 W/m² 3,8 °C 13,8 °C 12,9 km/h (3 Bft)
13.04.2018 16:54 13,8 °C 54 % 1009,3 hPa 0,0 mm 14,4 km/h (3 Bft) NW 322 ° 0 min 0,000 mm 1,3 UV-I 213 W/m² 4,7 °C 13,8 °C 20,9 km/h (4 Bft)
13.04.2018 16:55 13,8 °C 53 % 1009,3 hPa 0,0 mm 4,8 km/h (1 Bft) NW 321 ° 0 min 0,000 mm 1,3 UV-I 213 W/m² 4,4 °C 13,8 °C 12,9 km/h (3 Bft)
13.04.2018 16:56 13,8 °C 54 % 1009,3 hPa 0,0 mm 11,6 km/h (2 Bft) N-NW 327 ° 0 min 0,000 mm 1,2 UV-I 183 W/m² 4,7 °C 13,8 °C 17,7 km/h (3 Bft)
13.04.2018 16:57 13,7 °C 54 % 1009,3 hPa 0,0 mm 13,0 km/h (3 Bft) W-NW 293 ° 0 min 0,000 mm 1,1 UV-I 142 W/m² 4,6 °C 13,7 °C 19,3 km/h (3 Bft)
13.04.2018 16:58 13,7 °C 53 % 1009,4 hPa 0,0 mm 10,6 km/h (2 Bft) W-NW 300 ° 0 min 0,000 mm 1,0 UV-I 132 W/m² 4,3 °C 13,7 °C 17,7 km/h (3 Bft)
13.04.2018 16:59 13,6 °C 54 % 1009,3 hPa 0,0 mm 10,1 km/h (2 Bft) W-NW 300 ° 0 min 0,000 mm 0,9 UV-I 134 W/m² 4,5 °C 13,6 °C 19,3 km/h (3 Bft)
13.04.2018 17:00 13,5 °C 54 % 1009,3 hPa 0,0 mm 11,8 km/h (2 Bft) W-NW 294 ° 0 min 0,000 mm 0,9 UV-I 134 W/m² 4,4 °C 13,5 °C 17,7 km/h (3 Bft)
13.04.2018 17:01 13,4 °C 54 % 1009,4 hPa 0,0 mm 10,7 km/h (2 Bft) W-NW 286 ° 0 min 0,203 mm 0,9 UV-I 153 W/m² 4,3 °C 13,4 °C 14,5 km/h (3 Bft)
13.04.2018 17:02 13,4 °C 55 % 1009,4 hPa 0,0 mm 6,3 km/h (2 Bft) W-NW 287 ° 0 min 0,000 mm 1,4 UV-I 178 W/m² 4,5 °C 13,4 °C 12,9 km/h (3 Bft)
13.04.2018 17:03 13,5 °C 55 % 1009,4 hPa 0,0 mm 6,6 km/h (2 Bft) NW 309 ° 0 min 0,000 mm 1,4 UV-I 178 W/m² 4,6 °C 13,5 °C 14,5 km/h (3 Bft)
13.04.2018 17:04 13,6 °C 56 % 1009,5 hPa 0,0 mm 13,9 km/h (3 Bft) NW 316 ° 0 min 0,000 mm 1,2 UV-I 244 W/m² 5,0 °C 13,6 °C 19,3 km/h (3 Bft)
13.04.2018 17:05 13,8 °C 56 % 1009,3 hPa 0,0 mm 12,7 km/h (3 Bft) NW 315 ° 0 min 0,000 mm 1,3 UV-I 232 W/m² 5,2 °C 13,8 °C 19,3 km/h (3 Bft)
13.04.2018 17:06 13,9 °C 55 % 1009,4 hPa 0,0 mm 14,6 km/h (3 Bft) NW 306 ° 0 min 0,000 mm 1,3 UV-I 230 W/m² 5,0 °C 13,9 °C 20,9 km/h (4 Bft)
13.04.2018 17:07 14,0 °C 56 % 1009,4 hPa 0,0 mm 12,0 km/h (2 Bft) NW 320 ° 0 min 0,000 mm 1,3 UV-I 223 W/m² 5,4 °C 14,0 °C 19,3 km/h (3 Bft)
13.04.2018 17:08 14,0 °C 54 % 1009,4 hPa 0,0 mm 13,9 km/h (3 Bft) NW 310 ° 0 min 0,000 mm 1,3 UV-I 221 W/m² 4,8 °C 14,0 °C 17,7 km/h (3 Bft)
13.04.2018 17:09 14,1 °C 54 % 1009,5 hPa 0,0 mm 7,3 km/h (2 Bft) W-NW 286 ° 0 min 0,000 mm 1,3 UV-I 241 W/m² 4,9 °C 14,1 °C 12,9 km/h (3 Bft)
13.04.2018 17:10 14,1 °C 55 % 1009,5 hPa 0,0 mm 14,9 km/h (3 Bft) W 261 ° 0 min 0,000 mm 1,2 UV-I 141 W/m² 5,2 °C 14,1 °C 27,4 km/h (4 Bft)
13.04.2018 17:11 14,1 °C 50 % 1009,6 hPa 0,0 mm 17,6 km/h (3 Bft) NW 307 ° 0 min 0,000 mm 1,2 UV-I 141 W/m² 3,8 °C 14,1 °C 25,7 km/h (4 Bft)
13.04.2018 17:12 13,9 °C 48 % 1009,6 hPa 0,0 mm 11,6 km/h (2 Bft) W-NW 300 ° 0 min 0,000 mm 1,2 UV-I 141 W/m² 3,1 °C 13,9 °C 14,5 km/h (3 Bft)
13.04.2018 17:13 13,8 °C 50 % 1009,5 hPa 0,0 mm 9,3 km/h (2 Bft) W-SW 246 ° 0 min 0,000 mm 1,2 UV-I 141 W/m² 3,6 °C 13,8 °C 16,1 km/h (3 Bft)
13.04.2018 17:14 13,7 °C 49 % 1009,6 hPa 0,0 mm 15,6 km/h (3 Bft) W-SW 257 ° 0 min 0,000 mm 1,3 UV-I 142 W/m² 3,2 °C 13,7 °C 20,9 km/h (4 Bft)
13.04.2018 17:15 13,6 °C 49 % 1009,6 hPa 0,0 mm 14,2 km/h (3 Bft) W-NW 284 ° 0 min 0,000 mm 1,2 UV-I 137 W/m² 3,1 °C 13,6 °C 17,7 km/h (3 Bft)
13.04.2018 17:16 13,6 °C 50 % 1009,7 hPa 0,0 mm 13,1 km/h (3 Bft) W 274 ° 0 min 0,000 mm 1,2 UV-I 151 W/m² 3,4 °C 13,6 °C 19,3 km/h (3 Bft)
13.04.2018 17:17 13,5 °C 50 % 1009,7 hPa 0,0 mm 14,3 km/h (3 Bft) W-NW 290 ° 0 min 0,000 mm 1,2 UV-I 169 W/m² 3,3 °C 13,5 °C 17,7 km/h (3 Bft)
13.04.2018 17:18 13,4 °C 52 % 1009,8 hPa 0,0 mm 10,9 km/h (2 Bft) W 280 ° 0 min 0,000 mm 1,2 UV-I 130 W/m² 3,7 °C 13,4 °C 16,1 km/h (3 Bft)
13.04.2018 17:19 13,4 °C 55 % 1009,8 hPa 0,0 mm 10,3 km/h (2 Bft) W-NW 303 ° 0 min 0,000 mm 1,1 UV-I 132 W/m² 4,5 °C 13,4 °C 16,1 km/h (3 Bft)
13.04.2018 17:20 13,3 °C 57 % 1009,8 hPa 0,0 mm 8,7 km/h (2 Bft) W 272 ° 0 min 0,000 mm 1,2 UV-I 137 W/m² 5,0 °C 13,3 °C 12,9 km/h (3 Bft)
13.04.2018 17:21 13,2 °C 58 % 1009,8 hPa 0,0 mm 12,0 km/h (2 Bft) NW 314 ° 0 min 0,000 mm 1,2 UV-I 142 W/m² 5,1 °C 13,2 °C 19,3 km/h (3 Bft)
13.04.2018 17:22 13,2 °C 59 % 1009,8 hPa 0,0 mm 15,8 km/h (3 Bft) NW 313 ° 0 min 0,000 mm 1,2 UV-I 146 W/m² 5,4 °C 13,2 °C 22,5 km/h (4 Bft)
13.04.2018 17:23 13,1 °C 59 % 1009,8 hPa 0,0 mm 9,9 km/h (2 Bft) NW 314 ° 0 min 0,000 mm 1,2 UV-I 158 W/m² 5,3 °C 13,1 °C 14,5 km/h (3 Bft)
13.04.2018 17:24 13,1 °C 60 % 1009,8 hPa 0,0 mm 9,0 km/h (2 Bft) NW 316 ° 0 min 0,000 mm 1,3 UV-I 158 W/m² 5,5 °C 13,1 °C 14,5 km/h (3 Bft)
13.04.2018 17:25 13,1 °C 59 % 1009,8 hPa 0,0 mm 10,2 km/h (2 Bft) NW 310 ° 0 min 0,000 mm 1,4 UV-I 246 W/m² 5,3 °C 13,1 °C 14,5 km/h (3 Bft)
13.04.2018 17:26 13,1 °C 59 % 1009,9 hPa 0,0 mm 4,6 km/h (1 Bft) NW 309 ° 0 min 0,000 mm 1,3 UV-I 204 W/m² 5,3 °C 13,1 °C 8,0 km/h (2 Bft)
13.04.2018 17:27 13,2 °C 62 % 1009,9 hPa 0,0 mm 7,1 km/h (2 Bft) W-NW 302 ° 0 min 0,000 mm 1,3 UV-I 214 W/m² 6,1 °C 13,2 °C 11,3 km/h (2 Bft)
13.04.2018 17:28 13,3 °C 60 % 1009,8 hPa 0,0 mm 9,8 km/h (2 Bft) W 274 ° 0 min 0,000 mm 1,4 UV-I 243 W/m² 5,7 °C 13,3 °C 14,5 km/h (3 Bft)
13.04.2018 17:29 13,3 °C 60 % 1009,9 hPa 0,0 mm 10,2 km/h (2 Bft) W 279 ° 0 min 0,000 mm 1,4 UV-I 229 W/m² 5,7 °C 13,3 °C 16,1 km/h (3 Bft)
13.04.2018 17:30 13,4 °C 61 % 1009,9 hPa 0,0 mm 12,9 km/h (3 Bft) W 277 ° 0 min 0,000 mm 1,3 UV-I 153 W/m² 6,0 °C 13,4 °C 19,3 km/h (3 Bft)
13.04.2018 17:31 13,5 °C 59 % 1009,8 hPa 0,0 mm 7,6 km/h (2 Bft) W-NW 297 ° 0 min 0,000 mm 1,2 UV-I 153 W/m² 5,6 °C 13,5 °C 14,5 km/h (3 Bft)
13.04.2018 17:32 13,5 °C 60 % 1010,0 hPa 0,0 mm 16,1 km/h (3 Bft) NW 311 ° 0 min 0,000 mm 1,2 UV-I 127 W/m² 5,9 °C 13,5 °C 25,7 km/h (4 Bft)
13.04.2018 17:33 13,4 °C 59 % 1010,0 hPa 0,0 mm 17,2 km/h (3 Bft) W-NW 302 ° 0 min 0,000 mm 1,1 UV-I 113 W/m² 5,6 °C 13,4 °C 22,5 km/h (4 Bft)
13.04.2018 17:34 13,3 °C 59 % 1010,0 hPa 0,0 mm 15,0 km/h (3 Bft) W-NW 293 ° 0 min 0,000 mm 1,1 UV-I 148 W/m² 5,5 °C 13,3 °C 20,9 km/h (4 Bft)
13.04.2018 17:35 13,3 °C 59 % 1010,1 hPa 0,0 mm 15,6 km/h (3 Bft) N-NW 328 ° 0 min 0,000 mm 1,1 UV-I 209 W/m² 5,5 °C 13,3 °C 20,9 km/h (4 Bft)
13.04.2018 17:36 13,3 °C 61 % 1010,1 hPa 0,0 mm 13,9 km/h (3 Bft) W-NW 290 ° 0 min 0,000 mm 1,2 UV-I 204 W/m² 5,9 °C 13,3 °C 22,5 km/h (4 Bft)
13.04.2018 17:37 13,3 °C 62 % 1010,1 hPa 0,0 mm 12,5 km/h (3 Bft) W-NW 302 ° 0 min 0,000 mm 1,1 UV-I 134 W/m² 6,2 °C 13,3 °C 19,3 km/h (3 Bft)
13.04.2018 17:38 13,2 °C 62 % 1010,1 hPa 0,0 mm 14,3 km/h (3 Bft) N-NW 343 ° 0 min 0,000 mm 1,0 UV-I 98 W/m² 6,1 °C 13,2 °C 17,7 km/h (3 Bft)
13.04.2018 17:39 13,1 °C 63 % 1010,1 hPa 0,0 mm 14,5 km/h (3 Bft) NW 312 ° 0 min 0,000 mm 1,0 UV-I 93 W/m² 6,2 °C 13,1 °C 17,7 km/h (3 Bft)
13.04.2018 17:40 12,9 °C 63 % 1010,1 hPa 0,0 mm 14,2 km/h (3 Bft) NW 319 ° 0 min 0,000 mm 1,0 UV-I 104 W/m² 6,0 °C 12,9 °C 20,9 km/h (4 Bft)
13.04.2018 17:41 12,7 °C 63 % 1010,1 hPa 0,0 mm 11,1 km/h (2 Bft) NW 323 ° 0 min 0,000 mm 1,0 UV-I 98 W/m² 5,8 °C 12,7 °C 16,1 km/h (3 Bft)
13.04.2018 17:42 12,6 °C 64 % 1010,1 hPa 0,0 mm 15,4 km/h (3 Bft) W 271 ° 0 min 0,000 mm 1,0 UV-I 86 W/m² 6,0 °C 12,6 °C 25,7 km/h (4 Bft)
13.04.2018 17:43 12,4 °C 65 % 1010,2 hPa 0,0 mm 11,7 km/h (2 Bft) NW 315 ° 0 min 0,000 mm 1,0 UV-I 76 W/m² 6,0 °C 12,4 °C 20,9 km/h (4 Bft)
13.04.2018 17:44 12,3 °C 65 % 1010,2 hPa 0,0 mm 9,2 km/h (2 Bft) NW 311 ° 0 min 0,000 mm 0,9 UV-I 65 W/m² 5,9 °C 12,3 °C 20,9 km/h (4 Bft)
13.04.2018 17:45 12,2 °C 65 % 1010,3 hPa 0,0 mm 11,0 km/h (2 Bft) NW 314 ° 0 min 0,000 mm 0,9 UV-I 54 W/m² 5,8 °C 12,2 °C 14,5 km/h (3 Bft)
13.04.2018 17:46 12,1 °C 66 % 1010,2 hPa 0,0 mm 7,5 km/h (2 Bft) W-NW 288 ° 0 min 0,000 mm 0,0 UV-I 54 W/m² 5,9 °C 12,1 °C 11,3 km/h (2 Bft)
13.04.2018 17:47 11,9 °C 66 % 1010,3 hPa 0,0 mm 10,7 km/h (2 Bft) NW 313 ° 0 min 0,000 mm 0,0 UV-I 53 W/m² 5,8 °C 11,9 °C 19,3 km/h (3 Bft)
13.04.2018 17:48 11,9 °C 67 % 1010,3 hPa 0,0 mm 10,0 km/h (2 Bft) W-NW 302 ° 0 min 0,000 mm 0,0 UV-I 54 W/m² 6,0 °C 11,9 °C 19,3 km/h (3 Bft)
13.04.2018 17:49 11,8 °C 67 % 1010,3 hPa 0,0 mm 8,2 km/h (2 Bft) N-NW 336 ° 0 min 0,000 mm 0,8 UV-I 54 W/m² 5,9 °C 11,8 °C 14,5 km/h (3 Bft)
13.04.2018 17:50 11,8 °C 67 % 1010,4 hPa 0,0 mm 7,4 km/h (2 Bft) W-NW 292 ° 0 min 0,000 mm 0,8 UV-I 76 W/m² 5,9 °C 11,8 °C 14,5 km/h (3 Bft)
13.04.2018 17:51 11,7 °C 67 % 1010,3 hPa 0,0 mm 4,6 km/h (1 Bft) NW 309 ° 0 min 0,000 mm 0,8 UV-I 104 W/m² 5,8 °C 11,7 °C 12,9 km/h (3 Bft)
13.04.2018 17:52 11,7 °C 67 % 1010,3 hPa 0,0 mm 7,9 km/h (2 Bft) NW 319 ° 0 min 0,000 mm 0,8 UV-I 128 W/m² 5,8 °C 11,7 °C 14,5 km/h (3 Bft)
13.04.2018 17:53 11,7 °C 67 % 1010,3 hPa 0,0 mm 10,9 km/h (2 Bft) W 270 ° 0 min 0,000 mm 0,9 UV-I 102 W/m² 5,8 °C 11,7 °C 16,1 km/h (3 Bft)
13.04.2018 17:54 11,8 °C 67 % 1010,4 hPa 0,0 mm 9,3 km/h (2 Bft) W 278 ° 0 min 0,000 mm 0,9 UV-I 111 W/m² 5,9 °C 11,8 °C 12,9 km/h (3 Bft)
13.04.2018 17:55 11,8 °C 68 % 1010,4 hPa 0,0 mm 10,9 km/h (2 Bft) W-NW 301 ° 0 min 0,000 mm 0,9 UV-I 111 W/m² 6,1 °C 11,8 °C 14,5 km/h (3 Bft)
13.04.2018 17:56 11,9 °C 68 % 1010,4 hPa 0,0 mm 12,2 km/h (2 Bft) NW 307 ° 0 min 0,000 mm 0,9 UV-I 121 W/m² 6,2 °C 11,9 °C 17,7 km/h (3 Bft)
13.04.2018 17:57 11,9 °C 67 % 1010,4 hPa 0,0 mm 11,2 km/h (2 Bft) W-NW 291 ° 0 min 0,000 mm 0,9 UV-I 125 W/m² 6,0 °C 11,9 °C 14,5 km/h (3 Bft)
13.04.2018 17:58 11,9 °C 66 % 1010,4 hPa 0,0 mm 7,0 km/h (2 Bft) N-NW 330 ° 0 min 0,000 mm 0,9 UV-I 116 W/m² 5,8 °C 11,9 °C 9,7 km/h (2 Bft)
13.04.2018 17:59 11,9 °C 67 % 1010,4 hPa 0,0 mm 7,8 km/h (2 Bft) N-NW 340 ° 0 min 0,000 mm 0,8 UV-I 97 W/m² 6,0 °C 11,9 °C 12,9 km/h (3 Bft)
13.04.2018 18:00 11,9 °C 67 % 1010,4 hPa 0,0 mm 8,8 km/h (2 Bft) NW 324 ° 0 min 0,000 mm 0,8 UV-I 77 W/m² 6,0 °C 11,9 °C 14,5 km/h (3 Bft)
13.04.2018 18:01 12,0 °C 66 % 1010,4 hPa 0,0 mm 11,2 km/h (2 Bft) NW 314 ° 0 min 0,127 mm 0,8 UV-I 63 W/m² 5,8 °C 12,0 °C 16,1 km/h (3 Bft)
13.04.2018 18:02 11,9 °C 66 % 1010,4 hPa 0,0 mm 6,6 km/h (2 Bft) N-NW 328 ° 0 min 0,000 mm 0,0 UV-I 44 W/m² 5,8 °C 11,9 °C 14,5 km/h (3 Bft)
13.04.2018 18:03 11,9 °C 66 % 1010,4 hPa 0,0 mm 8,4 km/h (2 Bft) NW 308 ° 0 min 0,000 mm 0,0 UV-I 44 W/m² 5,8 °C 11,9 °C 17,7 km/h (3 Bft)
13.04.2018 18:04 11,9 °C 66 % 1010,4 hPa 0,0 mm 10,5 km/h (2 Bft) W-NW 300 ° 0 min 0,000 mm 0,0 UV-I 49 W/m² 5,8 °C 11,9 °C 16,1 km/h (3 Bft)
13.04.2018 18:05 11,9 °C 66 % 1010,4 hPa 0,0 mm 10,1 km/h (2 Bft) W-NW 295 ° 0 min 0,000 mm 0,0 UV-I 51 W/m² 5,8 °C 11,9 °C 14,5 km/h (3 Bft)
13.04.2018 18:06 11,9 °C 66 % 1010,5 hPa 0,0 mm 4,7 km/h (1 Bft) NW 317 ° 0 min 0,000 mm 0,7 UV-I 84 W/m² 5,8 °C 11,9 °C 6,4 km/h (2 Bft)
13.04.2018 18:07 11,9 °C 67 % 1010,5 hPa 0,0 mm 7,6 km/h (2 Bft) NW 313 ° 0 min 0,000 mm 0,7 UV-I 84 W/m² 6,0 °C 11,9 °C 19,3 km/h (3 Bft)
13.04.2018 18:08 12,0 °C 67 % 1010,5 hPa 0,0 mm 11,9 km/h (2 Bft) NW 309 ° 0 min 0,000 mm 0,7 UV-I 84 W/m² 6,1 °C 12,0 °C 16,1 km/h (3 Bft)
13.04.2018 18:09 12,0 °C 66 % 1010,5 hPa 0,0 mm 7,8 km/h (2 Bft) N-NW 337 ° 0 min 0,000 mm 0,7 UV-I 79 W/m² 5,8 °C 12,0 °C 14,5 km/h (3 Bft)
13.04.2018 18:10 12,1 °C 67 % 1010,5 hPa 0,0 mm 8,1 km/h (2 Bft) W-NW 288 ° 0 min 0,000 mm 0,7 UV-I 83 W/m² 6,2 °C 12,1 °C 12,9 km/h (3 Bft)
13.04.2018 18:11 12,1 °C 67 % 1010,5 hPa 0,0 mm 9,4 km/h (2 Bft) W-NW 284 ° 0 min 0,000 mm 0,7 UV-I 137 W/m² 6,2 °C 12,1 °C 12,9 km/h (3 Bft)
13.04.2018 18:12 12,2 °C 65 % 1010,6 hPa 0,0 mm 12,0 km/h (2 Bft) W 276 ° 0 min 0,000 mm 0,8 UV-I 223 W/m² 5,8 °C 12,2 °C 17,7 km/h (3 Bft)
13.04.2018 18:13 12,2 °C 64 % 1010,6 hPa 0,0 mm 11,9 km/h (2 Bft) W-NW 291 ° 0 min 0,000 mm 0,8 UV-I 244 W/m² 5,6 °C 12,2 °C 16,1 km/h (3 Bft)
13.04.2018 18:14 12,3 °C 64 % 1010,6 hPa 0,0 mm 6,8 km/h (2 Bft) W 280 ° 0 min 0,000 mm 0,8 UV-I 158 W/m² 5,7 °C 12,3 °C 12,9 km/h (3 Bft)
13.04.2018 18:15 12,3 °C 64 % 1010,6 hPa 0,0 mm 8,6 km/h (2 Bft) NW 311 ° 0 min 0,000 mm 0,8 UV-I 158 W/m² 5,7 °C 12,3 °C 12,9 km/h (3 Bft)
13.04.2018 18:16 12,4 °C 63 % 1010,6 hPa 0,0 mm 6,7 km/h (2 Bft) W-NW 286 ° 0 min 0,000 mm 0,9 UV-I 211 W/m² 5,6 °C 12,4 °C 14,5 km/h (3 Bft)
13.04.2018 18:17 12,4 °C 65 % 1010,6 hPa 0,0 mm 10,2 km/h (2 Bft) W-NW 286 ° 0 min 0,000 mm 0,8 UV-I 130 W/m² 6,0 °C 12,4 °C 14,5 km/h (3 Bft)
13.04.2018 18:18 12,4 °C 63 % 1010,7 hPa 0,0 mm 13,0 km/h (3 Bft) W-NW 291 ° 0 min 0,000 mm 0,8 UV-I 178 W/m² 5,6 °C 12,4 °C 17,7 km/h (3 Bft)
13.04.2018 18:19 12,4 °C 64 % 1010,7 hPa 0,0 mm 11,5 km/h (2 Bft) NW 318 ° 0 min 0,000 mm 0,8 UV-I 83 W/m² 5,8 °C 12,4 °C 19,3 km/h (3 Bft)
13.04.2018 18:20 12,4 °C 63 % 1010,7 hPa 0,0 mm 8,5 km/h (2 Bft) N-NW 338 ° 0 min 0,000 mm 0,7 UV-I 65 W/m² 5,6 °C 12,4 °C 16,1 km/h (3 Bft)
13.04.2018 18:21 12,3 °C 64 % 1010,7 hPa 0,0 mm 8,4 km/h (2 Bft) W 273 ° 0 min 0,000 mm 0,7 UV-I 69 W/m² 5,7 °C 12,3 °C 16,1 km/h (3 Bft)
13.04.2018 18:22 12,3 °C 64 % 1010,7 hPa 0,0 mm 10,7 km/h (2 Bft) N-NW 343 ° 0 min 0,000 mm 0,7 UV-I 95 W/m² 5,7 °C 12,3 °C 17,7 km/h (3 Bft)
13.04.2018 18:23 12,3 °C 65 % 1010,7 hPa 0,0 mm 13,0 km/h (3 Bft) NW 317 ° 0 min 0,000 mm 0,7 UV-I 97 W/m² 5,9 °C 12,3 °C 19,3 km/h (3 Bft)
13.04.2018 18:24 12,3 °C 64 % 1010,7 hPa 0,0 mm 10,4 km/h (2 Bft) W-NW 290 ° 0 min 0,000 mm 0,7 UV-I 72 W/m² 5,7 °C 12,3 °C 14,5 km/h (3 Bft)
13.04.2018 18:25 12,2 °C 64 % 1010,7 hPa 0,0 mm 10,6 km/h (2 Bft) NW 311 ° 0 min 0,000 mm 0,0 UV-I 37 W/m² 5,6 °C 12,2 °C 14,5 km/h (3 Bft)
13.04.2018 18:26 12,2 °C 64 % 1010,8 hPa 0,0 mm 1,6 km/h (1 Bft) NW 320 ° 0 min 0,000 mm 0,0 UV-I 37 W/m² 5,6 °C 12,2 °C 9,7 km/h (2 Bft)
13.04.2018 18:27 12,1 °C 64 % 1010,8 hPa 0,0 mm 4,8 km/h (1 Bft) NW 325 ° 0 min 0,000 mm 0,0 UV-I 35 W/m² 5,5 °C 12,1 °C 14,5 km/h (3 Bft)
13.04.2018 18:28 12,0 °C 64 % 1010,9 hPa 0,0 mm 6,6 km/h (2 Bft) N-NW 331 ° 0 min 0,000 mm 0,0 UV-I 33 W/m² 5,4 °C 12,0 °C 12,9 km/h (3 Bft)
13.04.2018 18:29 11,9 °C 65 % 1010,9 hPa 0,0 mm 7,5 km/h (2 Bft) N-NW 339 ° 0 min 0,000 mm 0,0 UV-I 44 W/m² 5,5 °C 11,9 °C 14,5 km/h (3 Bft)
13.04.2018 18:30 11,9 °C 65 % 1010,9 hPa 0,0 mm 8,4 km/h (2 Bft) NW 323 ° 0 min 0,000 mm 0,0 UV-I 39 W/m² 5,5 °C 11,9 °C 11,3 km/h (2 Bft)
13.04.2018 18:31 11,8 °C 65 % 1010,9 hPa 0,0 mm 7,9 km/h (2 Bft) NW 321 ° 0 min 0,000 mm 0,0 UV-I 39 W/m² 5,4 °C 11,8 °C 12,9 km/h (3 Bft)
13.04.2018 18:32 11,8 °C 65 % 1010,9 hPa 0,0 mm 2,4 km/h (1 Bft) NW 321 ° 0 min 0,000 mm 0,0 UV-I 35 W/m² 5,4 °C 11,8 °C 4,8 km/h (1 Bft)
13.04.2018 18:33 11,8 °C 65 % 1010,9 hPa 0,0 mm 0,1 km/h (0 Bft) NW 321 ° 0 min 0,000 mm 0,0 UV-I 33 W/m² 5,4 °C 11,8 °C 1,6 km/h (1 Bft)
13.04.2018 18:34 11,7 °C 65 % 1010,9 hPa 0,0 mm 2,7 km/h (1 Bft) NW 304 ° 0 min 0,000 mm 0,0 UV-I 32 W/m² 5,3 °C 11,7 °C 4,8 km/h (1 Bft)
13.04.2018 18:35 11,6 °C 65 % 1011,0 hPa 0,0 mm 2,4 km/h (1 Bft) NW 304 ° 0 min 0,000 mm 0,0 UV-I 30 W/m² 5,2 °C 11,6 °C 4,8 km/h (1 Bft)
13.04.2018 18:36 11,6 °C 65 % 1011,0 hPa 0,0 mm 3,7 km/h (1 Bft) W-NW 299 ° 0 min 0,000 mm 0,0 UV-I 30 W/m² 5,2 °C 11,6 °C 6,4 km/h (2 Bft)
13.04.2018 18:37 11,5 °C 66 % 1011,0 hPa 0,0 mm 4,6 km/h (1 Bft) N-NW 327 ° 0 min 0,000 mm 0,0 UV-I 30 W/m² 5,4 °C 11,5 °C 9,7 km/h (2 Bft)
13.04.2018 18:38 11,5 °C 66 % 1011,0 hPa 0,0 mm 9,8 km/h (2 Bft) N-NW 328 ° 0 min 0,000 mm 0,0 UV-I 30 W/m² 5,4 °C 11,5 °C 12,9 km/h (3 Bft)
13.04.2018 18:39 11,4 °C 66 % 1011,1 hPa 0,0 mm 4,9 km/h (1 Bft) W-NW 302 ° 0 min 0,000 mm 0,0 UV-I 32 W/m² 5,3 °C 11,4 °C 6,4 km/h (2 Bft)
13.04.2018 18:40 11,3 °C 66 % 1011,1 hPa 0,0 mm 3,2 km/h (1 Bft) NW 323 ° 0 min 0,000 mm 0,0 UV-I 32 W/m² 5,2 °C 11,3 °C 6,4 km/h (2 Bft)
13.04.2018 18:41 11,2 °C 67 % 1011,1 hPa 0,0 mm 4,3 km/h (1 Bft) NW 318 ° 0 min 0,000 mm 0,0 UV-I 32 W/m² 5,3 °C 11,2 °C 8,0 km/h (2 Bft)
13.04.2018 18:42 11,2 °C 66 % 1011,1 hPa 0,0 mm 2,7 km/h (1 Bft) NW 318 ° 0 min 0,000 mm 0,0 UV-I 32 W/m² 5,1 °C 11,2 °C 4,8 km/h (1 Bft)
13.04.2018 18:43 11,1 °C 66 % 1011,1 hPa 0,0 mm 4,5 km/h (1 Bft) W-NW 291 ° 0 min 0,000 mm 0,0 UV-I 28 W/m² 5,0 °C 11,1 °C 6,4 km/h (2 Bft)
13.04.2018 18:44 11,1 °C 66 % 1011,1 hPa 0,0 mm 3,5 km/h (1 Bft) W-NW 289 ° 0 min 0,000 mm 0,0 UV-I 28 W/m² 5,0 °C 11,1 °C 6,4 km/h (2 Bft)
13.04.2018 18:45 11,1 °C 66 % 1011,1 hPa 0,0 mm 2,7 km/h (1 Bft) NW 313 ° 0 min 0,000 mm 0,0 UV-I 32 W/m² 5,0 °C 11,1 °C 4,8 km/h (1 Bft)
13.04.2018 18:46 11,1 °C 67 % 1011,1 hPa 0,0 mm 1,6 km/h (1 Bft) NW 319 ° 0 min 0,000 mm 0,0 UV-I 35 W/m² 5,2 °C 11,1 °C 3,2 km/h (1 Bft)
13.04.2018 18:47 11,1 °C 67 % 1011,2 hPa 0,0 mm 4,6 km/h (1 Bft) NW 319 ° 0 min 0,000 mm 0,0 UV-I 39 W/m² 5,2 °C 11,1 °C 6,4 km/h (2 Bft)
13.04.2018 18:48 11,0 °C 66 % 1011,2 hPa 0,0 mm 3,5 km/h (1 Bft) NW 316 ° 0 min 0,000 mm 0,0 UV-I 40 W/m² 4,9 °C 11,0 °C 6,4 km/h (2 Bft)
13.04.2018 18:49 10,9 °C 66 % 1011,2 hPa 0,0 mm 4,8 km/h (1 Bft) NW 306 ° 0 min 0,000 mm 0,0 UV-I 42 W/m² 4,8 °C 10,9 °C 9,7 km/h (2 Bft)
13.04.2018 18:50 10,9 °C 67 % 1011,2 hPa 0,0 mm 3,6 km/h (1 Bft) NW 307 ° 0 min 0,000 mm 0,0 UV-I 39 W/m² 5,0 °C 10,9 °C 4,8 km/h (1 Bft)
13.04.2018 18:51 10,9 °C 67 % 1011,3 hPa 0,0 mm 1,3 km/h (1 Bft) NW 307 ° 0 min 0,000 mm 0,0 UV-I 35 W/m² 5,0 °C 10,9 °C 3,2 km/h (1 Bft)
13.04.2018 18:52 10,8 °C 67 % 1011,3 hPa 0,0 mm 1,0 km/h (0 Bft) NW 307 ° 0 min 0,000 mm 0,0 UV-I 44 W/m² 4,9 °C 10,8 °C 1,6 km/h (1 Bft)
13.04.2018 18:53 10,9 °C 67 % 1011,4 hPa 0,0 mm 3,8 km/h (1 Bft) NW 311 ° 0 min 0,000 mm 0,0 UV-I 74 W/m² 5,0 °C 10,9 °C 6,4 km/h (2 Bft)
13.04.2018 18:54 10,9 °C 67 % 1011,4 hPa 0,0 mm 5,4 km/h (1 Bft) W-NW 299 ° 0 min 0,000 mm 0,0 UV-I 35 W/m² 5,0 °C 10,9 °C 6,4 km/h (2 Bft)
13.04.2018 18:55 10,8 °C 67 % 1011,4 hPa 0,0 mm 3,9 km/h (1 Bft) NW 307 ° 0 min 0,000 mm 0,0 UV-I 33 W/m² 4,9 °C 10,8 °C 6,4 km/h (2 Bft)
13.04.2018 18:56 10,8 °C 68 % 1011,4 hPa 0,0 mm 3,0 km/h (1 Bft) W-NW 296 ° 0 min 0,000 mm 0,0 UV-I 32 W/m² 5,1 °C 10,8 °C 6,4 km/h (2 Bft)
13.04.2018 18:57 10,8 °C 67 % 1011,4 hPa 0,0 mm 3,8 km/h (1 Bft) NW 309 ° 0 min 0,000 mm 0,0 UV-I 37 W/m² 4,9 °C 10,8 °C 6,4 km/h (2 Bft)
13.04.2018 18:58 10,8 °C 67 % 1011,4 hPa 0,0 mm 6,0 km/h (2 Bft) N-NW 332 ° 0 min 0,000 mm 0,0 UV-I 62 W/m² 4,9 °C 10,8 °C 8,0 km/h (2 Bft)
13.04.2018 18:59 10,8 °C 68 % 1011,4 hPa 0,0 mm 6,9 km/h (2 Bft) NW 318 ° 0 min 0,000 mm 0,0 UV-I 56 W/m² 5,1 °C 10,8 °C 9,7 km/h (2 Bft)
13.04.2018 19:00 10,8 °C 68 % 1011,4 hPa 0,0 mm 6,3 km/h (2 Bft) NW 318 ° 0 min 0,000 mm 0,0 UV-I 72 W/m² 5,1 °C 10,8 °C 9,7 km/h (2 Bft)
13.04.2018 19:01 10,8 °C 68 % 1011,4 hPa 0,0 mm 4,8 km/h (1 Bft) NW 313 ° 0 min 0,051 mm 0,0 UV-I 30 W/m² 5,1 °C 10,8 °C 8,0 km/h (2 Bft)
13.04.2018 19:02 10,8 °C 68 % 1011,5 hPa 0,0 mm 3,6 km/h (1 Bft) NW 315 ° 0 min 0,000 mm 0,0 UV-I 30 W/m² 5,1 °C 10,8 °C 6,4 km/h (2 Bft)
13.04.2018 19:03 10,8 °C 67 % 1011,5 hPa 0,0 mm 1,9 km/h (1 Bft) NW 315 ° 0 min 0,000 mm 0,0 UV-I 28 W/m² 4,9 °C 10,8 °C 4,8 km/h (1 Bft)
13.04.2018 19:04 10,8 °C 67 % 1011,5 hPa 0,0 mm 4,1 km/h (1 Bft) NW 324 ° 0 min 0,000 mm 0,0 UV-I 30 W/m² 4,9 °C 10,8 °C 6,4 km/h (2 Bft)
13.04.2018 19:05 10,8 °C 67 % 1011,5 hPa 0,0 mm 2,8 km/h (1 Bft) N-NW 333 ° 0 min 0,000 mm 0,0 UV-I 30 W/m² 4,9 °C 10,8 °C 8,0 km/h (2 Bft)
13.04.2018 19:06 10,8 °C 67 % 1011,5 hPa 0,0 mm 6,1 km/h (2 Bft) NW 309 ° 0 min 0,000 mm 0,0 UV-I 28 W/m² 4,9 °C 10,8 °C 9,7 km/h (2 Bft)
13.04.2018 19:07 10,8 °C 67 % 1011,6 hPa 0,0 mm 2,2 km/h (1 Bft) W-NW 294 ° 0 min 0,000 mm 0,0 UV-I 25 W/m² 4,9 °C 10,8 °C 3,2 km/h (1 Bft)
13.04.2018 19:08 10,8 °C 67 % 1011,6 hPa 0,0 mm 2,3 km/h (1 Bft) NW 312 ° 0 min 0,000 mm 0,0 UV-I 25 W/m² 4,9 °C 10,8 °C 3,2 km/h (1 Bft)
13.04.2018 19:09 10,7 °C 67 % 1011,6 hPa 0,0 mm 1,7 km/h (1 Bft) NW 312 ° 0 min 0,000 mm 0,0 UV-I 25 W/m² 4,8 °C 10,7 °C 3,2 km/h (1 Bft)
13.04.2018 19:10 10,7 °C 67 % 1011,7 hPa 0,0 mm 1,9 km/h (1 Bft) NW 312 ° 0 min 0,000 mm 0,0 UV-I 25 W/m² 4,8 °C 10,7 °C 3,2 km/h (1 Bft)
13.04.2018 19:11 10,7 °C 67 % 1011,7 hPa 0,0 mm 0,0 km/h (0 Bft) NW 313 ° 0 min 0,000 mm 0,0 UV-I 26 W/m² 4,8 °C 10,7 °C 0,0 km/h (0 Bft)
13.04.2018 19:12 10,6 °C 68 % 1011,7 hPa 0,0 mm 0,0 km/h (0 Bft) NW 313 ° 0 min 0,000 mm 0,0 UV-I 28 W/m² 4,9 °C 10,6 °C 0,0 km/h (0 Bft)
13.04.2018 19:13 10,6 °C 67 % 1011,8 hPa 0,0 mm 0,0 km/h (0 Bft) NW 312 ° 0 min 0,000 mm 0,0 UV-I 28 W/m² 4,7 °C 10,6 °C 0,0 km/h (0 Bft)
13.04.2018 19:14 10,6 °C 67 % 1011,8 hPa 0,0 mm 0,0 km/h (0 Bft) NW 313 ° 0 min 0,000 mm 0,0 UV-I 30 W/m² 4,7 °C 10,6 °C 0,0 km/h (0 Bft)
13.04.2018 19:15 10,6 °C 68 % 1011,8 hPa 0,0 mm 0,0 km/h (0 Bft) NW 312 ° 0 min 0,000 mm 0,0 UV-I 32 W/m² 4,9 °C 10,6 °C 0,0 km/h (0 Bft)
13.04.2018 19:16 10,6 °C 67 % 1011,9 hPa 0,0 mm 1,9 km/h (1 Bft) NW 312 ° 0 min 0,000 mm 0,0 UV-I 33 W/m² 4,7 °C 10,6 °C 4,8 km/h (1 Bft)
13.04.2018 19:17 10,6 °C 68 % 1011,9 hPa 0,0 mm 1,3 km/h (1 Bft) NW 313 ° 0 min 0,000 mm 0,0 UV-I 37 W/m² 4,9 °C 10,6 °C 3,2 km/h (1 Bft)
13.04.2018 19:18 10,6 °C 68 % 1011,9 hPa 0,0 mm 0,2 km/h (0 Bft) NW 312 ° 0 min 0,000 mm 0,0 UV-I 40 W/m² 4,9 °C 10,6 °C 1,6 km/h (1 Bft)
13.04.2018 19:19 10,6 °C 68 % 1011,9 hPa 0,0 mm 0,0 km/h (0 Bft) NW 312 ° 0 min 0,000 mm 0,0 UV-I 40 W/m² 4,9 °C 10,6 °C 0,0 km/h (0 Bft)
13.04.2018 19:20 10,6 °C 68 % 1011,9 hPa 0,0 mm 0,0 km/h (0 Bft) NW 312 ° 0 min 0,000 mm 0,0 UV-I 42 W/m² 4,9 °C 10,6 °C 0,0 km/h (0 Bft)
13.04.2018 19:21 10,6 °C 67 % 1011,9 hPa 0,0 mm 0,0 km/h (0 Bft) NW 313 ° 0 min 0,000 mm 0,0 UV-I 39 W/m² 4,7 °C 10,6 °C 0,0 km/h (0 Bft)
13.04.2018 19:22 10,6 °C 67 % 1012,0 hPa 0,0 mm 0,0 km/h (0 Bft) NW 312 ° 0 min 0,000 mm 0,0 UV-I 33 W/m² 4,7 °C 10,6 °C 0,0 km/h (0 Bft)
13.04.2018 19:23 10,6 °C 67 % 1012,0 hPa 0,0 mm 0,0 km/h (0 Bft) NW 312 ° 0 min 0,000 mm 0,0 UV-I 26 W/m² 4,7 °C 10,6 °C 0,0 km/h (0 Bft)
13.04.2018 19:24 10,6 °C 67 % 1012,0 hPa 0,0 mm 0,0 km/h (0 Bft) NW 312 ° 0 min 0,000 mm 0,0 UV-I 21 W/m² 4,7 °C 10,6 °C 0,0 km/h (0 Bft)
13.04.2018 19:25 10,6 °C 68 % 1012,1 hPa 0,0 mm 0,0 km/h (0 Bft) NW 312 ° 0 min 0,000 mm 0,0 UV-I 21 W/m² 4,9 °C 10,6 °C 0,0 km/h (0 Bft)
13.04.2018 19:26 10,5 °C 68 % 1012,1 hPa 0,0 mm 0,0 km/h (0 Bft) NW 312 ° 0 min 0,000 mm 0,0 UV-I 19 W/m² 4,8 °C 10,5 °C 0,0 km/h (0 Bft)
13.04.2018 19:27 10,4 °C 68 % 1012,1 hPa 0,0 mm 0,0 km/h (0 Bft) NW 313 ° 0 min 0,000 mm 0,0 UV-I 19 W/m² 4,8 °C 10,4 °C 0,0 km/h (0 Bft)
13.04.2018 19:28 10,4 °C 68 % 1012,2 hPa 0,0 mm 0,0 km/h (0 Bft) NW 312 ° 0 min 0,000 mm 0,0 UV-I 19 W/m² 4,8 °C 10,4 °C 0,0 km/h (0 Bft)
13.04.2018 19:29 10,4 °C 68 % 1012,2 hPa 0,0 mm 0,0 km/h (0 Bft) NW 313 ° 0 min 0,000 mm 0,0 UV-I 18 W/m² 4,8 °C 10,4 °C 0,0 km/h (0 Bft)
13.04.2018 19:30 10,3 °C 68 % 1012,2 hPa 0,0 mm 0,0 km/h (0 Bft) NW 312 ° 0 min 0,000 mm 0,0 UV-I 14 W/m² 4,7 °C 10,3 °C 0,0 km/h (0 Bft)
13.04.2018 19:31 10,3 °C 69 % 1012,2 hPa 0,0 mm 0,0 km/h (0 Bft) NW 312 ° 0 min 0,000 mm 0,0 UV-I 14 W/m² 4,9 °C 10,3 °C 0,0 km/h (0 Bft)
13.04.2018 19:32 10,3 °C 70 % 1012,2 hPa 0,0 mm 0,0 km/h (0 Bft) NW 312 ° 0 min 0,000 mm 0,0 UV-I 14 W/m² 5,1 °C 10,3 °C 0,0 km/h (0 Bft)
13.04.2018 19:33 10,2 °C 68 % 1012,2 hPa 0,0 mm 0,0 km/h (0 Bft) NW 312 ° 0 min 0,000 mm 0,0 UV-I 12 W/m² 4,6 °C 10,2 °C 0,0 km/h (0 Bft)
13.04.2018 19:34 10,2 °C 69 % 1012,3 hPa 0,0 mm 0,0 km/h (0 Bft) NW 312 ° 0 min 0,000 mm 0,0 UV-I 12 W/m² 4,8 °C 10,2 °C 0,0 km/h (0 Bft)
13.04.2018 19:35 10,1 °C 69 % 1012,2 hPa 0,0 mm 0,0 km/h (0 Bft) NW 312 ° 0 min 0,000 mm 0,0 UV-I 11 W/m² 4,7 °C 10,1 °C 0,0 km/h (0 Bft)
13.04.2018 19:36 10,1 °C 69 % 1012,3 hPa 0,0 mm 0,0 km/h (0 Bft) NW 312 ° 0 min 0,000 mm 0,0 UV-I 11 W/m² 4,7 °C 10,1 °C 0,0 km/h (0 Bft)
13.04.2018 19:37 10,1 °C 69 % 1012,3 hPa 0,0 mm 0,0 km/h (0 Bft) NW 312 ° 0 min 0,000 mm 0,0 UV-I 11 W/m² 4,7 °C 10,1 °C 0,0 km/h (0 Bft)
13.04.2018 19:38 10,1 °C 69 % 1012,4 hPa 0,0 mm 0,0 km/h (0 Bft) NW 313 ° 0 min 0,000 mm 0,0 UV-I 11 W/m² 4,7 °C 10,1 °C 0,0 km/h (0 Bft)
13.04.2018 19:39 10,1 °C 69 % 1012,4 hPa 0,0 mm 0,5 km/h (0 Bft) NW 312 ° 0 min 0,000 mm 0,0 UV-I 11 W/m² 4,7 °C 10,1 °C 3,2 km/h (1 Bft)
13.04.2018 19:40 10,1 °C 69 % 1012,4 hPa 0,0 mm 2,4 km/h (1 Bft) NW 312 ° 0 min 0,000 mm 0,0 UV-I 9 W/m² 4,7 °C 10,1 °C 3,2 km/h (1 Bft)
13.04.2018 19:41 10,1 °C 69 % 1012,4 hPa 0,0 mm 0,9 km/h (0 Bft) NW 312 ° 0 min 0,000 mm 0,0 UV-I 9 W/m² 4,7 °C 10,1 °C 1,6 km/h (1 Bft)
13.04.2018 19:42 10,1 °C 69 % 1012,5 hPa 0,0 mm 0,1 km/h (0 Bft) NW 312 ° 0 min 0,000 mm 0,0 UV-I 7 W/m² 4,7 °C 10,1 °C 1,6 km/h (1 Bft)
13.04.2018 19:43 10,1 °C 69 % 1012,5 hPa 0,0 mm 0,1 km/h (0 Bft) NW 312 ° 0 min 0,000 mm 0,0 UV-I 7 W/m² 4,7 °C 10,1 °C 1,6 km/h (1 Bft)
13.04.2018 19:44 10,0 °C 70 % 1012,6 hPa 0,0 mm 0,0 km/h (0 Bft) NW 312 ° 0 min 0,000 mm 0,0 UV-I 7 W/m² 4,8 °C 10,0 °C 0,0 km/h (0 Bft)
13.04.2018 19:45 9,9 °C 70 % 1012,6 hPa 0,0 mm 0,0 km/h (0 Bft) NW 312 ° 0 min 0,000 mm 0,0 UV-I 7 W/m² 4,7 °C 9,9 °C 0,0 km/h (0 Bft)
13.04.2018 19:46 9,9 °C 70 % 1012,6 hPa 0,0 mm 0,0 km/h (0 Bft) NW 312 ° 0 min 0,000 mm 0,0 UV-I 7 W/m² 4,7 °C 9,9 °C 0,0 km/h (0 Bft)
13.04.2018 19:47 9,8 °C 71 % 1012,7 hPa 0,0 mm 0,0 km/h (0 Bft) NW 312 ° 0 min 0,000 mm 0,0 UV-I 5 W/m² 4,8 °C 9,8 °C 0,0 km/h (0 Bft)
13.04.2018 19:48 9,7 °C 71 % 1012,6 hPa 0,0 mm 0,0 km/h (0 Bft) NW 312 ° 0 min 0,000 mm 0,0 UV-I 5 W/m² 4,7 °C 9,7 °C 0,0 km/h (0 Bft)
13.04.2018 19:49 9,7 °C 70 % 1012,6 hPa 0,0 mm 0,0 km/h (0 Bft) NW 312 ° 0 min 0,000 mm 0,0 UV-I 5 W/m² 4,5 °C 9,7 °C 0,0 km/h (0 Bft)
13.04.2018 19:50 9,5 °C 72 % 1012,7 hPa 0,0 mm 0,0 km/h (0 Bft) NW 312 ° 0 min 0,000 mm 0,0 UV-I 5 W/m² 4,7 °C 9,5 °C 0,0 km/h (0 Bft)
13.04.2018 19:51 9,4 °C 73 % 1012,7 hPa 0,0 mm 0,0 km/h (0 Bft) NW 312 ° 0 min 0,000 mm 0,0 UV-I 5 W/m² 4,8 °C 9,4 °C 0,0 km/h (0 Bft)
13.04.2018 19:52 9,4 °C 73 % 1012,8 hPa 0,0 mm 0,0 km/h (0 Bft) NW 312 ° 0 min 0,000 mm 0,0 UV-I 5 W/m² 4,8 °C 9,4 °C 0,0 km/h (0 Bft)
13.04.2018 19:53 9,3 °C 73 % 1012,7 hPa 0,0 mm 0,0 km/h (0 Bft) NW 312 ° 0 min 0,000 mm 0,0 UV-I 0 W/m² 4,7 °C 9,3 °C 0,0 km/h (0 Bft)
13.04.2018 19:54 9,3 °C 73 % 1012,7 hPa 0,0 mm 0,0 km/h (0 Bft) NW 312 ° 0 min 0,000 mm 0,0 UV-I 0 W/m² 4,7 °C 9,3 °C 0,0 km/h (0 Bft)
13.04.2018 19:55 9,3 °C 74 % 1012,8 hPa 0,0 mm 0,0 km/h (0 Bft) NW 312 ° 0 min 0,000 mm 0,0 UV-I 0 W/m² 4,9 °C 9,3 °C 0,0 km/h (0 Bft)
13.04.2018 19:56 9,3 °C 74 % 1012,8 hPa 0,0 mm 0,0 km/h (0 Bft) NW 312 ° 0 min 0,000 mm 0,0 UV-I 0 W/m² 4,9 °C 9,3 °C 0,0 km/h (0 Bft)
13.04.2018 19:57 9,3 °C 74 % 1012,8 hPa 0,0 mm 1,4 km/h (1 Bft) NW 313 ° 0 min 0,000 mm 0,0 UV-I 0 W/m² 4,9 °C 9,3 °C 3,2 km/h (1 Bft)
13.04.2018 19:58 9,2 °C 75 % 1012,8 hPa 0,0 mm 1,1 km/h (1 Bft) NW 312 ° 0 min 0,000 mm 0,0 UV-I 0 W/m² 5,0 °C 9,2 °C 1,6 km/h (1 Bft)
13.04.2018 19:59 9,2 °C 73 % 1012,8 hPa 0,0 mm 0,3 km/h (0 Bft) NW 312 ° 0 min 0,000 mm 0,0 UV-I 0 W/m² 4,6 °C 9,2 °C 1,6 km/h (1 Bft)
13.04.2018 20:00 9,3 °C 72 % 1012,9 hPa 0,0 mm 0,0 km/h (0 Bft) NW 312 ° 0 min 0,000 mm 0,0 UV-I 0 W/m² 4,5 °C 9,3 °C 0,0 km/h (0 Bft)
13.04.2018 20:01 9,4 °C 72 % 1012,9 hPa 0,0 mm 0,0 km/h (0 Bft) NW 312 ° 0 min 0,025 mm 0,0 UV-I 0 W/m² 4,6 °C 9,4 °C 0,0 km/h (0 Bft)
13.04.2018 20:02 9,6 °C 72 % 1012,9 hPa 0,0 mm 0,0 km/h (0 Bft) NW 312 ° 0 min 0,000 mm 0,0 UV-I 0 W/m² 4,8 °C 9,6 °C 0,0 km/h (0 Bft)
13.04.2018 20:03 9,7 °C 72 % 1012,9 hPa 0,0 mm 0,0 km/h (0 Bft) NW 312 ° 0 min 0,000 mm 0,0 UV-I 0 W/m² 4,9 °C 9,7 °C 0,0 km/h (0 Bft)
13.04.2018 20:04 9,7 °C 72 % 1013,0 hPa 0,0 mm 0,0 km/h (0 Bft) NW 312 ° 0 min 0,000 mm 0,0 UV-I 0 W/m² 4,9 °C 9,7 °C 0,0 km/h (0 Bft)
13.04.2018 20:05 9,6 °C 72 % 1013,0 hPa 0,0 mm 0,0 km/h (0 Bft) NW 312 ° 0 min 0,000 mm 0,0 UV-I 0 W/m² 4,8 °C 9,6 °C 0,0 km/h (0 Bft)
13.04.2018 20:06 9,4 °C 73 % 1013,0 hPa 0,0 mm 0,0 km/h (0 Bft) NW 313 ° 0 min 0,000 mm 0,0 UV-I 0 W/m² 4,8 °C 9,4 °C 0,0 km/h (0 Bft)
13.04.2018 20:07 9,4 °C 73 % 1013,1 hPa 0,0 mm 0,0 km/h (0 Bft) NW 312 ° 0 min 0,000 mm 0,0 UV-I 0 W/m² 4,8 °C 9,4 °C 0,0 km/h (0 Bft)
13.04.2018 20:08 9,4 °C 73 % 1013,1 hPa 0,0 mm 0,0 km/h (0 Bft) NW 312 ° 0 min 0,000 mm 0,0 UV-I 0 W/m² 4,8 °C 9,4 °C 0,0 km/h (0 Bft)
13.04.2018 20:09 9,4 °C 73 % 1013,1 hPa 0,0 mm 0,0 km/h (0 Bft) NW 312 ° 0 min 0,000 mm 0,0 UV-I 0 W/m² 4,8 °C 9,4 °C 0,0 km/h (0 Bft)
13.04.2018 20:10 9,4 °C 73 % 1013,1 hPa 0,0 mm 0,0 km/h (0 Bft) NW 312 ° 0 min 0,000 mm 0,0 UV-I 0 W/m² 4,8 °C 9,4 °C 0,0 km/h (0 Bft)
13.04.2018 20:11 9,4 °C 73 % 1013,1 hPa 0,0 mm 0,0 km/h (0 Bft) NW 312 ° 0 min 0,000 mm 0,0 UV-I 0 W/m² 4,8 °C 9,4 °C 0,0 km/h (0 Bft)
13.04.2018 20:12 9,4 °C 73 % 1013,1 hPa 0,0 mm 0,3 km/h (0 Bft) NW 312 ° 0 min 0,000 mm 0,0 UV-I 0 W/m² 4,8 °C 9,4 °C 1,6 km/h (1 Bft)
13.04.2018 20:13 9,4 °C 73 % 1013,1 hPa 0,0 mm 0,1 km/h (0 Bft) NW 312 ° 0 min 0,000 mm 0,0 UV-I 0 W/m² 4,8 °C 9,4 °C 1,6 km/h (1 Bft)
13.04.2018 20:14 9,4 °C 73 % 1013,1 hPa 0,0 mm 0,1 km/h (0 Bft) NW 312 ° 0 min 0,000 mm 0,0 UV-I 0 W/m² 4,8 °C 9,4 °C 1,6 km/h (1 Bft)
13.04.2018 20:15 9,4 °C 73 % 1013,1 hPa 0,0 mm 0,0 km/h (0 Bft) NW 312 ° 0 min 0,000 mm 0,0 UV-I 0 W/m² 4,8 °C 9,4 °C 0,0 km/h (0 Bft)
13.04.2018 20:16 9,4 °C 72 % 1013,1 hPa 0,0 mm 0,0 km/h (0 Bft) NW 312 ° 0 min 0,000 mm 0,0 UV-I 0 W/m² 4,6 °C 9,4 °C 0,0 km/h (0 Bft)
13.04.2018 20:17 9,5 °C 72 % 1013,2 hPa 0,0 mm 0,0 km/h (0 Bft) NW 312 ° 0 min 0,000 mm 0,0 UV-I 0 W/m² 4,7 °C 9,5 °C 0,0 km/h (0 Bft)
13.04.2018 20:18 9,6 °C 72 % 1013,2 hPa 0,0 mm 0,0 km/h (0 Bft) NW 312 ° 0 min 0,000 mm 0,0 UV-I 0 W/m² 4,8 °C 9,6 °C 0,0 km/h (0 Bft)
13.04.2018 20:19 9,6 °C 72 % 1013,2 hPa 0,0 mm 0,0 km/h (0 Bft) NW 312 ° 0 min 0,000 mm 0,0 UV-I 0 W/m² 4,8 °C 9,6 °C 0,0 km/h (0 Bft)
13.04.2018 20:20 9,6 °C 72 % 1013,2 hPa 0,0 mm 2,2 km/h (1 Bft) NW 312 ° 0 min 0,000 mm 0,0 UV-I 0 W/m² 4,8 °C 9,6 °C 3,2 km/h (1 Bft)
13.04.2018 20:21 9,6 °C 72 % 1013,3 hPa 0,0 mm 2,3 km/h (1 Bft) SW 229 ° 0 min 0,000 mm 0,0 UV-I 0 W/m² 4,8 °C 9,6 °C 3,2 km/h (1 Bft)
13.04.2018 20:22 9,4 °C 73 % 1013,3 hPa 0,0 mm 2,6 km/h (1 Bft) SW 220 ° 0 min 0,000 mm 0,0 UV-I 0 W/m² 4,8 °C 9,4 °C 4,8 km/h (1 Bft)
13.04.2018 20:23 9,4 °C 72 % 1013,3 hPa 0,0 mm 2,1 km/h (1 Bft) SW 217 ° 0 min 0,000 mm 0,0 UV-I 0 W/m² 4,6 °C 9,4 °C 3,2 km/h (1 Bft)
13.04.2018 20:24 9,4 °C 72 % 1013,3 hPa 0,0 mm 2,5 km/h (1 Bft) SW 217 ° 0 min 0,000 mm 0,0 UV-I 0 W/m² 4,6 °C 9,4 °C 3,2 km/h (1 Bft)
13.04.2018 20:25 9,4 °C 72 % 1013,3 hPa 0,0 mm 4,1 km/h (1 Bft) S-SW 210 ° 0 min 0,000 mm 0,0 UV-I 0 W/m² 4,6 °C 9,4 °C 4,8 km/h (1 Bft)
13.04.2018 20:26 9,3 °C 73 % 1013,3 hPa 0,0 mm 3,2 km/h (1 Bft) S-SW 210 ° 0 min 0,000 mm 0,0 UV-I 0 W/m² 4,7 °C 9,3 °C 4,8 km/h (1 Bft)
13.04.2018 20:27 9,3 °C 73 % 1013,3 hPa 0,0 mm 3,3 km/h (1 Bft) S-SW 210 ° 0 min 0,000 mm 0,0 UV-I 0 W/m² 4,7 °C 9,3 °C 4,8 km/h (1 Bft)
13.04.2018 20:28 9,3 °C 73 % 1013,3 hPa 0,0 mm 2,8 km/h (1 Bft) S-SW 210 ° 0 min 0,000 mm 0,0 UV-I 0 W/m² 4,7 °C 9,3 °C 3,2 km/h (1 Bft)
13.04.2018 20:29 9,2 °C 74 % 1013,4 hPa 0,0 mm 3,7 km/h (1 Bft) S-SW 210 ° 0 min 0,000 mm 0,0 UV-I 0 W/m² 4,8 °C 9,2 °C 4,8 km/h (1 Bft)
13.04.2018 20:30 9,2 °C 74 % 1013,4 hPa 0,0 mm 2,6 km/h (1 Bft) S-SW 210 ° 0 min 0,000 mm 0,0 UV-I 0 W/m² 4,8 °C 9,2 °C 4,8 km/h (1 Bft)
13.04.2018 20:31 9,2 °C 74 % 1013,4 hPa 0,0 mm 2,5 km/h (1 Bft) S-SW 210 ° 0 min 0,000 mm 0,0 UV-I 0 W/m² 4,8 °C 9,2 °C 3,2 km/h (1 Bft)
13.04.2018 20:32 9,2 °C 74 % 1013,4 hPa 0,0 mm 2,0 km/h (1 Bft) S-SW 210 ° 0 min 0,000 mm 0,0 UV-I 0 W/m² 4,8 °C 9,2 °C 3,2 km/h (1 Bft)
13.04.2018 20:33 9,2 °C 75 % 1013,4 hPa 0,0 mm 1,6 km/h (1 Bft) S-SW 210 ° 0 min 0,000 mm 0,0 UV-I 0 W/m² 5,0 °C 9,2 °C 3,2 km/h (1 Bft)
13.04.2018 20:34 9,1 °C 75 % 1013,5 hPa 0,0 mm 2,2 km/h (1 Bft) S-SW 210 ° 0 min 0,000 mm 0,0 UV-I 0 W/m² 4,9 °C 9,1 °C 3,2 km/h (1 Bft)
13.04.2018 20:35 9,1 °C 75 % 1013,4 hPa 0,0 mm 0,5 km/h (0 Bft) S-SW 210 ° 0 min 0,000 mm 0,0 UV-I 0 W/m² 4,9 °C 9,1 °C 1,6 km/h (1 Bft)
13.04.2018 20:36 9,1 °C 75 % 1013,4 hPa 0,0 mm 1,1 km/h (1 Bft) S-SW 210 ° 0 min 0,000 mm 0,0 UV-I 0 W/m² 4,9 °C 9,1 °C 3,2 km/h (1 Bft)
13.04.2018 20:37 9,1 °C 76 % 1013,5 hPa 0,0 mm 0,1 km/h (0 Bft) S-SW 210 ° 0 min 0,000 mm 0,0 UV-I 0 W/m² 5,1 °C 9,1 °C 1,6 km/h (1 Bft)
13.04.2018 20:38 9,1 °C 75 % 1013,5 hPa 0,0 mm 0,4 km/h (0 Bft) S-SW 210 ° 0 min 0,000 mm 0,0 UV-I 0 W/m² 4,9 °C 9,1 °C 1,6 km/h (1 Bft)
13.04.2018 20:39 9,1 °C 76 % 1013,5 hPa 0,0 mm 0,1 km/h (0 Bft) S-SW 210 ° 0 min 0,000 mm 0,0 UV-I 0 W/m² 5,1 °C 9,1 °C 1,6 km/h (1 Bft)
13.04.2018 20:40 9,1 °C 76 % 1013,6 hPa 0,0 mm 0,0 km/h (0 Bft) S-SW 210 ° 0 min 0,000 mm 0,0 UV-I 0 W/m² 5,1 °C 9,1 °C 0,0 km/h (0 Bft)
13.04.2018 20:41 9,1 °C 76 % 1013,5 hPa 0,0 mm 0,0 km/h (0 Bft) S-SW 210 ° 0 min 0,000 mm 0,0 UV-I 0 W/m² 5,1 °C 9,1 °C 0,0 km/h (0 Bft)
13.04.2018 20:42 9,0 °C 76 % 1013,6 hPa 0,0 mm 0,0 km/h (0 Bft) S-SW 210 ° 0 min 0,000 mm 0,0 UV-I 0 W/m² 5,0 °C 9,0 °C 0,0 km/h (0 Bft)
13.04.2018 20:43 8,9 °C 77 % 1013,6 hPa 0,0 mm 0,0 km/h (0 Bft) S-SW 210 ° 0 min 0,000 mm 0,0 UV-I 0 W/m² 5,1 °C 8,9 °C 0,0 km/h (0 Bft)
13.04.2018 20:44 9,0 °C 77 % 1013,6 hPa 0,0 mm 0,0 km/h (0 Bft) S-SW 210 ° 0 min 0,000 mm 0,0 UV-I 0 W/m² 5,2 °C 9,0 °C 0,0 km/h (0 Bft)
13.04.2018 20:45 9,0 °C 77 % 1013,6 hPa 0,0 mm 0,0 km/h (0 Bft) S-SW 210 ° 0 min 0,000 mm 0,0 UV-I 0 W/m² 5,2 °C 9,0 °C 0,0 km/h (0 Bft)
13.04.2018 20:46 8,9 °C 78 % 1013,7 hPa 0,0 mm 0,0 km/h (0 Bft) S-SW 210 ° 0 min 0,000 mm 0,0 UV-I 0 W/m² 5,3 °C 8,9 °C 0,0 km/h (0 Bft)
13.04.2018 20:47 8,9 °C 78 % 1013,7 hPa 0,0 mm 0,0 km/h (0 Bft) S-SW 210 ° 0 min 0,000 mm 0,0 UV-I 0 W/m² 5,3 °C 8,9 °C 0,0 km/h (0 Bft)
13.04.2018 20:48 8,9 °C 78 % 1013,8 hPa 0,0 mm 0,0 km/h (0 Bft) S-SW 210 ° 0 min 0,000 mm 0,0 UV-I 0 W/m² 5,3 °C 8,9 °C 0,0 km/h (0 Bft)
13.04.2018 20:49 8,9 °C 78 % 1013,7 hPa 0,0 mm 0,0 km/h (0 Bft) S-SW 210 ° 0 min 0,000 mm 0,0 UV-I 0 W/m² 5,3 °C 8,9 °C 0,0 km/h (0 Bft)
13.04.2018 20:50 8,9 °C 78 % 1013,8 hPa 0,0 mm 0,0 km/h (0 Bft) S-SW 210 ° 0 min 0,000 mm 0,0 UV-I 0 W/m² 5,3 °C 8,9 °C 0,0 km/h (0 Bft)
13.04.2018 20:51 8,9 °C 78 % 1013,9 hPa 0,0 mm 0,0 km/h (0 Bft) S-SW 210 ° 0 min 0,000 mm 0,0 UV-I 0 W/m² 5,3 °C 8,9 °C 0,0 km/h (0 Bft)
13.04.2018 20:52 9,0 °C 79 % 1013,9 hPa 0,0 mm 0,0 km/h (0 Bft) S-SW 210 ° 0 min 0,000 mm 0,0 UV-I 0 W/m² 5,6 °C 9,0 °C 0,0 km/h (0 Bft)
13.04.2018 20:53 9,0 °C 79 % 1013,9 hPa 0,0 mm 0,0 km/h (0 Bft) S-SW 210 ° 0 min 0,000 mm 0,0 UV-I 0 W/m² 5,6 °C 9,0 °C 0,0 km/h (0 Bft)
13.04.2018 20:54 9,0 °C 79 % 1013,9 hPa 0,0 mm 0,0 km/h (0 Bft) S-SW 210 ° 0 min 0,000 mm 0,0 UV-I 0 W/m² 5,6 °C 9,0 °C 0,0 km/h (0 Bft)
13.04.2018 20:55 8,9 °C 79 % 1013,9 hPa 0,0 mm 0,0 km/h (0 Bft) S-SW 210 ° 0 min 0,000 mm 0,0 UV-I 0 W/m² 5,5 °C 8,9 °C 0,0 km/h (0 Bft)
13.04.2018 20:56 8,9 °C 79 % 1014,0 hPa 0,0 mm 0,0 km/h (0 Bft) S-SW 210 ° 0 min 0,000 mm 0,0 UV-I 0 W/m² 5,5 °C 8,9 °C 0,0 km/h (0 Bft)
13.04.2018 20:57 8,9 °C 80 % 1014,0 hPa 0,0 mm 0,0 km/h (0 Bft) S-SW 210 ° 0 min 0,000 mm 0,0 UV-I 0 W/m² 5,6 °C 8,9 °C 0,0 km/h (0 Bft)
13.04.2018 20:58 8,9 °C 80 % 1014,1 hPa 0,0 mm 0,0 km/h (0 Bft) S-SW 210 ° 0 min 0,000 mm 0,0 UV-I 0 W/m² 5,6 °C 8,9 °C 0,0 km/h (0 Bft)
13.04.2018 20:59 8,9 °C 80 % 1014,0 hPa 0,0 mm 0,0 km/h (0 Bft) S-SW 210 ° 0 min 0,000 mm 0,0 UV-I 0 W/m² 5,6 °C 8,9 °C 0,0 km/h (0 Bft)
13.04.2018 21:00 8,8 °C 80 % 1014,1 hPa 0,0 mm 0,0 km/h (0 Bft) S-SW 210 ° 0 min 0,000 mm 0,0 UV-I 0 W/m² 5,5 °C 8,8 °C 0,0 km/h (0 Bft)
13.04.2018 21:01 8,7 °C 80 % 1014,1 hPa 0,0 mm 0,0 km/h (0 Bft) S-SW 210 ° 0 min 0,000 mm 0,0 UV-I 0 W/m² 5,4 °C 8,7 °C 0,0 km/h (0 Bft)
13.04.2018 21:02 8,7 °C 80 % 1014,1 hPa 0,0 mm 0,0 km/h (0 Bft) S-SW 210 ° 0 min 0,000 mm 0,0 UV-I 0 W/m² 5,4 °C 8,7 °C 0,0 km/h (0 Bft)
13.04.2018 21:03 8,7 °C 80 % 1014,1 hPa 0,0 mm 0,0 km/h (0 Bft) S-SW 210 ° 0 min 0,000 mm 0,0 UV-I 0 W/m² 5,4 °C 8,7 °C 0,0 km/h (0 Bft)
13.04.2018 21:04 8,6 °C 80 % 1014,2 hPa 0,0 mm 0,0 km/h (0 Bft) S-SW 210 ° 0 min 0,000 mm 0,0 UV-I 0 W/m² 5,3 °C 8,6 °C 0,0 km/h (0 Bft)
13.04.2018 21:05 8,6 °C 80 % 1014,2 hPa 0,0 mm 0,0 km/h (0 Bft) S-SW 210 ° 0 min 0,000 mm 0,0 UV-I 0 W/m² 5,3 °C 8,6 °C 0,0 km/h (0 Bft)
13.04.2018 21:06 8,6 °C 80 % 1014,2 hPa 0,0 mm 0,0 km/h (0 Bft) S-SW 210 ° 0 min 0,000 mm 0,0 UV-I 0 W/m² 5,3 °C 8,6 °C 0,0 km/h (0 Bft)
13.04.2018 21:07 8,6 °C 81 % 1014,2 hPa 0,0 mm 0,0 km/h (0 Bft) S-SW 210 ° 0 min 0,000 mm 0,0 UV-I 0 W/m² 5,5 °C 8,6 °C 0,0 km/h (0 Bft)
13.04.2018 21:08 8,6 °C 81 % 1014,2 hPa 0,0 mm 0,0 km/h (0 Bft) S-SW 210 ° 0 min 0,000 mm 0,0 UV-I 0 W/m² 5,5 °C 8,6 °C 0,0 km/h (0 Bft)
13.04.2018 21:09 8,6 °C 81 % 1014,3 hPa 0,0 mm 0,0 km/h (0 Bft) S-SW 210 ° 0 min 0,000 mm 0,0 UV-I 0 W/m² 5,5 °C 8,6 °C 0,0 km/h (0 Bft)
13.04.2018 21:10 8,6 °C 81 % 1014,3 hPa 0,0 mm 0,0 km/h (0 Bft) S-SW 210 ° 0 min 0,000 mm 0,0 UV-I 0 W/m² 5,5 °C 8,6 °C 0,0 km/h (0 Bft)
13.04.2018 21:11 8,5 °C 81 % 1014,3 hPa 0,0 mm 0,0 km/h (0 Bft) S-SW 210 ° 0 min 0,000 mm 0,0 UV-I 0 W/m² 5,4 °C 8,5 °C 0,0 km/h (0 Bft)
13.04.2018 21:12 8,4 °C 81 % 1014,3 hPa 0,0 mm 0,0 km/h (0 Bft) S-SW 210 ° 0 min 0,000 mm 0,0 UV-I 0 W/m² 5,3 °C 8,4 °C 0,0 km/h (0 Bft)
13.04.2018 21:13 8,4 °C 82 % 1014,2 hPa 0,0 mm 0,0 km/h (0 Bft) S-SW 210 ° 0 min 0,000 mm 0,0 UV-I 0 W/m² 5,5 °C 8,4 °C 0,0 km/h (0 Bft)
13.04.2018 21:14 8,4 °C 81 % 1014,3 hPa 0,0 mm 0,0 km/h (0 Bft) S-SW 210 ° 0 min 0,000 mm 0,0 UV-I 0 W/m² 5,3 °C 8,4 °C 0,0 km/h (0 Bft)
13.04.2018 21:15 8,4 °C 81 % 1014,3 hPa 0,0 mm 0,0 km/h (0 Bft) S-SW 210 ° 0 min 0,000 mm 0,0 UV-I 0 W/m² 5,3 °C 8,4 °C 0,0 km/h (0 Bft)
13.04.2018 21:16 8,5 °C 81 % 1014,3 hPa 0,0 mm 0,0 km/h (0 Bft) S-SW 210 ° 0 min 0,000 mm 0,0 UV-I 0 W/m² 5,4 °C 8,5 °C 0,0 km/h (0 Bft)
13.04.2018 21:17 8,6 °C 81 % 1014,4 hPa 0,0 mm 0,0 km/h (0 Bft) S-SW 210 ° 0 min 0,000 mm 0,0 UV-I 0 W/m² 5,5 °C 8,6 °C 0,0 km/h (0 Bft)
13.04.2018 21:18 8,6 °C 81 % 1014,4 hPa 0,0 mm 0,0 km/h (0 Bft) S-SW 210 ° 0 min 0,000 mm 0,0 UV-I 0 W/m² 5,5 °C 8,6 °C 0,0 km/h (0 Bft)
13.04.2018 21:19 8,7 °C 81 % 1014,4 hPa 0,0 mm 0,0 km/h (0 Bft) S-SW 210 ° 0 min 0,000 mm 0,0 UV-I 0 W/m² 5,6 °C 8,7 °C 0,0 km/h (0 Bft)
13.04.2018 21:20 8,7 °C 81 % 1014,4 hPa 0,0 mm 0,0 km/h (0 Bft) S-SW 210 ° 0 min 0,000 mm 0,0 UV-I 0 W/m² 5,6 °C 8,7 °C 0,0 km/h (0 Bft)
13.04.2018 21:21 8,7 °C 81 % 1014,5 hPa 0,0 mm 0,0 km/h (0 Bft) S-SW 210 ° 0 min 0,000 mm 0,0 UV-I 0 W/m² 5,6 °C 8,7 °C 0,0 km/h (0 Bft)
13.04.2018 21:22 8,7 °C 81 % 1014,4 hPa 0,0 mm 0,0 km/h (0 Bft) S-SW 210 ° 0 min 0,000 mm 0,0 UV-I 0 W/m² 5,6 °C 8,7 °C 0,0 km/h (0 Bft)
13.04.2018 21:23 8,7 °C 80 % 1014,4 hPa 0,0 mm 0,0 km/h (0 Bft) S-SW 210 ° 0 min 0,000 mm 0,0 UV-I 0 W/m² 5,4 °C 8,7 °C 0,0 km/h (0 Bft)
13.04.2018 21:24 8,8 °C 80 % 1014,5 hPa 0,0 mm 0,0 km/h (0 Bft) S-SW 210 ° 0 min 0,000 mm 0,0 UV-I 0 W/m² 5,5 °C 8,8 °C 0,0 km/h (0 Bft)
13.04.2018 21:25 8,8 °C 80 % 1014,5 hPa 0,0 mm 0,0 km/h (0 Bft) S-SW 210 ° 0 min 0,000 mm 0,0 UV-I 0 W/m² 5,5 °C 8,8 °C 0,0 km/h (0 Bft)
13.04.2018 21:26 8,8 °C 80 % 1014,5 hPa 0,0 mm 0,0 km/h (0 Bft) S-SW 210 ° 0 min 0,000 mm 0,0 UV-I 0 W/m² 5,5 °C 8,8 °C 0,0 km/h (0 Bft)
13.04.2018 21:27 8,8 °C 80 % 1014,5 hPa 0,0 mm 0,0 km/h (0 Bft) S-SW 210 ° 0 min 0,000 mm 0,0 UV-I 0 W/m² 5,5 °C 8,8 °C 0,0 km/h (0 Bft)
13.04.2018 21:28 8,8 °C 80 % 1014,5 hPa 0,0 mm 0,0 km/h (0 Bft) S-SW 210 ° 0 min 0,000 mm 0,0 UV-I 0 W/m² 5,5 °C 8,8 °C 0,0 km/h (0 Bft)
13.04.2018 21:29 8,8 °C 80 % 1014,6 hPa 0,0 mm 0,0 km/h (0 Bft) S-SW 210 ° 0 min 0,000 mm 0,0 UV-I 0 W/m² 5,5 °C 8,8 °C 0,0 km/h (0 Bft)
13.04.2018 21:30 8,8 °C 80 % 1014,6 hPa 0,0 mm 0,0 km/h (0 Bft) S-SW 210 ° 0 min 0,000 mm 0,0 UV-I 0 W/m² 5,5 °C 8,8 °C 0,0 km/h (0 Bft)
13.04.2018 21:31 8,8 °C 80 % 1014,5 hPa 0,0 mm 0,0 km/h (0 Bft) S-SW 210 ° 0 min 0,000 mm 0,0 UV-I 0 W/m² 5,5 °C 8,8 °C 0,0 km/h (0 Bft)
13.04.2018 21:32 8,8 °C 80 % 1014,5 hPa 0,0 mm 0,0 km/h (0 Bft) S-SW 210 ° 0 min 0,000 mm 0,0 UV-I 0 W/m² 5,5 °C 8,8 °C 0,0 km/h (0 Bft)
13.04.2018 21:33 8,7 °C 81 % 1014,6 hPa 0,0 mm 0,0 km/h (0 Bft) S-SW 210 ° 0 min 0,000 mm 0,0 UV-I 0 W/m² 5,6 °C 8,7 °C 0,0 km/h (0 Bft)
13.04.2018 21:34 8,7 °C 81 % 1014,6 hPa 0,0 mm 0,0 km/h (0 Bft) S-SW 210 ° 0 min 0,000 mm 0,0 UV-I 0 W/m² 5,6 °C 8,7 °C 0,0 km/h (0 Bft)
13.04.2018 21:35 8,8 °C 81 % 1014,6 hPa 0,0 mm 0,0 km/h (0 Bft) S-SW 210 ° 0 min 0,000 mm 0,0 UV-I 0 W/m² 5,7 °C 8,8 °C 0,0 km/h (0 Bft)
13.04.2018 21:36 8,7 °C 81 % 1014,6 hPa 0,0 mm 0,0 km/h (0 Bft) S-SW 210 ° 0 min 0,000 mm 0,0 UV-I 0 W/m² 5,6 °C 8,7 °C 0,0 km/h (0 Bft)
13.04.2018 21:37 8,7 °C 81 % 1014,6 hPa 0,0 mm 0,0 km/h (0 Bft) S-SW 210 ° 0 min 0,000 mm 0,0 UV-I 0 W/m² 5,6 °C 8,7 °C 0,0 km/h (0 Bft)
13.04.2018 21:38 8,7 °C 81 % 1014,5 hPa 0,0 mm 0,0 km/h (0 Bft) S-SW 210 ° 0 min 0,000 mm 0,0 UV-I 0 W/m² 5,6 °C 8,7 °C 0,0 km/h (0 Bft)
13.04.2018 21:39 8,7 °C 81 % 1014,6 hPa 0,0 mm 0,0 km/h (0 Bft) S-SW 210 ° 0 min 0,000 mm 0,0 UV-I 0 W/m² 5,6 °C 8,7 °C 0,0 km/h (0 Bft)
13.04.2018 21:40 8,7 °C 81 % 1014,6 hPa 0,0 mm 0,0 km/h (0 Bft) S-SW 210 ° 0 min 0,000 mm 0,0 UV-I 0 W/m² 5,6 °C 8,7 °C 0,0 km/h (0 Bft)
13.04.2018 21:41 8,7 °C 81 % 1014,5 hPa 0,0 mm 0,0 km/h (0 Bft) S-SW 210 ° 0 min 0,000 mm 0,0 UV-I 0 W/m² 5,6 °C 8,7 °C 0,0 km/h (0 Bft)
13.04.2018 21:42 8,6 °C 81 % 1014,6 hPa 0,0 mm 0,0 km/h (0 Bft) S-SW 210 ° 0 min 0,000 mm 0,0 UV-I 0 W/m² 5,5 °C 8,6 °C 0,0 km/h (0 Bft)
13.04.2018 21:43 8,6 °C 82 % 1014,7 hPa 0,0 mm 0,0 km/h (0 Bft) S-SW 210 ° 0 min 0,000 mm 0,0 UV-I 0 W/m² 5,7 °C 8,6 °C 0,0 km/h (0 Bft)
13.04.2018 21:44 8,6 °C 82 % 1014,7 hPa 0,0 mm 0,0 km/h (0 Bft) S-SW 210 ° 0 min 0,000 mm 0,0 UV-I 0 W/m² 5,7 °C 8,6 °C 0,0 km/h (0 Bft)
13.04.2018 21:45 8,6 °C 82 % 1014,6 hPa 0,0 mm 0,0 km/h (0 Bft) S-SW 210 ° 0 min 0,000 mm 0,0 UV-I 0 W/m² 5,7 °C 8,6 °C 0,0 km/h (0 Bft)
13.04.2018 21:46 8,6 °C 82 % 1014,7 hPa 0,0 mm 0,0 km/h (0 Bft) S-SW 210 ° 0 min 0,000 mm 0,0 UV-I 0 W/m² 5,7 °C 8,6 °C 0,0 km/h (0 Bft)
13.04.2018 21:47 8,6 °C 82 % 1014,7 hPa 0,0 mm 0,0 km/h (0 Bft) S-SW 210 ° 0 min 0,000 mm 0,0 UV-I 0 W/m² 5,7 °C 8,6 °C 0,0 km/h (0 Bft)
13.04.2018 21:48 8,6 °C 82 % 1014,7 hPa 0,0 mm 0,0 km/h (0 Bft) S-SW 210 ° 0 min 0,000 mm 0,0 UV-I 0 W/m² 5,7 °C 8,6 °C 0,0 km/h (0 Bft)
13.04.2018 21:49 8,4 °C 82 % 1014,7 hPa 0,0 mm 0,0 km/h (0 Bft) S-SW 210 ° 0 min 0,000 mm 0,0 UV-I 0 W/m² 5,5 °C 8,4 °C 0,0 km/h (0 Bft)
13.04.2018 21:50 8,4 °C 82 % 1014,7 hPa 0,0 mm 0,0 km/h (0 Bft) S-SW 210 ° 0 min 0,000 mm 0,0 UV-I 0 W/m² 5,5 °C 8,4 °C 0,0 km/h (0 Bft)
13.04.2018 21:51 8,4 °C 82 % 1014,7 hPa 0,0 mm 0,0 km/h (0 Bft) S-SW 210 ° 0 min 0,000 mm 0,0 UV-I 0 W/m² 5,5 °C 8,4 °C 0,0 km/h (0 Bft)
13.04.2018 21:52 8,3 °C 82 % 1014,7 hPa 0,0 mm 0,0 km/h (0 Bft) S-SW 210 ° 0 min 0,000 mm 0,0 UV-I 0 W/m² 5,4 °C 8,3 °C 0,0 km/h (0 Bft)
13.04.2018 21:53 8,3 °C 82 % 1014,7 hPa 0,0 mm 0,0 km/h (0 Bft) S-SW 210 ° 0 min 0,000 mm 0,0 UV-I 0 W/m² 5,4 °C 8,3 °C 0,0 km/h (0 Bft)
13.04.2018 21:54 8,3 °C 82 % 1014,7 hPa 0,0 mm 0,0 km/h (0 Bft) S-SW 210 ° 0 min 0,000 mm 0,0 UV-I 0 W/m² 5,4 °C 8,3 °C 0,0 km/h (0 Bft)
13.04.2018 21:55 8,3 °C 82 % 1014,8 hPa 0,0 mm 0,0 km/h (0 Bft) S-SW 210 ° 0 min 0,000 mm 0,0 UV-I 0 W/m² 5,4 °C 8,3 °C 0,0 km/h (0 Bft)
13.04.2018 21:56 8,3 °C 82 % 1014,8 hPa 0,0 mm 0,0 km/h (0 Bft) S-SW 210 ° 0 min 0,000 mm 0,0 UV-I 0 W/m² 5,4 °C 8,3 °C 0,0 km/h (0 Bft)
13.04.2018 21:57 8,3 °C 82 % 1014,8 hPa 0,0 mm 0,0 km/h (0 Bft) S-SW 210 ° 0 min 0,000 mm 0,0 UV-I 0 W/m² 5,4 °C 8,3 °C 0,0 km/h (0 Bft)
13.04.2018 21:58 8,2 °C 82 % 1014,8 hPa 0,0 mm 0,0 km/h (0 Bft) S-SW 210 ° 0 min 0,000 mm 0,0 UV-I 0 W/m² 5,3 °C 8,2 °C 0,0 km/h (0 Bft)
13.04.2018 21:59 8,1 °C 82 % 1014,9 hPa 0,0 mm 0,0 km/h (0 Bft) S-SW 210 ° 0 min 0,000 mm 0,0 UV-I 0 W/m² 5,2 °C 8,1 °C 0,0 km/h (0 Bft)
13.04.2018 22:00 7,9 °C 83 % 1014,9 hPa 0,0 mm 0,0 km/h (0 Bft) S-SW 210 ° 0 min 0,000 mm 0,0 UV-I 0 W/m² 5,2 °C 7,9 °C 0,0 km/h (0 Bft)
13.04.2018 22:01 7,8 °C 83 % 1014,9 hPa 0,0 mm 0,0 km/h (0 Bft) S-SW 210 ° 0 min 0,000 mm 0,0 UV-I 0 W/m² 5,1 °C 7,8 °C 0,0 km/h (0 Bft)
13.04.2018 22:02 7,7 °C 83 % 1014,9 hPa 0,0 mm 0,0 km/h (0 Bft) S-SW 210 ° 0 min 0,000 mm 0,0 UV-I 0 W/m² 5,0 °C 7,7 °C 0,0 km/h (0 Bft)
13.04.2018 22:03 7,6 °C 84 % 1014,9 hPa 0,0 mm 0,0 km/h (0 Bft) S-SW 210 ° 0 min 0,000 mm 0,0 UV-I 0 W/m² 5,1 °C 7,6 °C 0,0 km/h (0 Bft)
13.04.2018 22:04 7,6 °C 84 % 1015,0 hPa 0,0 mm 0,0 km/h (0 Bft) S-SW 210 ° 0 min 0,000 mm 0,0 UV-I 0 W/m² 5,1 °C 7,6 °C 0,0 km/h (0 Bft)
13.04.2018 22:05 7,6 °C 85 % 1015,0 hPa 0,0 mm 0,0 km/h (0 Bft) S-SW 210 ° 0 min 0,000 mm 0,0 UV-I 0 W/m² 5,2 °C 7,6 °C 0,0 km/h (0 Bft)
13.04.2018 22:06 7,6 °C 85 % 1015,0 hPa 0,0 mm 0,0 km/h (0 Bft) S-SW 210 ° 0 min 0,000 mm 0,0 UV-I 0 W/m² 5,2 °C 7,6 °C 0,0 km/h (0 Bft)
13.04.2018 22:07 7,7 °C 85 % 1014,9 hPa 0,0 mm 0,0 km/h (0 Bft) S-SW 210 ° 0 min 0,000 mm 0,0 UV-I 0 W/m² 5,3 °C 7,7 °C 0,0 km/h (0 Bft)
13.04.2018 22:08 7,8 °C 85 % 1014,9 hPa 0,0 mm 0,0 km/h (0 Bft) S-SW 210 ° 0 min 0,000 mm 0,0 UV-I 0 W/m² 5,4 °C 7,8 °C 0,0 km/h (0 Bft)
13.04.2018 22:09 7,8 °C 85 % 1014,9 hPa 0,0 mm 0,0 km/h (0 Bft) S-SW 210 ° 0 min 0,000 mm 0,0 UV-I 0 W/m² 5,4 °C 7,8 °C 0,0 km/h (0 Bft)
13.04.2018 22:10 7,8 °C 85 % 1014,8 hPa 0,0 mm 0,0 km/h (0 Bft) S-SW 210 ° 0 min 0,000 mm 0,0 UV-I 0 W/m² 5,4 °C 7,8 °C 0,0 km/h (0 Bft)
13.04.2018 22:11 7,9 °C 85 % 1014,8 hPa 0,0 mm 0,0 km/h (0 Bft) S-SW 210 ° 0 min 0,000 mm 0,0 UV-I 0 W/m² 5,5 °C 7,9 °C 0,0 km/h (0 Bft)
13.04.2018 22:12 7,9 °C 84 % 1014,8 hPa 0,0 mm 0,0 km/h (0 Bft) S-SW 210 ° 0 min 0,000 mm 0,0 UV-I 0 W/m² 5,4 °C 7,9 °C 0,0 km/h (0 Bft)
13.04.2018 22:13 7,9 °C 84 % 1014,9 hPa 0,0 mm 0,0 km/h (0 Bft) S-SW 210 ° 0 min 0,000 mm 0,0 UV-I 0 W/m² 5,4 °C 7,9 °C 0,0 km/h (0 Bft)
13.04.2018 22:14 8,0 °C 84 % 1014,8 hPa 0,0 mm 0,0 km/h (0 Bft) S-SW 210 ° 0 min 0,000 mm 0,0 UV-I 0 W/m² 5,5 °C 8,0 °C 0,0 km/h (0 Bft)
13.04.2018 22:15 8,0 °C 84 % 1014,9 hPa 0,0 mm 0,0 km/h (0 Bft) S-SW 210 ° 0 min 0,000 mm 0,0 UV-I 0 W/m² 5,5 °C 8,0 °C 0,0 km/h (0 Bft)
13.04.2018 22:16 8,0 °C 84 % 1014,8 hPa 0,0 mm 0,0 km/h (0 Bft) S-SW 210 ° 0 min 0,000 mm 0,0 UV-I 0 W/m² 5,5 °C 8,0 °C 0,0 km/h (0 Bft)
13.04.2018 22:17 8,0 °C 84 % 1014,9 hPa 0,0 mm 0,0 km/h (0 Bft) S-SW 210 ° 0 min 0,000 mm 0,0 UV-I 0 W/m² 5,5 °C 8,0 °C 0,0 km/h (0 Bft)
13.04.2018 22:18 8,0 °C 84 % 1014,9 hPa 0,0 mm 0,0 km/h (0 Bft) S-SW 210 ° 0 min 0,000 mm 0,0 UV-I 0 W/m² 5,5 °C 8,0 °C 0,0 km/h (0 Bft)
13.04.2018 22:19 8,0 °C 84 % 1014,9 hPa 0,0 mm 0,0 km/h (0 Bft) S-SW 210 ° 0 min 0,000 mm 0,0 UV-I 0 W/m² 5,5 °C 8,0 °C 0,0 km/h (0 Bft)
13.04.2018 22:20 8,0 °C 84 % 1014,9 hPa 0,0 mm 0,0 km/h (0 Bft) S-SW 210 ° 0 min 0,000 mm 0,0 UV-I 0 W/m² 5,5 °C 8,0 °C 0,0 km/h (0 Bft)
13.04.2018 22:21 7,9 °C 84 % 1015,0 hPa 0,0 mm 0,0 km/h (0 Bft) S-SW 210 ° 0 min 0,000 mm 0,0 UV-I 0 W/m² 5,4 °C 7,9 °C 0,0 km/h (0 Bft)
13.04.2018 22:22 7,8 °C 82 % 1015,0 hPa 0,0 mm 0,0 km/h (0 Bft) S-SW 210 ° 0 min 0,000 mm 0,0 UV-I 0 W/m² 4,9 °C 7,8 °C 0,0 km/h (0 Bft)
13.04.2018 22:23 7,7 °C 83 % 1015,0 hPa 0,0 mm 0,0 km/h (0 Bft) S-SW 210 ° 0 min 0,000 mm 0,0 UV-I 0 W/m² 5,0 °C 7,7 °C 0,0 km/h (0 Bft)
13.04.2018 22:24 7,5 °C 83 % 1015,0 hPa 0,0 mm 0,0 km/h (0 Bft) S-SW 210 ° 0 min 0,000 mm 0,0 UV-I 0 W/m² 4,8 °C 7,5 °C 0,0 km/h (0 Bft)
13.04.2018 22:25 7,4 °C 83 % 1015,0 hPa 0,0 mm 0,0 km/h (0 Bft) S-SW 210 ° 0 min 0,000 mm 0,0 UV-I 0 W/m² 4,7 °C 7,4 °C 0,0 km/h (0 Bft)
13.04.2018 22:26 7,2 °C 84 % 1015,0 hPa 0,0 mm 0,0 km/h (0 Bft) S-SW 210 ° 0 min 0,000 mm 0,0 UV-I 0 W/m² 4,7 °C 7,2 °C 0,0 km/h (0 Bft)
13.04.2018 22:27 7,2 °C 84 % 1015,0 hPa 0,0 mm 0,0 km/h (0 Bft) S-SW 210 ° 0 min 0,000 mm 0,0 UV-I 0 W/m² 4,7 °C 7,2 °C 0,0 km/h (0 Bft)
13.04.2018 22:28 7,2 °C 85 % 1015,0 hPa 0,0 mm 0,0 km/h (0 Bft) S-SW 210 ° 0 min 0,000 mm 0,0 UV-I 0 W/m² 4,9 °C 7,2 °C 0,0 km/h (0 Bft)
13.04.2018 22:29 7,2 °C 85 % 1015,0 hPa 0,0 mm 0,0 km/h (0 Bft) S-SW 210 ° 0 min 0,000 mm 0,0 UV-I 0 W/m² 4,9 °C 7,2 °C 0,0 km/h (0 Bft)
13.04.2018 22:30 7,1 °C 85 % 1015,0 hPa 0,0 mm 0,0 km/h (0 Bft) S-SW 210 ° 0 min 0,000 mm 0,0 UV-I 0 W/m² 4,8 °C 7,1 °C 0,0 km/h (0 Bft)
13.04.2018 22:31 7,1 °C 86 % 1015,0 hPa 0,0 mm 0,0 km/h (0 Bft) S-SW 210 ° 0 min 0,000 mm 0,0 UV-I 0 W/m² 4,9 °C 7,1 °C 0,0 km/h (0 Bft)
13.04.2018 22:32 7,1 °C 86 % 1015,0 hPa 0,0 mm 0,0 km/h (0 Bft) S-SW 210 ° 0 min 0,000 mm 0,0 UV-I 0 W/m² 4,9 °C 7,1 °C 0,0 km/h (0 Bft)
13.04.2018 22:33 7,2 °C 86 % 1015,0 hPa 0,0 mm 0,0 km/h (0 Bft) S-SW 210 ° 0 min 0,000 mm 0,0 UV-I 0 W/m² 5,0 °C 7,2 °C 0,0 km/h (0 Bft)
13.04.2018 22:34 7,2 °C 86 % 1015,0 hPa 0,0 mm 0,0 km/h (0 Bft) S-SW 210 ° 0 min 0,000 mm 0,0 UV-I 0 W/m² 5,0 °C 7,2 °C 0,0 km/h (0 Bft)
13.04.2018 22:35 7,2 °C 85 % 1015,0 hPa 0,0 mm 0,0 km/h (0 Bft) S-SW 210 ° 0 min 0,000 mm 0,0 UV-I 0 W/m² 4,9 °C 7,2 °C 0,0 km/h (0 Bft)
13.04.2018 22:36 7,3 °C 85 % 1015,1 hPa 0,0 mm 0,0 km/h (0 Bft) S-SW 210 ° 0 min 0,000 mm 0,0 UV-I 0 W/m² 4,9 °C 7,3 °C 0,0 km/h (0 Bft)
13.04.2018 22:37 7,3 °C 85 % 1015,1 hPa 0,0 mm 0,0 km/h (0 Bft) S-SW 210 ° 0 min 0,000 mm 0,0 UV-I 0 W/m² 4,9 °C 7,3 °C 0,0 km/h (0 Bft)
13.04.2018 22:38 7,2 °C 84 % 1015,1 hPa 0,0 mm 0,0 km/h (0 Bft) S-SW 210 ° 0 min 0,000 mm 0,0 UV-I 0 W/m² 4,7 °C 7,2 °C 0,0 km/h (0 Bft)
13.04.2018 22:39 7,2 °C 84 % 1015,0 hPa 0,0 mm 0,0 km/h (0 Bft) S-SW 210 ° 0 min 0,000 mm 0,0 UV-I 0 W/m² 4,7 °C 7,2 °C 0,0 km/h (0 Bft)
13.04.2018 22:40 7,1 °C 84 % 1015,0 hPa 0,0 mm 0,0 km/h (0 Bft) S-SW 210 ° 0 min 0,000 mm 0,0 UV-I 0 W/m² 4,6 °C 7,1 °C 0,0 km/h (0 Bft)
13.04.2018 22:41 7,0 °C 85 % 1015,0 hPa 0,0 mm 0,0 km/h (0 Bft) S-SW 210 ° 0 min 0,000 mm 0,0 UV-I 0 W/m² 4,7 °C 7,0 °C 0,0 km/h (0 Bft)
13.04.2018 22:42 7,1 °C 85 % 1015,0 hPa 0,0 mm 0,0 km/h (0 Bft) S-SW 210 ° 0 min 0,000 mm 0,0 UV-I 0 W/m² 4,8 °C 7,1 °C 0,0 km/h (0 Bft)
13.04.2018 22:43 7,1 °C 85 % 1015,0 hPa 0,0 mm 0,0 km/h (0 Bft) S-SW 210 ° 0 min 0,000 mm 0,0 UV-I 0 W/m² 4,8 °C 7,1 °C 0,0 km/h (0 Bft)
13.04.2018 22:44 7,1 °C 85 % 1015,0 hPa 0,0 mm 0,7 km/h (0 Bft) S-SW 210 ° 0 min 0,000 mm 0,0 UV-I 0 W/m² 4,8 °C 7,1 °C 3,2 km/h (1 Bft)
13.04.2018 22:45 7,2 °C 85 % 1015,0 hPa 0,0 mm 1,6 km/h (1 Bft) S-SW 210 ° 0 min 0,000 mm 0,0 UV-I 0 W/m² 4,9 °C 7,2 °C 3,2 km/h (1 Bft)
13.04.2018 22:46 7,2 °C 85 % 1014,9 hPa 0,0 mm 2,3 km/h (1 Bft) S-SW 210 ° 0 min 0,000 mm 0,0 UV-I 0 W/m² 4,9 °C 7,2 °C 3,2 km/h (1 Bft)
13.04.2018 22:47 7,2 °C 85 % 1015,0 hPa 0,0 mm 1,9 km/h (1 Bft) S-SW 210 ° 0 min 0,000 mm 0,0 UV-I 0 W/m² 4,9 °C 7,2 °C 3,2 km/h (1 Bft)
13.04.2018 22:48 7,2 °C 85 % 1015,0 hPa 0,0 mm 1,9 km/h (1 Bft) S-SW 210 ° 0 min 0,000 mm 0,0 UV-I 0 W/m² 4,9 °C 7,2 °C 3,2 km/h (1 Bft)
13.04.2018 22:49 7,3 °C 85 % 1015,0 hPa 0,0 mm 0,8 km/h (0 Bft) S-SW 210 ° 0 min 0,000 mm 0,0 UV-I 0 W/m² 4,9 °C 7,3 °C 3,2 km/h (1 Bft)
13.04.2018 22:50 7,3 °C 85 % 1015,0 hPa 0,0 mm 1,7 km/h (1 Bft) S-SW 205 ° 0 min 0,000 mm 0,0 UV-I 0 W/m² 4,9 °C 7,3 °C 3,2 km/h (1 Bft)
13.04.2018 22:51 7,3 °C 84 % 1015,0 hPa 0,0 mm 1,2 km/h (1 Bft) S-SW 205 ° 0 min 0,000 mm 0,0 UV-I 0 W/m² 4,8 °C 7,3 °C 1,6 km/h (1 Bft)
13.04.2018 22:52 7,2 °C 84 % 1015,0 hPa 0,0 mm 0,4 km/h (0 Bft) S-SW 205 ° 0 min 0,000 mm 0,0 UV-I 0 W/m² 4,7 °C 7,2 °C 1,6 km/h (1 Bft)
13.04.2018 22:53 7,2 °C 84 % 1015,0 hPa 0,0 mm 0,0 km/h (0 Bft) S-SW 205 ° 0 min 0,000 mm 0,0 UV-I 0 W/m² 4,7 °C 7,2 °C 0,0 km/h (0 Bft)
13.04.2018 22:54 7,2 °C 85 % 1015,0 hPa 0,0 mm 0,4 km/h (0 Bft) S-SW 203 ° 0 min 0,000 mm 0,0 UV-I 0 W/m² 4,9 °C 7,2 °C 3,2 km/h (1 Bft)
13.04.2018 22:55 7,2 °C 85 % 1015,1 hPa 0,0 mm 0,0 km/h (0 Bft) S-SW 203 ° 0 min 0,000 mm 0,0 UV-I 0 W/m² 4,9 °C 7,2 °C 0,0 km/h (0 Bft)
13.04.2018 22:56 7,2 °C 85 % 1015,1 hPa 0,0 mm 0,0 km/h (0 Bft) S-SW 203 ° 0 min 0,000 mm 0,0 UV-I 0 W/m² 4,9 °C 7,2 °C 0,0 km/h (0 Bft)
13.04.2018 22:57 7,1 °C 85 % 1015,1 hPa 0,0 mm 0,0 km/h (0 Bft) S-SW 203 ° 0 min 0,000 mm 0,0 UV-I 0 W/m² 4,8 °C 7,1 °C 0,0 km/h (0 Bft)
13.04.2018 22:58 7,0 °C 85 % 1015,1 hPa 0,0 mm 0,0 km/h (0 Bft) S-SW 203 ° 0 min 0,000 mm 0,0 UV-I 0 W/m² 4,7 °C 7,0 °C 0,0 km/h (0 Bft)
13.04.2018 22:59 6,8 °C 83 % 1015,1 hPa 0,0 mm 0,0 km/h (0 Bft) S-SW 203 ° 0 min 0,000 mm 0,0 UV-I 0 W/m² 4,1 °C 6,8 °C 0,0 km/h (0 Bft)
13.04.2018 23:00 6,6 °C 84 % 1015,1 hPa 0,0 mm 0,0 km/h (0 Bft) S-SW 203 ° 0 min 0,000 mm 0,0 UV-I 0 W/m² 4,1 °C 6,6 °C 0,0 km/h (0 Bft)
13.04.2018 23:01 6,3 °C 84 % 1015,1 hPa 0,0 mm 0,0 km/h (0 Bft) S-SW 203 ° 0 min 0,000 mm 0,0 UV-I 0 W/m² 3,8 °C 6,3 °C 0,0 km/h (0 Bft)
13.04.2018 23:02 6,1 °C 84 % 1015,2 hPa 0,0 mm 0,0 km/h (0 Bft) S-SW 203 ° 0 min 0,000 mm 0,0 UV-I 0 W/m² 3,6 °C 6,1 °C 0,0 km/h (0 Bft)
13.04.2018 23:03 5,8 °C 85 % 1015,2 hPa 0,0 mm 0,0 km/h (0 Bft) S-SW 203 ° 0 min 0,000 mm 0,0 UV-I 0 W/m² 3,5 °C 5,8 °C 0,0 km/h (0 Bft)
13.04.2018 23:04 5,6 °C 86 % 1015,2 hPa 0,0 mm 0,0 km/h (0 Bft) S-SW 203 ° 0 min 0,000 mm 0,0 UV-I 0 W/m² 3,4 °C 5,6 °C 0,0 km/h (0 Bft)
13.04.2018 23:05 5,6 °C 87 % 1015,1 hPa 0,0 mm 0,0 km/h (0 Bft) S-SW 203 ° 0 min 0,000 mm 0,0 UV-I 0 W/m² 3,6 °C 5,6 °C 0,0 km/h (0 Bft)
13.04.2018 23:06 5,6 °C 87 % 1015,2 hPa 0,0 mm 0,0 km/h (0 Bft) S-SW 203 ° 0 min 0,000 mm 0,0 UV-I 0 W/m² 3,6 °C 5,6 °C 0,0 km/h (0 Bft)
13.04.2018 23:07 5,7 °C 88 % 1015,1 hPa 0,0 mm 0,0 km/h (0 Bft) S-SW 203 ° 0 min 0,000 mm 0,0 UV-I 0 W/m² 3,9 °C 5,7 °C 0,0 km/h (0 Bft)
13.04.2018 23:08 5,7 °C 88 % 1015,1 hPa 0,0 mm 0,0 km/h (0 Bft) S-SW 203 ° 0 min 0,000 mm 0,0 UV-I 0 W/m² 3,9 °C 5,7 °C 0,0 km/h (0 Bft)
13.04.2018 23:09 5,8 °C 88 % 1015,1 hPa 0,0 mm 0,0 km/h (0 Bft) S-SW 203 ° 0 min 0,000 mm 0,0 UV-I 0 W/m² 4,0 °C 5,8 °C 0,0 km/h (0 Bft)
13.04.2018 23:10 5,9 °C 88 % 1015,1 hPa 0,0 mm 0,0 km/h (0 Bft) S-SW 203 ° 0 min 0,000 mm 0,0 UV-I 0 W/m² 4,1 °C 5,9 °C 0,0 km/h (0 Bft)
13.04.2018 23:11 6,1 °C 88 % 1015,1 hPa 0,0 mm 0,0 km/h (0 Bft) S-SW 203 ° 0 min 0,000 mm 0,0 UV-I 0 W/m² 4,3 °C 6,1 °C 0,0 km/h (0 Bft)
13.04.2018 23:12 6,2 °C 88 % 1015,2 hPa 0,0 mm 0,0 km/h (0 Bft) S-SW 203 ° 0 min 0,000 mm 0,0 UV-I 0 W/m² 4,4 °C 6,2 °C 0,0 km/h (0 Bft)
13.04.2018 23:13 6,3 °C 88 % 1015,1 hPa 0,0 mm 0,0 km/h (0 Bft) S-SW 203 ° 0 min 0,000 mm 0,0 UV-I 0 W/m² 4,5 °C 6,3 °C 0,0 km/h (0 Bft)
13.04.2018 23:14 6,4 °C 88 % 1015,1 hPa 0,0 mm 1,4 km/h (1 Bft) S 188 ° 0 min 0,000 mm 0,0 UV-I 0 W/m² 4,6 °C 6,4 °C 3,2 km/h (1 Bft)
13.04.2018 23:15 6,6 °C 87 % 1015,1 hPa 0,0 mm 0,5 km/h (0 Bft) S 188 ° 0 min 0,000 mm 0,0 UV-I 0 W/m² 4,6 °C 6,6 °C 1,6 km/h (1 Bft)
13.04.2018 23:16 6,7 °C 87 % 1015,1 hPa 0,0 mm 0,0 km/h (0 Bft) S 188 ° 0 min 0,000 mm 0,0 UV-I 0 W/m² 4,7 °C 6,7 °C 0,0 km/h (0 Bft)
13.04.2018 23:17 6,7 °C 87 % 1015,1 hPa 0,0 mm 0,0 km/h (0 Bft) S 188 ° 0 min 0,000 mm 0,0 UV-I 0 W/m² 4,7 °C 6,7 °C 0,0 km/h (0 Bft)
13.04.2018 23:18 6,7 °C 86 % 1015,1 hPa 0,0 mm 0,0 km/h (0 Bft) S 188 ° 0 min 0,000 mm 0,0 UV-I 0 W/m² 4,5 °C 6,7 °C 0,0 km/h (0 Bft)
13.04.2018 23:19 6,7 °C 86 % 1015,1 hPa 0,0 mm 0,3 km/h (0 Bft) S 188 ° 0 min 0,000 mm 0,0 UV-I 0 W/m² 4,5 °C 6,7 °C 1,6 km/h (1 Bft)
13.04.2018 23:20 6,7 °C 86 % 1015,1 hPa 0,0 mm 0,0 km/h (0 Bft) S 188 ° 0 min 0,000 mm 0,0 UV-I 0 W/m² 4,5 °C 6,7 °C 0,0 km/h (0 Bft)
13.04.2018 23:21 6,7 °C 86 % 1015,2 hPa 0,0 mm 0,0 km/h (0 Bft) S 188 ° 0 min 0,000 mm 0,0 UV-I 0 W/m² 4,5 °C 6,7 °C 0,0 km/h (0 Bft)
13.04.2018 23:22 6,5 °C 84 % 1015,1 hPa 0,0 mm 0,4 km/h (0 Bft) NW 317 ° 0 min 0,000 mm 0,0 UV-I 0 W/m² 4,0 °C 6,5 °C 3,2 km/h (1 Bft)
13.04.2018 23:23 6,2 °C 84 % 1015,2 hPa 0,0 mm 3,2 km/h (1 Bft) NW 317 ° 0 min 0,000 mm 0,0 UV-I 0 W/m² 3,7 °C 6,2 °C 4,8 km/h (1 Bft)
13.04.2018 23:24 5,9 °C 84 % 1015,2 hPa 0,0 mm 0,4 km/h (0 Bft) NW 317 ° 0 min 0,000 mm 0,0 UV-I 0 W/m² 3,4 °C 5,9 °C 3,2 km/h (1 Bft)
13.04.2018 23:25 5,6 °C 84 % 1015,3 hPa 0,0 mm 0,0 km/h (0 Bft) NW 317 ° 0 min 0,000 mm 0,0 UV-I 0 W/m² 3,1 °C 5,6 °C 0,0 km/h (0 Bft)
13.04.2018 23:26 5,3 °C 85 % 1015,2 hPa 0,0 mm 0,0 km/h (0 Bft) NW 317 ° 0 min 0,000 mm 0,0 UV-I 0 W/m² 3,0 °C 5,3 °C 0,0 km/h (0 Bft)
13.04.2018 23:27 5,2 °C 85 % 1015,3 hPa 0,0 mm 0,0 km/h (0 Bft) NW 317 ° 0 min 0,000 mm 0,0 UV-I 0 W/m² 2,9 °C 5,2 °C 0,0 km/h (0 Bft)
13.04.2018 23:28 5,1 °C 87 % 1015,3 hPa 0,0 mm 0,0 km/h (0 Bft) NW 317 ° 0 min 0,000 mm 0,0 UV-I 0 W/m² 3,1 °C 5,1 °C 0,0 km/h (0 Bft)
13.04.2018 23:29 5,1 °C 88 % 1015,3 hPa 0,0 mm 0,0 km/h (0 Bft) NW 317 ° 0 min 0,000 mm 0,0 UV-I 0 W/m² 3,3 °C 5,1 °C 0,0 km/h (0 Bft)
13.04.2018 23:30 5,2 °C 89 % 1015,3 hPa 0,0 mm 0,0 km/h (0 Bft) NW 317 ° 0 min 0,000 mm 0,0 UV-I 0 W/m² 3,5 °C 5,2 °C 0,0 km/h (0 Bft)
13.04.2018 23:31 5,3 °C 89 % 1015,3 hPa 0,0 mm 0,0 km/h (0 Bft) NW 317 ° 0 min 0,000 mm 0,0 UV-I 0 W/m² 3,6 °C 5,3 °C 0,0 km/h (0 Bft)
13.04.2018 23:32 5,4 °C 89 % 1015,3 hPa 0,0 mm 0,0 km/h (0 Bft) NW 317 ° 0 min 0,000 mm 0,0 UV-I 0 W/m² 3,7 °C 5,4 °C 0,0 km/h (0 Bft)
13.04.2018 23:33 5,4 °C 89 % 1015,3 hPa 0,0 mm 0,0 km/h (0 Bft) NW 317 ° 0 min 0,000 mm 0,0 UV-I 0 W/m² 3,7 °C 5,4 °C 0,0 km/h (0 Bft)
13.04.2018 23:34 5,6 °C 89 % 1015,4 hPa 0,0 mm 0,0 km/h (0 Bft) NW 317 ° 0 min 0,000 mm 0,0 UV-I 0 W/m² 3,9 °C 5,6 °C 0,0 km/h (0 Bft)
13.04.2018 23:35 5,6 °C 89 % 1015,3 hPa 0,0 mm 0,1 km/h (0 Bft) NW 317 ° 0 min 0,000 mm 0,0 UV-I 0 W/m² 3,9 °C 5,6 °C 1,6 km/h (1 Bft)
13.04.2018 23:36 5,7 °C 89 % 1015,3 hPa 0,0 mm 0,0 km/h (0 Bft) NW 317 ° 0 min 0,000 mm 0,0 UV-I 0 W/m² 4,0 °C 5,7 °C 0,0 km/h (0 Bft)
13.04.2018 23:37 5,8 °C 89 % 1015,3 hPa 0,0 mm 0,0 km/h (0 Bft) NW 317 ° 0 min 0,000 mm 0,0 UV-I 0 W/m² 4,1 °C 5,8 °C 0,0 km/h (0 Bft)
13.04.2018 23:38 5,6 °C 88 % 1015,3 hPa 0,0 mm 0,0 km/h (0 Bft) NW 317 ° 0 min 0,000 mm 0,0 UV-I 0 W/m² 3,8 °C 5,6 °C 0,0 km/h (0 Bft)
13.04.2018 23:39 5,4 °C 87 % 1015,3 hPa 0,0 mm 0,0 km/h (0 Bft) NW 317 ° 0 min 0,000 mm 0,0 UV-I 0 W/m² 3,4 °C 5,4 °C 0,0 km/h (0 Bft)
13.04.2018 23:40 5,3 °C 87 % 1015,4 hPa 0,0 mm 0,0 km/h (0 Bft) NW 317 ° 0 min 0,000 mm 0,0 UV-I 0 W/m² 3,3 °C 5,3 °C 0,0 km/h (0 Bft)
13.04.2018 23:41 5,4 °C 88 % 1015,4 hPa 0,0 mm 0,0 km/h (0 Bft) NW 317 ° 0 min 0,000 mm 0,0 UV-I 0 W/m² 3,6 °C 5,4 °C 0,0 km/h (0 Bft)
13.04.2018 23:42 5,3 °C 88 % 1015,4 hPa 0,0 mm 0,0 km/h (0 Bft) NW 317 ° 0 min 0,000 mm 0,0 UV-I 0 W/m² 3,5 °C 5,3 °C 0,0 km/h (0 Bft)
13.04.2018 23:43 5,1 °C 87 % 1015,5 hPa 0,0 mm 0,0 km/h (0 Bft) NW 317 ° 0 min 0,000 mm 0,0 UV-I 0 W/m² 3,1 °C 5,1 °C 0,0 km/h (0 Bft)
13.04.2018 23:44 4,9 °C 86 % 1015,5 hPa 0,0 mm 0,0 km/h (0 Bft) NW 317 ° 0 min 0,000 mm 0,0 UV-I 0 W/m² 2,8 °C 4,9 °C 0,0 km/h (0 Bft)
13.04.2018 23:45 4,8 °C 87 % 1015,6 hPa 0,0 mm 0,0 km/h (0 Bft) NW 317 ° 0 min 0,000 mm 0,0 UV-I 0 W/m² 2,8 °C 4,8 °C 0,0 km/h (0 Bft)
13.04.2018 23:46 4,6 °C 87 % 1015,6 hPa 0,0 mm 0,0 km/h (0 Bft) NW 317 ° 0 min 0,000 mm 0,0 UV-I 0 W/m² 2,6 °C 4,6 °C 0,0 km/h (0 Bft)
13.04.2018 23:47 4,3 °C 87 % 1015,6 hPa 0,0 mm 0,0 km/h (0 Bft) NW 317 ° 0 min 0,000 mm 0,0 UV-I 0 W/m² 2,3 °C 4,3 °C 0,0 km/h (0 Bft)
13.04.2018 23:48 4,2 °C 87 % 1015,6 hPa 0,0 mm 0,6 km/h (0 Bft) NW 317 ° 0 min 0,000 mm 0,0 UV-I 0 W/m² 2,2 °C 4,2 °C 1,6 km/h (1 Bft)
13.04.2018 23:49 4,1 °C 88 % 1015,7 hPa 0,0 mm 2,7 km/h (1 Bft) NW 317 ° 0 min 0,000 mm 0,0 UV-I 0 W/m² 2,3 °C 4,1 °C 3,2 km/h (1 Bft)
13.04.2018 23:50 4,3 °C 89 % 1015,6 hPa 0,0 mm 3,2 km/h (1 Bft) NW 317 ° 0 min 0,000 mm 0,0 UV-I 0 W/m² 2,7 °C 4,3 °C 3,2 km/h (1 Bft)
13.04.2018 23:51 4,6 °C 90 % 1015,6 hPa 0,0 mm 3,0 km/h (1 Bft) NW 317 ° 0 min 0,000 mm 0,0 UV-I 0 W/m² 3,1 °C 4,6 °C 3,2 km/h (1 Bft)
13.04.2018 23:52 4,7 °C 90 % 1015,6 hPa 0,0 mm 1,9 km/h (1 Bft) S-SW 211 ° 0 min 0,000 mm 0,0 UV-I 0 W/m² 3,2 °C 4,7 °C 3,2 km/h (1 Bft)
13.04.2018 23:53 4,9 °C 90 % 1015,7 hPa 0,0 mm 2,2 km/h (1 Bft) S-SW 211 ° 0 min 0,000 mm 0,0 UV-I 0 W/m² 3,4 °C 4,9 °C 3,2 km/h (1 Bft)
13.04.2018 23:54 5,1 °C 90 % 1015,6 hPa 0,0 mm 3,3 km/h (1 Bft) S-SW 200 ° 0 min 0,000 mm 0,0 UV-I 0 W/m² 3,6 °C 5,1 °C 4,8 km/h (1 Bft)
13.04.2018 23:55 5,2 °C 90 % 1015,6 hPa 0,0 mm 3,2 km/h (1 Bft) S-SW 200 ° 0 min 0,000 mm 0,0 UV-I 0 W/m² 3,7 °C 5,2 °C 3,2 km/h (1 Bft)
13.04.2018 23:56 5,2 °C 90 % 1015,6 hPa 0,0 mm 2,4 km/h (1 Bft) S-SW 200 ° 0 min 0,000 mm 0,0 UV-I 0 W/m² 3,7 °C 5,2 °C 3,2 km/h (1 Bft)
13.04.2018 23:57 5,3 °C 90 % 1015,6 hPa 0,0 mm 2,7 km/h (1 Bft) S-SW 200 ° 0 min 0,000 mm 0,0 UV-I 0 W/m² 3,8 °C 5,3 °C 3,2 km/h (1 Bft)
13.04.2018 23:58 5,4 °C 89 % 1015,5 hPa 0,0 mm 2,9 km/h (1 Bft) S-SW 200 ° 0 min 0,000 mm 0,0 UV-I 0 W/m² 3,7 °C 5,4 °C 3,2 km/h (1 Bft)
13.04.2018 23:59 5,5 °C 89 % 1015,6 hPa 0,0 mm 2,6 km/h (1 Bft) S-SW 200 ° 0 min 0,000 mm 0,0 UV-I 0 W/m² 3,8 °C 5,5 °C 3,2 km/h (1 Bft)
_ Min-Zeit 23:49 17:12 02:16 - 23:47 - - - - - - 03:16 23:49 23:47
Minimum _ 4,1 °C 48 % 998,8 hPa - 0,0 km/h (0 Bft) - - - - - - -0,6 °C 4,1 °C 0,0 km/h (0 Bft)
_ Max-Zeit 14:22 23:57 23:53 14:59 14:20 - - 16:51 14:01 14:20 14:21 15:08 14:22 16:36
Maximum _ 14,8 °C 90 % 1015,7 hPa 0,2 mm 20,8 km/h
W-NW (4 Bft)
- - 1 min 0,305 mm 4,9 UV-I 817 W/m² 7,2 °C 14,8 °C 30,6 km/h
W (5 Bft)
Durchschnitt _ 10,4 °C 63 % 1005,9 hPa #0,4 mm 4,2 km/h (1 Bft) W - #4:37 h #2,311 mm 2,2 UV-I 137 W/m² 3,5 °C 10,3 °C 6,8 km/h (2 Bft)